<?xml version="1.0" encoding="UTF-8" standalone="no" ?>
<gpx xmlns="http://www.topografix.com/GPX/1/1" creator="MapSource 6.16.3" version="1.1" xmlns:xsi="http://www.w3.org/2001/XMLSchema-instance" xsi:schemaLocation="http://www.topografix.com/GPX/1/1 http://www.topografix.com/GPX/1/1/gpx.xsd">

  <metadata>
    <link href="http://www.garmin.com">
      <text>Garmin International</text>
    </link>
    <time>2011-01-28T13:14:24Z</time>
    <bounds maxlat="31.84155497699976" maxlon="35.09033203125" minlat="31.803196035325527" minlon="34.989910963922739"/>
  </metadata>

  <trk>
    <name>2011-01-22T06:32:37Z</name>
    <extensions>
      <gpxx:TrackExtension xmlns:gpxx="http://www.garmin.com/xmlschemas/GpxExtensions/v3">
        <gpxx:DisplayColor>Red</gpxx:DisplayColor>
      </gpxx:TrackExtension>
    </extensions>
    <trkseg>
      <trkpt lat="31.839823024347425" lon="34.992783023044467">
        <ele>247.30199999999999</ele>
        <time>2011-01-22T06:32:38Z</time>
      </trkpt>
      <trkpt lat="31.839782036840916" lon="34.992715967819095">
        <ele>247.42099999999999</ele>
        <time>2011-01-22T06:33:42Z</time>
      </trkpt>
      <trkpt lat="31.839628983289003" lon="34.992775982245803">
        <ele>248.56999999999999</ele>
        <time>2011-01-22T06:33:49Z</time>
      </trkpt>
      <trkpt lat="31.839517001062632" lon="34.992819987237453">
        <ele>249.619</ele>
        <time>2011-01-22T06:33:54Z</time>
      </trkpt>
      <trkpt lat="31.83929898776114" lon="34.992829039692879">
        <ele>251.72200000000001</ele>
        <time>2011-01-22T06:34:01Z</time>
      </trkpt>
      <trkpt lat="31.839052978903055" lon="34.992791991680861">
        <ele>253.66399999999999</ele>
        <time>2011-01-22T06:34:09Z</time>
      </trkpt>
      <trkpt lat="31.838798001408577" lon="34.992671040818095">
        <ele>255.58699999999999</ele>
        <time>2011-01-22T06:34:18Z</time>
      </trkpt>
      <trkpt lat="31.838551992550492" lon="34.992590993642807">
        <ele>256.92099999999999</ele>
        <time>2011-01-22T06:34:26Z</time>
      </trkpt>
      <trkpt lat="31.838256027549505" lon="34.992570960894227">
        <ele>257.80500000000001</ele>
        <time>2011-01-22T06:34:35Z</time>
      </trkpt>
      <trkpt lat="31.837900970131159" lon="34.992628963664174">
        <ele>259.86099999999999</ele>
        <time>2011-01-22T06:34:46Z</time>
      </trkpt>
      <trkpt lat="31.837582038715482" lon="34.992683026939631">
        <ele>261.58300000000003</ele>
        <time>2011-01-22T06:34:56Z</time>
      </trkpt>
      <trkpt lat="31.837395038455725" lon="34.992892993614078">
        <ele>262.90800000000002</ele>
        <time>2011-01-22T06:35:02Z</time>
      </trkpt>
      <trkpt lat="31.837095972150564" lon="34.992780005559325">
        <ele>265.73599999999999</ele>
        <time>2011-01-22T06:35:12Z</time>
      </trkpt>
      <trkpt lat="31.83684996329248" lon="34.992838008329272">
        <ele>268.09100000000001</ele>
        <time>2011-01-22T06:35:21Z</time>
      </trkpt>
      <trkpt lat="31.83680503629148" lon="34.992847982794046">
        <ele>268.50599999999997</ele>
        <time>2011-01-22T06:35:23Z</time>
      </trkpt>
      <trkpt lat="31.836705962195992" lon="34.992758966982365">
        <ele>269.49400000000003</ele>
        <time>2011-01-22T06:35:28Z</time>
      </trkpt>
      <trkpt lat="31.836705962195992" lon="34.992730971425772">
        <ele>269.75900000000001</ele>
        <time>2011-01-22T06:35:29Z</time>
      </trkpt>
      <trkpt lat="31.836716020479798" lon="34.992518993094563">
        <ele>268.50400000000002</ele>
        <time>2011-01-22T06:35:35Z</time>
      </trkpt>
      <trkpt lat="31.836768994107842" lon="34.992358982563019">
        <ele>268.70299999999997</ele>
        <time>2011-01-22T06:35:39Z</time>
      </trkpt>
      <trkpt lat="31.836889022961259" lon="34.991946006193757">
        <ele>267.97199999999998</ele>
        <time>2011-01-22T06:35:48Z</time>
      </trkpt>
      <trkpt lat="31.836960017681122" lon="34.991659009829164">
        <ele>267.89299999999997</ele>
        <time>2011-01-22T06:35:54Z</time>
      </trkpt>
      <trkpt lat="31.836983989924192" lon="34.991564964875579">
        <ele>267.70999999999998</ele>
        <time>2011-01-22T06:35:56Z</time>
      </trkpt>
      <trkpt lat="31.837031012400985" lon="34.991432027891278">
        <ele>267.77699999999999</ele>
        <time>2011-01-22T06:35:59Z</time>
      </trkpt>
      <trkpt lat="31.837075017392635" lon="34.991354998201132">
        <ele>267.49900000000002</ele>
        <time>2011-01-22T06:36:01Z</time>
      </trkpt>
      <trkpt lat="31.837097983807325" lon="34.991314010694623">
        <ele>267.41199999999998</ele>
        <time>2011-01-22T06:36:02Z</time>
      </trkpt>
      <trkpt lat="31.837146012112498" lon="34.991229018196464">
        <ele>267.15699999999998</ele>
        <time>2011-01-22T06:36:04Z</time>
      </trkpt>
      <trkpt lat="31.837167972698808" lon="34.991189036518335">
        <ele>267.20400000000001</ele>
        <time>2011-01-22T06:36:05Z</time>
      </trkpt>
      <trkpt lat="31.837182976305485" lon="34.991116030141711">
        <ele>267.25400000000002</ele>
        <time>2011-01-22T06:36:06Z</time>
      </trkpt>
      <trkpt lat="31.837113993242383" lon="34.991040006279945">
        <ele>267.923</ele>
        <time>2011-01-22T06:36:09Z</time>
      </trkpt>
      <trkpt lat="31.836922969669104" lon="34.990830039605498">
        <ele>269.77300000000002</ele>
        <time>2011-01-22T06:36:17Z</time>
      </trkpt>
      <trkpt lat="31.836736975237727" lon="34.990626024082303">
        <ele>271.56299999999999</ele>
        <time>2011-01-22T06:36:25Z</time>
      </trkpt>
      <trkpt lat="31.836670003831387" lon="34.990551006048918">
        <ele>272.31599999999997</ele>
        <time>2011-01-22T06:36:28Z</time>
      </trkpt>
      <trkpt lat="31.836578976362944" lon="34.990452015772462">
        <ele>273.47199999999998</ele>
        <time>2011-01-22T06:36:32Z</time>
      </trkpt>
      <trkpt lat="31.836558021605015" lon="34.99042896553874">
        <ele>273.54199999999997</ele>
        <time>2011-01-22T06:36:33Z</time>
      </trkpt>
      <trkpt lat="31.836542012169957" lon="34.990400969982147">
        <ele>273.67700000000002</ele>
        <time>2011-01-22T06:36:34Z</time>
      </trkpt>
      <trkpt lat="31.836423994973302" lon="34.990175999701023">
        <ele>274.16500000000002</ele>
        <time>2011-01-22T06:36:41Z</time>
      </trkpt>
      <trkpt lat="31.836321987211704" lon="34.990009032189846">
        <ele>274.12</ele>
        <time>2011-01-22T06:36:46Z</time>
      </trkpt>
      <trkpt lat="31.836156025528908" lon="34.989924961701035">
        <ele>274.68799999999999</ele>
        <time>2011-01-22T06:36:51Z</time>
      </trkpt>
      <trkpt lat="31.835971958935261" lon="34.989910963922739">
        <ele>274.69600000000003</ele>
        <time>2011-01-22T06:36:56Z</time>
      </trkpt>
      <trkpt lat="31.835939018055797" lon="34.989923033863306">
        <ele>274.69600000000003</ele>
        <time>2011-01-22T06:37:00Z</time>
      </trkpt>
      <trkpt lat="31.83573198504746" lon="34.990085978060961">
        <ele>276.59199999999998</ele>
        <time>2011-01-22T06:37:04Z</time>
      </trkpt>
      <trkpt lat="31.835672976449132" lon="34.990133000537753">
        <ele>277.12200000000001</ele>
        <time>2011-01-22T06:37:06Z</time>
      </trkpt>
      <trkpt lat="31.835617991164327" lon="34.990175999701023">
        <ele>277.57999999999998</ele>
        <time>2011-01-22T06:37:08Z</time>
      </trkpt>
      <trkpt lat="31.835514977574348" lon="34.990325029939413">
        <ele>278.55099999999999</ele>
        <time>2011-01-22T06:37:13Z</time>
      </trkpt>
      <trkpt lat="31.835443982854486" lon="34.99053399078548">
        <ele>279.392</ele>
        <time>2011-01-22T06:37:19Z</time>
      </trkpt>
      <trkpt lat="31.835393020883203" lon="34.99068302102387">
        <ele>281.04899999999998</ele>
        <time>2011-01-22T06:37:25Z</time>
      </trkpt>
      <trkpt lat="31.835376005619764" lon="34.990731971338391">
        <ele>281.27699999999999</ele>
        <time>2011-01-22T06:37:27Z</time>
      </trkpt>
      <trkpt lat="31.835358990356326" lon="34.990784022957087">
        <ele>281.64800000000002</ele>
        <time>2011-01-22T06:37:29Z</time>
      </trkpt>
      <trkpt lat="31.835350021719933" lon="34.990810006856918">
        <ele>281.88600000000002</ele>
        <time>2011-01-22T06:37:30Z</time>
      </trkpt>
      <trkpt lat="31.835283972322941" lon="34.991001030430198">
        <ele>282.90800000000002</ele>
        <time>2011-01-22T06:37:37Z</time>
      </trkpt>
      <trkpt lat="31.835374999791384" lon="34.991626990959048">
        <ele>283.15300000000002</ele>
        <time>2011-01-22T06:37:42Z</time>
      </trkpt>
      <trkpt lat="31.835253965109587" lon="34.991183001548052">
        <ele>283.327</ele>
        <time>2011-01-22T06:37:48Z</time>
      </trkpt>
      <trkpt lat="31.83526000007987" lon="34.991366984322667">
        <ele>285.82999999999998</ele>
        <time>2011-01-22T06:37:52Z</time>
      </trkpt>
      <trkpt lat="31.835235022008419" lon="34.991553984582424">
        <ele>287.815</ele>
        <time>2011-01-22T06:38:01Z</time>
      </trkpt>
      <trkpt lat="31.83532202616334" lon="34.991639982908964">
        <ele>288.84199999999998</ele>
        <time>2011-01-22T06:38:08Z</time>
      </trkpt>
      <trkpt lat="31.835224963724613" lon="34.991669990122318">
        <ele>288.84199999999998</ele>
        <time>2011-01-22T06:38:15Z</time>
      </trkpt>
      <trkpt lat="31.83528296649456" lon="34.991950029507279">
        <ele>291.02300000000002</ele>
        <time>2011-01-22T06:38:23Z</time>
      </trkpt>
      <trkpt lat="31.83532202616334" lon="34.992067962884903">
        <ele>294.57799999999997</ele>
        <time>2011-01-22T06:38:31Z</time>
      </trkpt>
      <trkpt lat="31.835364019498229" lon="34.992181034758687">
        <ele>296.63799999999998</ele>
        <time>2011-01-22T06:38:39Z</time>
      </trkpt>
      <trkpt lat="31.835448006168008" lon="34.992315983399749">
        <ele>297.07799999999997</ele>
        <time>2011-01-22T06:38:47Z</time>
      </trkpt>
      <trkpt lat="31.835565017536283" lon="34.992341967299581">
        <ele>297.21600000000001</ele>
        <time>2011-01-22T06:38:54Z</time>
      </trkpt>
      <trkpt lat="31.835593013092875" lon="34.992348002269864">
        <ele>297.17500000000001</ele>
        <time>2011-01-22T06:38:55Z</time>
      </trkpt>
      <trkpt lat="31.835672976449132" lon="34.992498038336635">
        <ele>296.053</ele>
        <time>2011-01-22T06:39:00Z</time>
      </trkpt>
      <trkpt lat="31.835632994771004" lon="34.992593005299568">
        <ele>296.892</ele>
        <time>2011-01-22T06:39:04Z</time>
      </trkpt>
      <trkpt lat="31.835514977574348" lon="34.992708005011082">
        <ele>298.50599999999997</ele>
        <time>2011-01-22T06:39:12Z</time>
      </trkpt>
      <trkpt lat="31.835469966754317" lon="34.992901040241122">
        <ele>298.72000000000003</ele>
        <time>2011-01-22T06:39:20Z</time>
      </trkpt>
      <trkpt lat="31.835412969812751" lon="34.993040012195706">
        <ele>300.82900000000001</ele>
        <time>2011-01-22T06:39:27Z</time>
      </trkpt>
      <trkpt lat="31.835372988134623" lon="34.993136990815401">
        <ele>301.44499999999999</ele>
        <time>2011-01-22T06:39:32Z</time>
      </trkpt>
      <trkpt lat="31.835354967042804" lon="34.993179989978671">
        <ele>301.84399999999999</ele>
        <time>2011-01-22T06:39:34Z</time>
      </trkpt>
      <trkpt lat="31.83530199341476" lon="34.993308987468481">
        <ele>303.15899999999999</ele>
        <time>2011-01-22T06:39:40Z</time>
      </trkpt>
      <trkpt lat="31.835278021171689" lon="34.993365984410048">
        <ele>303.959</ele>
        <time>2011-01-22T06:39:43Z</time>
      </trkpt>
      <trkpt lat="31.835227981209755" lon="34.993486013263464">
        <ele>304.92200000000003</ele>
        <time>2011-01-22T06:39:50Z</time>
      </trkpt>
      <trkpt lat="31.835192022845149" lon="34.99364803545177">
        <ele>305.14400000000001</ele>
        <time>2011-01-22T06:39:56Z</time>
      </trkpt>
      <trkpt lat="31.835158998146653" lon="34.993805028498173">
        <ele>305.45800000000003</ele>
        <time>2011-01-22T06:40:02Z</time>
      </trkpt>
      <trkpt lat="31.835138965398073" lon="34.993913993239403">
        <ele>305.995</ele>
        <time>2011-01-22T06:40:07Z</time>
      </trkpt>
      <trkpt lat="31.835124967619777" lon="34.993990017101169">
        <ele>306.00700000000001</ele>
        <time>2011-01-22T06:40:11Z</time>
      </trkpt>
      <trkpt lat="31.835078028962016" lon="34.99412395991385">
        <ele>307.11099999999999</ele>
        <time>2011-01-22T06:40:18Z</time>
      </trkpt>
      <trkpt lat="31.835030000656843" lon="34.994226973503828">
        <ele>306.84800000000001</ele>
        <time>2011-01-22T06:40:22Z</time>
      </trkpt>
      <trkpt lat="31.834970992058516" lon="34.994345996528864">
        <ele>306.85500000000002</ele>
        <time>2011-01-22T06:40:26Z</time>
      </trkpt>
      <trkpt lat="31.834961017593741" lon="34.994629975408316">
        <ele>306.68200000000002</ele>
        <time>2011-01-22T06:40:32Z</time>
      </trkpt>
      <trkpt lat="31.83502396568656" lon="34.994941027835011">
        <ele>305.19999999999999</ele>
        <time>2011-01-22T06:40:39Z</time>
      </trkpt>
      <trkpt lat="31.8351099640131" lon="34.995284015312791">
        <ele>304.75799999999998</ele>
        <time>2011-01-22T06:40:48Z</time>
      </trkpt>
      <trkpt lat="31.835186993703246" lon="34.995489958673716">
        <ele>302.601</ele>
        <time>2011-01-22T06:40:53Z</time>
      </trkpt>
      <trkpt lat="31.835204008966684" lon="34.995805034413934">
        <ele>300.88900000000001</ele>
        <time>2011-01-22T06:40:59Z</time>
      </trkpt>
      <trkpt lat="31.835204008966684" lon="34.996178029105067">
        <ele>297.93799999999999</ele>
        <time>2011-01-22T06:41:07Z</time>
      </trkpt>
      <trkpt lat="31.835204008966684" lon="34.996214993298054">
        <ele>297.38299999999998</ele>
        <time>2011-01-22T06:41:08Z</time>
      </trkpt>
      <trkpt lat="31.835264023393393" lon="34.996332004666328">
        <ele>295.55099999999999</ele>
        <time>2011-01-22T06:41:12Z</time>
      </trkpt>
      <trkpt lat="31.835380028933287" lon="34.996370980516076">
        <ele>295.37</ele>
        <time>2011-01-22T06:41:15Z</time>
      </trkpt>
      <trkpt lat="31.835577003657818" lon="34.996488997712731">
        <ele>296.19</ele>
        <time>2011-01-22T06:41:21Z</time>
      </trkpt>
      <trkpt lat="31.835686974227428" lon="34.996672980487347">
        <ele>297.22300000000001</ele>
        <time>2011-01-22T06:41:27Z</time>
      </trkpt>
      <trkpt lat="31.835766015574336" lon="34.996795020997524">
        <ele>297.73099999999999</ele>
        <time>2011-01-22T06:41:32Z</time>
      </trkpt>
      <trkpt lat="31.835848996415734" lon="34.996919995173812">
        <ele>298.82299999999998</ele>
        <time>2011-01-22T06:41:39Z</time>
      </trkpt>
      <trkpt lat="31.835911022499204" lon="34.997011022642255">
        <ele>300.83199999999999</ele>
        <time>2011-01-22T06:41:44Z</time>
      </trkpt>
      <trkpt lat="31.835960978642106" lon="34.99708796851337">
        <ele>302.06299999999999</ele>
        <time>2011-01-22T06:41:48Z</time>
      </trkpt>
      <trkpt lat="31.836026022210717" lon="34.997185030952096">
        <ele>303.678</ele>
        <time>2011-01-22T06:41:53Z</time>
      </trkpt>
      <trkpt lat="31.836081007495522" lon="34.997268011793494">
        <ele>304.68599999999998</ele>
        <time>2011-01-22T06:41:58Z</time>
      </trkpt>
      <trkpt lat="31.836068015545607" lon="34.997377982363105">
        <ele>305.101</ele>
        <time>2011-01-22T06:42:05Z</time>
      </trkpt>
      <trkpt lat="31.836027028039098" lon="34.997521983459592">
        <ele>304.38799999999998</ele>
        <time>2011-01-22T06:42:09Z</time>
      </trkpt>
      <trkpt lat="31.835937006399035" lon="34.997780984267592">
        <ele>303.92899999999997</ele>
        <time>2011-01-22T06:42:15Z</time>
      </trkpt>
      <trkpt lat="31.835856037214398" lon="34.998016012832522">
        <ele>303.69</ele>
        <time>2011-01-22T06:42:21Z</time>
      </trkpt>
      <trkpt lat="31.835764003917575" lon="34.998209970071912">
        <ele>303.25700000000001</ele>
        <time>2011-01-22T06:42:26Z</time>
      </trkpt>
      <trkpt lat="31.835622014477849" lon="34.998368974775076">
        <ele>302.94900000000001</ele>
        <time>2011-01-22T06:42:31Z</time>
      </trkpt>
      <trkpt lat="31.835437025874853" lon="34.998325975611806">
        <ele>303.45800000000003</ele>
        <time>2011-01-22T06:42:37Z</time>
      </trkpt>
      <trkpt lat="31.835248013958335" lon="34.998144004493952">
        <ele>302.452</ele>
        <time>2011-01-22T06:42:43Z</time>
      </trkpt>
      <trkpt lat="31.835018014535308" lon="34.997901013121009">
        <ele>299.10399999999998</ele>
        <time>2011-01-22T06:42:48Z</time>
      </trkpt>
      <trkpt lat="31.83491500094533" lon="34.997827000916004">
        <ele>298.197</ele>
        <time>2011-01-22T06:42:50Z</time>
      </trkpt>
      <trkpt lat="31.834731018170714" lon="34.997741002589464">
        <ele>296.40300000000002</ele>
        <time>2011-01-22T06:42:53Z</time>
      </trkpt>
      <trkpt lat="31.83465801179409" lon="34.997737985104322">
        <ele>296.024</ele>
        <time>2011-01-22T06:42:54Z</time>
      </trkpt>
      <trkpt lat="31.834289962425828" lon="34.997721975669265">
        <ele>294.60300000000001</ele>
        <time>2011-01-22T06:42:59Z</time>
      </trkpt>
      <trkpt lat="31.833979999646544" lon="34.997739996761084">
        <ele>293.39400000000001</ele>
        <time>2011-01-22T06:43:04Z</time>
      </trkpt>
      <trkpt lat="31.833794005215168" lon="34.997751982882619">
        <ele>293.73599999999999</ele>
        <time>2011-01-22T06:43:08Z</time>
      </trkpt>
      <trkpt lat="31.833656961098313" lon="34.997761035338044">
        <ele>293.45299999999997</ele>
        <time>2011-01-22T06:43:11Z</time>
      </trkpt>
      <trkpt lat="31.833509020507336" lon="34.997751982882619">
        <ele>292.72399999999999</ele>
        <time>2011-01-22T06:43:14Z</time>
      </trkpt>
      <trkpt lat="31.833274997770786" lon="34.997636983171105">
        <ele>290.78199999999998</ele>
        <time>2011-01-22T06:43:19Z</time>
      </trkpt>
      <trkpt lat="31.833139965310693" lon="34.997435985133052">
        <ele>287.56200000000001</ele>
        <time>2011-01-22T06:43:23Z</time>
      </trkpt>
      <trkpt lat="31.833052961155772" lon="34.997348980978131">
        <ele>286.71600000000001</ele>
        <time>2011-01-22T06:43:25Z</time>
      </trkpt>
      <trkpt lat="31.832995964214206" lon="34.997315034270287">
        <ele>286.32299999999998</ele>
        <time>2011-01-22T06:43:26Z</time>
      </trkpt>
      <trkpt lat="31.83287400752306" lon="34.997242027893662">
        <ele>285.31700000000001</ele>
        <time>2011-01-22T06:43:28Z</time>
      </trkpt>
      <trkpt lat="31.832643002271652" lon="34.997048992663622">
        <ele>284.108</ele>
        <time>2011-01-22T06:43:32Z</time>
      </trkpt>
      <trkpt lat="31.832486009225249" lon="34.996921001002192">
        <ele>283.18000000000001</ele>
        <time>2011-01-22T06:43:35Z</time>
      </trkpt>
      <trkpt lat="31.832425994798541" lon="34.996910020709038">
        <ele>282.76999999999998</ele>
        <time>2011-01-22T06:43:36Z</time>
      </trkpt>
      <trkpt lat="31.832050988450646" lon="34.996843971312046">
        <ele>280.74900000000002</ele>
        <time>2011-01-22T06:43:42Z</time>
      </trkpt>
      <trkpt lat="31.831685034558177" lon="34.996755961328745">
        <ele>279.00299999999999</ele>
        <time>2011-01-22T06:43:47Z</time>
      </trkpt>
      <trkpt lat="31.831472972407937" lon="34.996673986315727">
        <ele>277.92500000000001</ele>
        <time>2011-01-22T06:43:50Z</time>
      </trkpt>
      <trkpt lat="31.831181030720472" lon="34.996568961068988">
        <ele>276.17899999999997</ele>
        <time>2011-01-22T06:43:54Z</time>
      </trkpt>
      <trkpt lat="31.830376032739878" lon="34.996434012427926">
        <ele>274.39999999999998</ele>
        <time>2011-01-22T06:43:58Z</time>
      </trkpt>
      <trkpt lat="31.830376032739878" lon="34.996434012427926">
        <ele>273.38499999999999</ele>
        <time>2011-01-22T06:44:00Z</time>
      </trkpt>
      <trkpt lat="31.830483991652727" lon="34.996425965800881">
        <ele>272.08699999999999</ele>
        <time>2011-01-22T06:44:03Z</time>
      </trkpt>
      <trkpt lat="31.830411991104484" lon="34.996430994942784">
        <ele>272.00900000000001</ele>
        <time>2011-01-22T06:44:04Z</time>
      </trkpt>
      <trkpt lat="31.830146033316851" lon="34.996505007147789">
        <ele>273.35700000000003</ele>
        <time>2011-01-22T06:44:09Z</time>
      </trkpt>
      <trkpt lat="31.829847972840071" lon="34.996598968282342">
        <ele>274.87099999999998</ele>
        <time>2011-01-22T06:44:17Z</time>
      </trkpt>
      <trkpt lat="31.829682011157274" lon="34.996652025729418">
        <ele>277.11700000000002</ele>
        <time>2011-01-22T06:44:23Z</time>
      </trkpt>
      <trkpt lat="31.829590983688831" lon="34.996698964387178">
        <ele>278.76400000000001</ele>
        <time>2011-01-22T06:44:28Z</time>
      </trkpt>
      <trkpt lat="31.829531975090504" lon="34.996729977428913">
        <ele>279.82999999999998</ele>
        <time>2011-01-22T06:44:32Z</time>
      </trkpt>
      <trkpt lat="31.829472966492176" lon="34.996760990470648">
        <ele>280.89499999999998</ele>
        <time>2011-01-22T06:44:36Z</time>
      </trkpt>
      <trkpt lat="31.829428039491177" lon="34.99678404070437">
        <ele>281.834</ele>
        <time>2011-01-22T06:44:39Z</time>
      </trkpt>
      <trkpt lat="31.829335000365973" lon="34.996832991018891">
        <ele>283.19600000000003</ele>
        <time>2011-01-22T06:44:45Z</time>
      </trkpt>
      <trkpt lat="31.829209020361304" lon="34.996899040415883">
        <ele>284.96699999999998</ele>
        <time>2011-01-22T06:44:53Z</time>
      </trkpt>
      <trkpt lat="31.829026965424418" lon="34.996917983517051">
        <ele>285.53899999999999</ele>
        <time>2011-01-22T06:45:00Z</time>
      </trkpt>
      <trkpt lat="31.828850023448467" lon="34.996972968801856">
        <ele>286.11099999999999</ele>
        <time>2011-01-22T06:45:06Z</time>
      </trkpt>
      <trkpt lat="31.828691018745303" lon="34.997140020132065">
        <ele>287.03100000000001</ele>
        <time>2011-01-22T06:45:13Z</time>
      </trkpt>
      <trkpt lat="31.82851399295032" lon="34.997363984584808">
        <ele>287.09899999999999</ele>
        <time>2011-01-22T06:45:21Z</time>
      </trkpt>
      <trkpt lat="31.828368986025453" lon="34.997584009543061">
        <ele>287.07400000000001</ele>
        <time>2011-01-22T06:45:28Z</time>
      </trkpt>
      <trkpt lat="31.828240994364023" lon="34.997888021171093">
        <ele>286.81700000000001</ele>
        <time>2011-01-22T06:45:36Z</time>
      </trkpt>
      <trkpt lat="31.82821199297905" lon="34.998162025585771">
        <ele>287.92200000000003</ele>
        <time>2011-01-22T06:45:43Z</time>
      </trkpt>
      <trkpt lat="31.828316012397408" lon="34.998461008071899">
        <ele>288.96600000000001</ele>
        <time>2011-01-22T06:45:52Z</time>
      </trkpt>
      <trkpt lat="31.828464036807418" lon="34.998721014708281">
        <ele>290.226</ele>
        <time>2011-01-22T06:46:01Z</time>
      </trkpt>
      <trkpt lat="31.828629998490214" lon="34.998975992202759">
        <ele>291.089</ele>
        <time>2011-01-22T06:46:10Z</time>
      </trkpt>
      <trkpt lat="31.828758995980024" lon="34.999051010236144">
        <ele>291.48599999999999</ele>
        <time>2011-01-22T06:46:15Z</time>
      </trkpt>
      <trkpt lat="31.82898698374629" lon="34.999171961098909">
        <ele>292.06400000000002</ele>
        <time>2011-01-22T06:46:23Z</time>
      </trkpt>
      <trkpt lat="31.829129979014397" lon="34.999307999387383">
        <ele>292.512</ele>
        <time>2011-01-22T06:46:29Z</time>
      </trkpt>
      <trkpt lat="31.82928797788918" lon="34.999522995203733">
        <ele>290.79899999999998</ele>
        <time>2011-01-22T06:46:34Z</time>
      </trkpt>
      <trkpt lat="31.829529041424394" lon="34.999851984903216">
        <ele>289.51600000000002</ele>
        <time>2011-01-22T06:46:40Z</time>
      </trkpt>
      <trkpt lat="31.829829029738903" lon="35.000200001522899">
        <ele>291.94600000000003</ele>
        <time>2011-01-22T06:46:49Z</time>
      </trkpt>
      <trkpt lat="31.830005971714854" lon="35.000474005937576">
        <ele>292.262</ele>
        <time>2011-01-22T06:46:55Z</time>
      </trkpt>
      <trkpt lat="31.83003899641335" lon="35.00052697956562">
        <ele>292.28500000000003</ele>
        <time>2011-01-22T06:46:56Z</time>
      </trkpt>
      <trkpt lat="31.83021099306643" lon="35.000711968168616">
        <ele>291.73399999999998</ele>
        <time>2011-01-22T06:47:00Z</time>
      </trkpt>
      <trkpt lat="31.830545011907816" lon="35.000987984240055">
        <ele>292.87700000000001</ele>
        <time>2011-01-22T06:47:07Z</time>
      </trkpt>
      <trkpt lat="31.830841982737184" lon="35.00123399309814">
        <ele>292.78800000000001</ele>
        <time>2011-01-22T06:47:13Z</time>
      </trkpt>
      <trkpt lat="31.831077011302114" lon="35.001428034156561">
        <ele>294.70100000000002</ele>
        <time>2011-01-22T06:47:19Z</time>
      </trkpt>
      <trkpt lat="31.831139959394932" lon="35.001481007784605">
        <ele>294.86900000000003</ele>
        <time>2011-01-22T06:47:21Z</time>
      </trkpt>
      <trkpt lat="31.831297036260366" lon="35.001571029424667">
        <ele>294.774</ele>
        <time>2011-01-22T06:47:25Z</time>
      </trkpt>
      <trkpt lat="31.831485964357853" lon="35.001639006659389">
        <ele>294.428</ele>
        <time>2011-01-22T06:47:29Z</time>
      </trkpt>
      <trkpt lat="31.831796010956168" lon="35.001869006082416">
        <ele>293.40600000000001</ele>
        <time>2011-01-22T06:47:36Z</time>
      </trkpt>
      <trkpt lat="31.831890977919102" lon="35.001944024115801">
        <ele>293.017</ele>
        <time>2011-01-22T06:47:38Z</time>
      </trkpt>
      <trkpt lat="31.832114020362496" lon="35.002183998003602">
        <ele>291.95800000000003</ele>
        <time>2011-01-22T06:47:43Z</time>
      </trkpt>
      <trkpt lat="31.832086024805903" lon="35.002304026857018">
        <ele>290.49700000000001</ele>
        <time>2011-01-22T06:47:46Z</time>
      </trkpt>
      <trkpt lat="31.832022992894053" lon="35.002363035455346">
        <ele>289.16800000000001</ele>
        <time>2011-01-22T06:47:48Z</time>
      </trkpt>
      <trkpt lat="31.831766003742814" lon="35.002574007958174">
        <ele>286.20499999999998</ele>
        <time>2011-01-22T06:47:53Z</time>
      </trkpt>
      <trkpt lat="31.831748988479376" lon="35.002769976854324">
        <ele>284.74000000000001</ele>
        <time>2011-01-22T06:47:56Z</time>
      </trkpt>
      <trkpt lat="31.831821994856" lon="35.002939961850643">
        <ele>282.65300000000002</ele>
        <time>2011-01-22T06:47:59Z</time>
      </trkpt>
      <trkpt lat="31.831872034817934" lon="35.002958988770843">
        <ele>282.36500000000001</ele>
        <time>2011-01-22T06:48:00Z</time>
      </trkpt>
      <trkpt lat="31.832034979015589" lon="35.002977009862661">
        <ele>281.358</ele>
        <time>2011-01-22T06:48:03Z</time>
      </trkpt>
      <trkpt lat="31.832175962626934" lon="35.003112964332104">
        <ele>280.13799999999998</ele>
        <time>2011-01-22T06:48:06Z</time>
      </trkpt>
      <trkpt lat="31.832250980660319" lon="35.003287978470325">
        <ele>278.05099999999999</ele>
        <time>2011-01-22T06:48:08Z</time>
      </trkpt>
      <trkpt lat="31.832344019785523" lon="35.0036830175668">
        <ele>276.678</ele>
        <time>2011-01-22T06:48:12Z</time>
      </trkpt>
      <trkpt lat="31.832306971773505" lon="35.003830958157778">
        <ele>276.74200000000002</ele>
        <time>2011-01-22T06:48:14Z</time>
      </trkpt>
      <trkpt lat="31.832193983718753" lon="35.004024999216199">
        <ele>276.221</ele>
        <time>2011-01-22T06:48:17Z</time>
      </trkpt>
      <trkpt lat="31.832072027027607" lon="35.004338985309005">
        <ele>273.22199999999998</ele>
        <time>2011-01-22T06:48:21Z</time>
      </trkpt>
      <trkpt lat="31.832080995664001" lon="35.004434958100319">
        <ele>272.87900000000002</ele>
        <time>2011-01-22T06:48:22Z</time>
      </trkpt>
      <trkpt lat="31.832113014534116" lon="35.004693036898971">
        <ele>272.50400000000002</ele>
        <time>2011-01-22T06:48:25Z</time>
      </trkpt>
      <trkpt lat="31.832131035625935" lon="35.004836032167077">
        <ele>272.79700000000003</ele>
        <time>2011-01-22T06:48:27Z</time>
      </trkpt>
      <trkpt lat="31.83212298899889" lon="35.004883976653218">
        <ele>272.92399999999998</ele>
        <time>2011-01-22T06:48:28Z</time>
      </trkpt>
      <trkpt lat="31.832045037299395" lon="35.005001993849874">
        <ele>272.98500000000001</ele>
        <time>2011-01-22T06:48:31Z</time>
      </trkpt>
      <trkpt lat="31.832026010379195" lon="35.005157981067896">
        <ele>272.71499999999997</ele>
        <time>2011-01-22T06:48:34Z</time>
      </trkpt>
      <trkpt lat="31.832047970965505" lon="35.005266023799777">
        <ele>273.37200000000001</ele>
        <time>2011-01-22T06:48:39Z</time>
      </trkpt>
      <trkpt lat="31.83212298899889" lon="35.005457969382405">
        <ele>274.67899999999997</ele>
        <time>2011-01-22T06:48:45Z</time>
      </trkpt>
      <trkpt lat="31.832174034789205" lon="35.005586966872215">
        <ele>276.00200000000001</ele>
        <time>2011-01-22T06:48:52Z</time>
      </trkpt>
      <trkpt lat="31.832220973446965" lon="35.005713030695915">
        <ele>277.96300000000002</ele>
        <time>2011-01-22T06:49:01Z</time>
      </trkpt>
      <trkpt lat="31.832220973446965" lon="35.005729962140322">
        <ele>278.07499999999999</ele>
        <time>2011-01-22T06:49:02Z</time>
      </trkpt>
      <trkpt lat="31.832220973446965" lon="35.005828030407429">
        <ele>278.73200000000003</ele>
        <time>2011-01-22T06:49:09Z</time>
      </trkpt>
      <trkpt lat="31.832220973446965" lon="35.005854014307261">
        <ele>278.93799999999999</ele>
        <time>2011-01-22T06:49:13Z</time>
      </trkpt>
      <trkpt lat="31.832220973446965" lon="35.005715964362025">
        <ele>278.47500000000002</ele>
        <time>2011-01-22T06:49:37Z</time>
      </trkpt>
      <trkpt lat="31.832175040617585" lon="35.005587972700596">
        <ele>277.45800000000003</ele>
        <time>2011-01-22T06:49:40Z</time>
      </trkpt>
      <trkpt lat="31.832097005099058" lon="35.005394015461206">
        <ele>275.70999999999998</ele>
        <time>2011-01-22T06:49:43Z</time>
      </trkpt>
      <trkpt lat="31.832041013985872" lon="35.00523098744452">
        <ele>274.72399999999999</ele>
        <time>2011-01-22T06:49:45Z</time>
      </trkpt>
      <trkpt lat="31.831947974860668" lon="35.005048010498285">
        <ele>274.60899999999998</ele>
        <time>2011-01-22T06:49:47Z</time>
      </trkpt>
      <trkpt lat="31.831800034269691" lon="35.004794038832188">
        <ele>273.83800000000002</ele>
        <time>2011-01-22T06:49:52Z</time>
      </trkpt>
      <trkpt lat="31.831462997943163" lon="35.004561021924019">
        <ele>272.66199999999998</ele>
        <time>2011-01-22T06:49:58Z</time>
      </trkpt>
      <trkpt lat="31.83134900406003" lon="35.004367986693978">
        <ele>271.39800000000002</ele>
        <time>2011-01-22T06:50:01Z</time>
      </trkpt>
      <trkpt lat="31.831342969089746" lon="35.004032040014863">
        <ele>269.07400000000001</ele>
        <time>2011-01-22T06:50:05Z</time>
      </trkpt>
      <trkpt lat="31.831194022670388" lon="35.003888038918376">
        <ele>267.99200000000002</ele>
        <time>2011-01-22T06:50:10Z</time>
      </trkpt>
      <trkpt lat="31.831104001030326" lon="35.003802962601185">
        <ele>267.17099999999999</ele>
        <time>2011-01-22T06:50:14Z</time>
      </trkpt>
      <trkpt lat="31.831064019352198" lon="35.003764992579818">
        <ele>266.59100000000001</ele>
        <time>2011-01-22T06:50:18Z</time>
      </trkpt>
      <trkpt lat="31.831064019352198" lon="35.003764992579818">
        <ele>266.66199999999998</ele>
        <time>2011-01-22T06:50:28Z</time>
      </trkpt>
      <trkpt lat="31.831064019352198" lon="35.003764992579818">
        <ele>266.613</ele>
        <time>2011-01-22T06:50:29Z</time>
      </trkpt>
      <trkpt lat="31.831192011013627" lon="35.003886027261615">
        <ele>267.65199999999999</ele>
        <time>2011-01-22T06:50:39Z</time>
      </trkpt>
      <trkpt lat="31.83128303848207" lon="35.004011001437902">
        <ele>268.53800000000001</ele>
        <time>2011-01-22T06:50:43Z</time>
      </trkpt>
      <trkpt lat="31.831241967156529" lon="35.004120972007513">
        <ele>269.82999999999998</ele>
        <time>2011-01-22T06:50:48Z</time>
      </trkpt>
      <trkpt lat="31.831270968541503" lon="35.004222979769111">
        <ele>271.596</ele>
        <time>2011-01-22T06:50:53Z</time>
      </trkpt>
      <trkpt lat="31.83128597214818" lon="35.004260027781129">
        <ele>272.10300000000001</ele>
        <time>2011-01-22T06:50:55Z</time>
      </trkpt>
      <trkpt lat="31.831323020160198" lon="35.004322975873947">
        <ele>273.05599999999998</ele>
        <time>2011-01-22T06:50:59Z</time>
      </trkpt>
      <trkpt lat="31.831406001001596" lon="35.004463959485292">
        <ele>275.23500000000001</ele>
        <time>2011-01-22T06:51:07Z</time>
      </trkpt>
      <trkpt lat="31.831484036520123" lon="35.004596980288625">
        <ele>276.69900000000001</ele>
        <time>2011-01-22T06:51:15Z</time>
      </trkpt>
      <trkpt lat="31.831512032076716" lon="35.004740981385112">
        <ele>278.351</ele>
        <time>2011-01-22T06:51:23Z</time>
      </trkpt>
      <trkpt lat="31.831504991278052" lon="35.004928987473249">
        <ele>280.53399999999999</ele>
        <time>2011-01-22T06:51:32Z</time>
      </trkpt>
      <trkpt lat="31.831499962136149" lon="35.005083968862891">
        <ele>282.89699999999999</ele>
        <time>2011-01-22T06:51:40Z</time>
      </trkpt>
      <trkpt lat="31.831496022641659" lon="35.005209026858211">
        <ele>284.52999999999997</ele>
        <time>2011-01-22T06:51:47Z</time>
      </trkpt>
      <trkpt lat="31.831490993499756" lon="35.005339030176401">
        <ele>286.14100000000002</ele>
        <time>2011-01-22T06:51:55Z</time>
      </trkpt>
      <trkpt lat="31.831443971022964" lon="35.005447994917631">
        <ele>287.863</ele>
        <time>2011-01-22T06:52:03Z</time>
      </trkpt>
      <trkpt lat="31.831355961039662" lon="35.005483031272888">
        <ele>289.93099999999998</ele>
        <time>2011-01-22T06:52:10Z</time>
      </trkpt>
      <trkpt lat="31.831264011561871" lon="35.005450006574392">
        <ele>291.589</ele>
        <time>2011-01-22T06:52:18Z</time>
      </trkpt>
      <trkpt lat="31.831230986863375" lon="35.005433997139335">
        <ele>291.84899999999999</ele>
        <time>2011-01-22T06:52:21Z</time>
      </trkpt>
      <trkpt lat="31.831121016293764" lon="35.005353027954698">
        <ele>292.70400000000001</ele>
        <time>2011-01-22T06:52:29Z</time>
      </trkpt>
      <trkpt lat="31.830972991883755" lon="35.005236016586423">
        <ele>293.13099999999997</ele>
        <time>2011-01-22T06:52:37Z</time>
      </trkpt>
      <trkpt lat="31.830939967185259" lon="35.005211038514972">
        <ele>293.44600000000003</ele>
        <time>2011-01-22T06:52:39Z</time>
      </trkpt>
      <trkpt lat="31.830834019929171" lon="35.005252026021481">
        <ele>294.46600000000001</ele>
        <time>2011-01-22T06:52:45Z</time>
      </trkpt>
      <trkpt lat="31.830860003829002" lon="35.005384040996432">
        <ele>295.98000000000002</ele>
        <time>2011-01-22T06:52:52Z</time>
      </trkpt>
      <trkpt lat="31.830895040184259" lon="35.005497029051185">
        <ele>297.428</ele>
        <time>2011-01-22T06:52:59Z</time>
      </trkpt>
      <trkpt lat="31.830895962193608" lon="35.005600964650512">
        <ele>298.87599999999998</ele>
        <time>2011-01-22T06:53:06Z</time>
      </trkpt>
      <trkpt lat="31.830848017707467" lon="35.005659973248839">
        <ele>299.709</ele>
        <time>2011-01-22T06:53:12Z</time>
      </trkpt>
      <trkpt lat="31.830736035481095" lon="35.0056810118258">
        <ele>299.84699999999998</ele>
        <time>2011-01-22T06:53:19Z</time>
      </trkpt>
      <trkpt lat="31.830536965280771" lon="35.005641030147672">
        <ele>299.64499999999998</ele>
        <time>2011-01-22T06:53:26Z</time>
      </trkpt>
      <trkpt lat="31.830367986112833" lon="35.005679000169039">
        <ele>300.10500000000002</ele>
        <time>2011-01-22T06:53:32Z</time>
      </trkpt>
      <trkpt lat="31.830238988623023" lon="35.005760975182056">
        <ele>301.18900000000002</ele>
        <time>2011-01-22T06:53:38Z</time>
      </trkpt>
      <trkpt lat="31.83014502748847" lon="35.005858037620783">
        <ele>303.154</ele>
        <time>2011-01-22T06:53:44Z</time>
      </trkpt>
      <trkpt lat="31.830091970041394" lon="35.006017964333296">
        <ele>304.56700000000001</ele>
        <time>2011-01-22T06:53:51Z</time>
      </trkpt>
      <trkpt lat="31.830032039433718" lon="35.00619700178504">
        <ele>306.17500000000001</ele>
        <time>2011-01-22T06:53:59Z</time>
      </trkpt>
      <trkpt lat="31.829983005300164" lon="35.006345026195049">
        <ele>307.39499999999998</ele>
        <time>2011-01-22T06:54:05Z</time>
      </trkpt>
      <trkpt lat="31.829912010580301" lon="35.006557004526258">
        <ele>309.43700000000001</ele>
        <time>2011-01-22T06:54:14Z</time>
      </trkpt>
      <trkpt lat="31.829848978668451" lon="35.006746016442776">
        <ele>310.96100000000001</ele>
        <time>2011-01-22T06:54:23Z</time>
      </trkpt>
      <trkpt lat="31.829759040847421" lon="35.006922036409378">
        <ele>311.57999999999998</ele>
        <time>2011-01-22T06:54:32Z</time>
      </trkpt>
      <trkpt lat="31.829632977023721" lon="35.007153041660786">
        <ele>312.18900000000002</ele>
        <time>2011-01-22T06:54:43Z</time>
      </trkpt>
      <trkpt lat="31.829529041424394" lon="35.00729301944375">
        <ele>311.77699999999999</ele>
        <time>2011-01-22T06:54:50Z</time>
      </trkpt>
      <trkpt lat="31.829376993700862" lon="35.007423022761941">
        <ele>311.79399999999998</ele>
        <time>2011-01-22T06:54:57Z</time>
      </trkpt>
      <trkpt lat="31.829273980110884" lon="35.00757297500968">
        <ele>311.31900000000002</ele>
        <time>2011-01-22T06:55:03Z</time>
      </trkpt>
      <trkpt lat="31.829260988160968" lon="35.007705995813012">
        <ele>311.923</ele>
        <time>2011-01-22T06:55:08Z</time>
      </trkpt>
      <trkpt lat="31.829299964010715" lon="35.007892996072769">
        <ele>313.89999999999998</ele>
        <time>2011-01-22T06:55:17Z</time>
      </trkpt>
      <trkpt lat="31.829331982880831" lon="35.00804697163403">
        <ele>315.858</ele>
        <time>2011-01-22T06:55:26Z</time>
      </trkpt>
      <trkpt lat="31.829367019236088" lon="35.008216034621">
        <ele>318.70499999999998</ele>
        <time>2011-01-22T06:55:35Z</time>
      </trkpt>
      <trkpt lat="31.829379005357623" lon="35.008370010182261">
        <ele>320.59500000000003</ele>
        <time>2011-01-22T06:55:43Z</time>
      </trkpt>
      <trkpt lat="31.829384034499526" lon="35.008578971028328">
        <ele>322.036</ele>
        <time>2011-01-22T06:55:53Z</time>
      </trkpt>
      <trkpt lat="31.829374982044101" lon="35.008767982944846">
        <ele>323.35899999999998</ele>
        <time>2011-01-22T06:56:01Z</time>
      </trkpt>
      <trkpt lat="31.829362995922565" lon="35.009008040651679">
        <ele>324.68400000000003</ele>
        <time>2011-01-22T06:56:11Z</time>
      </trkpt>
      <trkpt lat="31.829353021457791" lon="35.009206021204591">
        <ele>325.65499999999997</ele>
        <time>2011-01-22T06:56:19Z</time>
      </trkpt>
      <trkpt lat="31.829343969002366" lon="35.009382041171193">
        <ele>326.49200000000002</ele>
        <time>2011-01-22T06:56:26Z</time>
      </trkpt>
      <trkpt lat="31.829326031729579" lon="35.009738020598888">
        <ele>327.25400000000002</ele>
        <time>2011-01-22T06:56:38Z</time>
      </trkpt>
      <trkpt lat="31.829342041164637" lon="35.010102968662977">
        <ele>328.53800000000001</ele>
        <time>2011-01-22T06:56:50Z</time>
      </trkpt>
      <trkpt lat="31.829385040327907" lon="35.010379990562797">
        <ele>328.82900000000001</ele>
        <time>2011-01-22T06:56:59Z</time>
      </trkpt>
      <trkpt lat="31.829438013955951" lon="35.010667992755771">
        <ele>330.24900000000002</ele>
        <time>2011-01-22T06:57:09Z</time>
      </trkpt>
      <trkpt lat="31.829481013119221" lon="35.010898998007178">
        <ele>331.38999999999999</ele>
        <time>2011-01-22T06:57:18Z</time>
      </trkpt>
      <trkpt lat="31.829488975927234" lon="35.011109970510006">
        <ele>331.82600000000002</ele>
        <time>2011-01-22T06:57:27Z</time>
      </trkpt>
      <trkpt lat="31.829461986199021" lon="35.011190017685294">
        <ele>331.95299999999997</ele>
        <time>2011-01-22T06:57:30Z</time>
      </trkpt>
      <trkpt lat="31.829384034499526" lon="35.01137500628829">
        <ele>330.90800000000002</ele>
        <time>2011-01-22T06:57:36Z</time>
      </trkpt>
      <trkpt lat="31.829199967905879" lon="35.011577010154724">
        <ele>326.428</ele>
        <time>2011-01-22T06:57:43Z</time>
      </trkpt>
      <trkpt lat="31.829138025641441" lon="35.011710030958056">
        <ele>325.15499999999997</ele>
        <time>2011-01-22T06:57:46Z</time>
      </trkpt>
      <trkpt lat="31.829013973474503" lon="35.011982023715973">
        <ele>325.11200000000002</ele>
        <time>2011-01-22T06:57:52Z</time>
      </trkpt>
      <trkpt lat="31.828941972926259" lon="35.012110015377402">
        <ele>324.40300000000002</ele>
        <time>2011-01-22T06:57:57Z</time>
      </trkpt>
      <trkpt lat="31.828941972926259" lon="35.012110015377402">
        <ele>324.24599999999998</ele>
        <time>2011-01-22T06:57:59Z</time>
      </trkpt>
      <trkpt lat="31.828925963491201" lon="35.012132981792092">
        <ele>324.46899999999999</ele>
        <time>2011-01-22T07:00:49Z</time>
      </trkpt>
      <trkpt lat="31.828915989026427" lon="35.012147985398769">
        <ele>324.495</ele>
        <time>2011-01-22T07:00:50Z</time>
      </trkpt>
      <trkpt lat="31.828867960721254" lon="35.012215962633491">
        <ele>323.37799999999999</ele>
        <time>2011-01-22T07:00:57Z</time>
      </trkpt>
      <trkpt lat="31.828867960721254" lon="35.012215962633491">
        <ele>323.25</ele>
        <time>2011-01-22T07:00:58Z</time>
      </trkpt>
      <trkpt lat="31.828842982649803" lon="35.012252004817128">
        <ele>323.23000000000002</ele>
        <time>2011-01-22T07:01:49Z</time>
      </trkpt>
      <trkpt lat="31.828827979043126" lon="35.012272959575057">
        <ele>322.916</ele>
        <time>2011-01-22T07:01:50Z</time>
      </trkpt>
      <trkpt lat="31.828739969059825" lon="35.012399023398757">
        <ele>320.69400000000002</ele>
        <time>2011-01-22T07:01:57Z</time>
      </trkpt>
      <trkpt lat="31.828739969059825" lon="35.012399023398757">
        <ele>320.43700000000001</ele>
        <time>2011-01-22T07:01:58Z</time>
      </trkpt>
      <trkpt lat="31.828088024631143" lon="35.01277201808989">
        <ele>319.51600000000002</ele>
        <time>2011-01-22T07:02:41Z</time>
      </trkpt>
      <trkpt lat="31.828606026247144" lon="35.012589963153005">
        <ele>318.28199999999998</ele>
        <time>2011-01-22T07:02:44Z</time>
      </trkpt>
      <trkpt lat="31.828463030979037" lon="35.012832032516599">
        <ele>313.05799999999999</ele>
        <time>2011-01-22T07:02:51Z</time>
      </trkpt>
      <trkpt lat="31.828134963288903" lon="35.012935968115926">
        <ele>312.44299999999998</ele>
        <time>2011-01-22T07:02:53Z</time>
      </trkpt>
      <trkpt lat="31.828355994075537" lon="35.013047028332949">
        <ele>309.92000000000002</ele>
        <time>2011-01-22T07:02:57Z</time>
      </trkpt>
      <trkpt lat="31.828216016292572" lon="35.013247020542622">
        <ele>306.60899999999998</ele>
        <time>2011-01-22T07:03:02Z</time>
      </trkpt>
      <trkpt lat="31.828226996585727" lon="35.01328700222075">
        <ele>306.41699999999997</ele>
        <time>2011-01-22T07:03:03Z</time>
      </trkpt>
      <trkpt lat="31.828246023505926" lon="35.013551032170653">
        <ele>305.62400000000002</ele>
        <time>2011-01-22T07:03:08Z</time>
      </trkpt>
      <trkpt lat="31.8282559979707" lon="35.013653039932251">
        <ele>305.00599999999997</ele>
        <time>2011-01-22T07:03:10Z</time>
      </trkpt>
      <trkpt lat="31.828374015167356" lon="35.013935007154942">
        <ele>303.70299999999997</ele>
        <time>2011-01-22T07:03:14Z</time>
      </trkpt>
      <trkpt lat="31.82840502820909" lon="35.014008013531566">
        <ele>303.31900000000002</ele>
        <time>2011-01-22T07:03:15Z</time>
      </trkpt>
      <trkpt lat="31.828465964645147" lon="35.014311019331217">
        <ele>302.14600000000002</ele>
        <time>2011-01-22T07:03:19Z</time>
      </trkpt>
      <trkpt lat="31.828463030979037" lon="35.014535989612341">
        <ele>301.41500000000002</ele>
        <time>2011-01-22T07:03:23Z</time>
      </trkpt>
      <trkpt lat="31.828459007665515" lon="35.014653000980616">
        <ele>301.23599999999999</ele>
        <time>2011-01-22T07:03:27Z</time>
      </trkpt>
      <trkpt lat="31.828449033200741" lon="35.014937985688448">
        <ele>301.66899999999998</ele>
        <time>2011-01-22T07:03:35Z</time>
      </trkpt>
      <trkpt lat="31.828483985736966" lon="35.015334030613303">
        <ele>302.214</ele>
        <time>2011-01-22T07:03:44Z</time>
      </trkpt>
      <trkpt lat="31.828465964645147" lon="35.015636030584574">
        <ele>301.96699999999998</ele>
        <time>2011-01-22T07:03:51Z</time>
      </trkpt>
      <trkpt lat="31.828465964645147" lon="35.015894025564194">
        <ele>300.589</ele>
        <time>2011-01-22T07:03:55Z</time>
      </trkpt>
      <trkpt lat="31.828465964645147" lon="35.016060993075371">
        <ele>299.25599999999997</ele>
        <time>2011-01-22T07:03:57Z</time>
      </trkpt>
      <trkpt lat="31.828465964645147" lon="35.016149003058672">
        <ele>298.91500000000002</ele>
        <time>2011-01-22T07:03:58Z</time>
      </trkpt>
      <trkpt lat="31.828462025150657" lon="35.016233995556831">
        <ele>298.78899999999999</ele>
        <time>2011-01-22T07:03:59Z</time>
      </trkpt>
      <trkpt lat="31.828375020995736" lon="35.016527026891708">
        <ele>297.67399999999998</ele>
        <time>2011-01-22T07:04:03Z</time>
      </trkpt>
      <trkpt lat="31.828290028497577" lon="35.016605984419584">
        <ele>295.12599999999998</ele>
        <time>2011-01-22T07:04:05Z</time>
      </trkpt>
      <trkpt lat="31.828177962452173" lon="35.016718972474337">
        <ele>294.79399999999998</ele>
        <time>2011-01-22T07:04:07Z</time>
      </trkpt>
      <trkpt lat="31.828044019639492" lon="35.016733976081014">
        <ele>292.94799999999998</ele>
        <time>2011-01-22T07:04:10Z</time>
      </trkpt>
      <trkpt lat="31.827937988564372" lon="35.016715032979846">
        <ele>292.774</ele>
        <time>2011-01-22T07:04:11Z</time>
      </trkpt>
      <trkpt lat="31.827855007722974" lon="35.0167450401932">
        <ele>292.85199999999998</ele>
        <time>2011-01-22T07:04:13Z</time>
      </trkpt>
      <trkpt lat="31.827817959710956" lon="35.016758032143116">
        <ele>292.94299999999998</ele>
        <time>2011-01-22T07:04:14Z</time>
      </trkpt>
      <trkpt lat="31.82778300717473" lon="35.016771024093032">
        <ele>293.10000000000002</ele>
        <time>2011-01-22T07:04:15Z</time>
      </trkpt>
      <trkpt lat="31.827683011069894" lon="35.016805976629257">
        <ele>294.12200000000001</ele>
        <time>2011-01-22T07:04:18Z</time>
      </trkpt>
      <trkpt lat="31.827391991391778" lon="35.016644960269332">
        <ele>295.23399999999998</ele>
        <time>2011-01-22T07:04:25Z</time>
      </trkpt>
      <trkpt lat="31.827305993065238" lon="35.016558961942792">
        <ele>295.71800000000002</ele>
        <time>2011-01-22T07:04:29Z</time>
      </trkpt>
      <trkpt lat="31.827213037759066" lon="35.01659500412643">
        <ele>297.423</ele>
        <time>2011-01-22T07:04:34Z</time>
      </trkpt>
      <trkpt lat="31.827172972261906" lon="35.01665904186666">
        <ele>298.95400000000001</ele>
        <time>2011-01-22T07:04:40Z</time>
      </trkpt>
      <trkpt lat="31.827172972261906" lon="35.01665904186666">
        <ele>299.68000000000001</ele>
        <time>2011-01-22T07:04:56Z</time>
      </trkpt>
      <trkpt lat="31.827172972261906" lon="35.01665904186666">
        <ele>299.76299999999998</ele>
        <time>2011-01-22T07:04:57Z</time>
      </trkpt>
      <trkpt lat="31.827172972261906" lon="35.01665904186666">
        <ele>300.39299999999997</ele>
        <time>2011-01-22T07:05:03Z</time>
      </trkpt>
      <trkpt lat="31.827172972261906" lon="35.01665904186666">
        <ele>301.07799999999997</ele>
        <time>2011-01-22T07:05:10Z</time>
      </trkpt>
      <trkpt lat="31.827172972261906" lon="35.01665904186666">
        <ele>301.38900000000001</ele>
        <time>2011-01-22T07:05:13Z</time>
      </trkpt>
      <trkpt lat="31.827102983370423" lon="35.016813017427921">
        <ele>302.23200000000003</ele>
        <time>2011-01-22T07:05:18Z</time>
      </trkpt>
      <trkpt lat="31.827057972550392" lon="35.016930028796196">
        <ele>304.36399999999998</ele>
        <time>2011-01-22T07:05:27Z</time>
      </trkpt>
      <trkpt lat="31.827029976993799" lon="35.017028013244271">
        <ele>306.197</ele>
        <time>2011-01-22T07:05:34Z</time>
      </trkpt>
      <trkpt lat="31.827007010579109" lon="35.017105964943767">
        <ele>307.61799999999999</ele>
        <time>2011-01-22T07:05:40Z</time>
      </trkpt>
      <trkpt lat="31.82698798365891" lon="35.0171750318259">
        <ele>308.733</ele>
        <time>2011-01-22T07:05:45Z</time>
      </trkpt>
      <trkpt lat="31.826984966173768" lon="35.017182994633913">
        <ele>310.762</ele>
        <time>2011-01-22T07:05:52Z</time>
      </trkpt>
      <trkpt lat="31.826984966173768" lon="35.017415005713701">
        <ele>311.91300000000001</ele>
        <time>2011-01-22T07:05:59Z</time>
      </trkpt>
      <trkpt lat="31.826983038336039" lon="35.017425986006856">
        <ele>312.36799999999999</ele>
        <time>2011-01-22T07:06:01Z</time>
      </trkpt>
      <trkpt lat="31.826943978667259" lon="35.017549032345414">
        <ele>312.95699999999999</ele>
        <time>2011-01-22T07:06:09Z</time>
      </trkpt>
      <trkpt lat="31.826932998374104" lon="35.017582979053259">
        <ele>313.55799999999999</ele>
        <time>2011-01-22T07:06:14Z</time>
      </trkpt>
      <trkpt lat="31.826916988939047" lon="35.017636036500335">
        <ele>313.88400000000001</ele>
        <time>2011-01-22T07:06:26Z</time>
      </trkpt>
      <trkpt lat="31.826870972290635" lon="35.017780959606171">
        <ele>314.72300000000001</ele>
        <time>2011-01-22T07:06:33Z</time>
      </trkpt>
      <trkpt lat="31.8268399592489" lon="35.01797198317945">
        <ele>316.71699999999998</ele>
        <time>2011-01-22T07:06:41Z</time>
      </trkpt>
      <trkpt lat="31.826825039461255" lon="35.0181869789958">
        <ele>316.95499999999998</ele>
        <time>2011-01-22T07:06:49Z</time>
      </trkpt>
      <trkpt lat="31.826812969520688" lon="35.018397029489279">
        <ele>317.80799999999999</ele>
        <time>2011-01-22T07:06:56Z</time>
      </trkpt>
      <trkpt lat="31.82679696008563" lon="35.018666004762053">
        <ele>318.19</ele>
        <time>2011-01-22T07:07:06Z</time>
      </trkpt>
      <trkpt lat="31.826817998662591" lon="35.018810005858541">
        <ele>318.76900000000001</ele>
        <time>2011-01-22T07:07:13Z</time>
      </trkpt>
      <trkpt lat="31.8268399592489" lon="35.018860967829823">
        <ele>319.04000000000002</ele>
        <time>2011-01-22T07:07:18Z</time>
      </trkpt>
      <trkpt lat="31.826849011704326" lon="35.018881000578403">
        <ele>319.404</ele>
        <time>2011-01-22T07:07:22Z</time>
      </trkpt>
      <trkpt lat="31.826876001432538" lon="35.018913019448519">
        <ele>319.721</ele>
        <time>2011-01-22T07:07:30Z</time>
      </trkpt>
      <trkpt lat="31.826992006972432" lon="35.018989965319633">
        <ele>321.58800000000002</ele>
        <time>2011-01-22T07:07:37Z</time>
      </trkpt>
      <trkpt lat="31.827067025005817" lon="35.019115023314953">
        <ele>324.29300000000001</ele>
        <time>2011-01-22T07:07:44Z</time>
      </trkpt>
      <trkpt lat="31.827058978378773" lon="35.019301017746329">
        <ele>325.62799999999999</ele>
        <time>2011-01-22T07:07:51Z</time>
      </trkpt>
      <trkpt lat="31.826982032507658" lon="35.019531017169356">
        <ele>328.15199999999999</ele>
        <time>2011-01-22T07:08:00Z</time>
      </trkpt>
      <trkpt lat="31.826936015859246" lon="35.01966998912394">
        <ele>330.483</ele>
        <time>2011-01-22T07:08:06Z</time>
      </trkpt>
      <trkpt lat="31.826896034181118" lon="35.019787000492215">
        <ele>331.44</ele>
        <time>2011-01-22T07:08:12Z</time>
      </trkpt>
      <trkpt lat="31.82683702558279" lon="35.01992697827518">
        <ele>332.98200000000003</ele>
        <time>2011-01-22T07:08:18Z</time>
      </trkpt>
      <trkpt lat="31.826761001721025" lon="35.020108027383685">
        <ele>333.75400000000002</ele>
        <time>2011-01-22T07:08:26Z</time>
      </trkpt>
      <trkpt lat="31.826676009222865" lon="35.020272983238101">
        <ele>334.37900000000002</ele>
        <time>2011-01-22T07:08:34Z</time>
      </trkpt>
      <trkpt lat="31.826595040038228" lon="35.020413966849446">
        <ele>334.92700000000002</ele>
        <time>2011-01-22T07:08:40Z</time>
      </trkpt>
      <trkpt lat="31.826533013954759" lon="35.020600967109203">
        <ele>337.52999999999997</ele>
        <time>2011-01-22T07:08:48Z</time>
      </trkpt>
      <trkpt lat="31.826484985649586" lon="35.02069802954793">
        <ele>337.93599999999998</ele>
        <time>2011-01-22T07:08:53Z</time>
      </trkpt>
      <trkpt lat="31.826365040615201" lon="35.020860973745584">
        <ele>337.584</ele>
        <time>2011-01-22T07:09:00Z</time>
      </trkpt>
      <trkpt lat="31.826307959854603" lon="35.020940015092492">
        <ele>336.92500000000001</ele>
        <time>2011-01-22T07:09:03Z</time>
      </trkpt>
      <trkpt lat="31.825694991275668" lon="35.021355003118515">
        <ele>335.92000000000002</ele>
        <time>2011-01-22T07:09:08Z</time>
      </trkpt>
      <trkpt lat="31.825717035681009" lon="35.021464973688126">
        <ele>336.56400000000002</ele>
        <time>2011-01-22T07:09:11Z</time>
      </trkpt>
      <trkpt lat="31.82574100792408" lon="35.0215819850564">
        <ele>337.56799999999998</ele>
        <time>2011-01-22T07:09:18Z</time>
      </trkpt>
      <trkpt lat="31.826297985389829" lon="35.021630013361573">
        <ele>338.29300000000001</ele>
        <time>2011-01-22T07:09:24Z</time>
      </trkpt>
      <trkpt lat="31.826346013695002" lon="35.021706037223339">
        <ele>338.46300000000002</ele>
        <time>2011-01-22T07:09:29Z</time>
      </trkpt>
      <trkpt lat="31.826360011473298" lon="35.021777031943202">
        <ele>337.82799999999997</ele>
        <time>2011-01-22T07:09:34Z</time>
      </trkpt>
      <trkpt lat="31.826308965682983" lon="35.021826988086104">
        <ele>336.762</ele>
        <time>2011-01-22T07:09:36Z</time>
      </trkpt>
      <trkpt lat="31.826176028698683" lon="35.021954979747534">
        <ele>333.858</ele>
        <time>2011-01-22T07:09:40Z</time>
      </trkpt>
      <trkpt lat="31.825974024832249" lon="35.022150026634336">
        <ele>329.95400000000001</ele>
        <time>2011-01-22T07:09:46Z</time>
      </trkpt>
      <trkpt lat="31.825944017618895" lon="35.022179028019309">
        <ele>328.93000000000001</ele>
        <time>2011-01-22T07:09:48Z</time>
      </trkpt>
      <trkpt lat="31.825896995142102" lon="35.022224960848689">
        <ele>328.25599999999997</ele>
        <time>2011-01-22T07:09:52Z</time>
      </trkpt>
      <trkpt lat="31.825787024572492" lon="35.022330991923809">
        <ele>326.49900000000002</ele>
        <time>2011-01-22T07:09:56Z</time>
      </trkpt>
      <trkpt lat="31.825774032622576" lon="35.022342978045344">
        <ele>326.18700000000001</ele>
        <time>2011-01-22T07:09:57Z</time>
      </trkpt>
      <trkpt lat="31.825761962682009" lon="35.02235496416688">
        <ele>325.13</ele>
        <time>2011-01-22T07:10:04Z</time>
      </trkpt>
      <trkpt lat="31.825761962682009" lon="35.02235496416688">
        <ele>323.00900000000001</ele>
        <time>2011-01-22T07:10:09Z</time>
      </trkpt>
      <trkpt lat="31.825761962682009" lon="35.02235496416688">
        <ele>321.62900000000002</ele>
        <time>2011-01-22T07:10:11Z</time>
      </trkpt>
      <trkpt lat="31.82576104067266" lon="35.022319005802274">
        <ele>317.685</ele>
        <time>2011-01-22T07:10:16Z</time>
      </trkpt>
      <trkpt lat="31.825761962682009" lon="35.02235496416688">
        <ele>315.47800000000001</ele>
        <time>2011-01-22T07:10:19Z</time>
      </trkpt>
      <trkpt lat="31.825761962682009" lon="35.02235496416688">
        <ele>315.21699999999998</ele>
        <time>2011-01-22T07:10:20Z</time>
      </trkpt>
      <trkpt lat="31.824893010780215" lon="35.022306013852358">
        <ele>313.226</ele>
        <time>2011-01-22T07:10:24Z</time>
      </trkpt>
      <trkpt lat="31.824793014675379" lon="35.022306013852358">
        <ele>311.529</ele>
        <time>2011-01-22T07:10:27Z</time>
      </trkpt>
      <trkpt lat="31.82468899525702" lon="35.02231196500361">
        <ele>311.50900000000001</ele>
        <time>2011-01-22T07:10:32Z</time>
      </trkpt>
      <trkpt lat="31.824577013030648" lon="35.022373991087079">
        <ele>309.80200000000002</ele>
        <time>2011-01-22T07:10:38Z</time>
      </trkpt>
      <trkpt lat="31.824548011645675" lon="35.022390000522137">
        <ele>309.75299999999999</ele>
        <time>2011-01-22T07:10:39Z</time>
      </trkpt>
      <trkpt lat="31.82432203553617" lon="35.02241799607873">
        <ele>305.98700000000002</ele>
        <time>2011-01-22T07:10:44Z</time>
      </trkpt>
      <trkpt lat="31.824155990034342" lon="35.022280029952526">
        <ele>304.77199999999999</ele>
        <time>2011-01-22T07:10:48Z</time>
      </trkpt>
      <trkpt lat="31.824124976992607" lon="35.022234013304114">
        <ele>304.20999999999998</ele>
        <time>2011-01-22T07:10:49Z</time>
      </trkpt>
      <trkpt lat="31.823901012539864" lon="35.021912986412644">
        <ele>299.50099999999998</ele>
        <time>2011-01-22T07:10:56Z</time>
      </trkpt>
      <trkpt lat="31.823209002614021" lon="35.021346034482121">
        <ele>297.72000000000003</ele>
        <time>2011-01-22T07:10:59Z</time>
      </trkpt>
      <trkpt lat="31.823209002614021" lon="35.021346034482121">
        <ele>296.70999999999998</ele>
        <time>2011-01-22T07:11:01Z</time>
      </trkpt>
      <trkpt lat="31.823209002614021" lon="35.021346034482121">
        <ele>294.37099999999998</ele>
        <time>2011-01-22T07:11:06Z</time>
      </trkpt>
      <trkpt lat="31.823209002614021" lon="35.021346034482121">
        <ele>292.66300000000001</ele>
        <time>2011-01-22T07:11:13Z</time>
      </trkpt>
      <trkpt lat="31.823209002614021" lon="35.021346034482121">
        <ele>291.63600000000002</ele>
        <time>2011-01-22T07:11:19Z</time>
      </trkpt>
      <trkpt lat="31.823209002614021" lon="35.021346034482121">
        <ele>291.03800000000001</ele>
        <time>2011-01-22T07:11:22Z</time>
      </trkpt>
      <trkpt lat="31.823209002614021" lon="35.021346034482121">
        <ele>291.48899999999998</ele>
        <time>2011-01-22T07:11:45Z</time>
      </trkpt>
      <trkpt lat="31.823209002614021" lon="35.021346034482121">
        <ele>291.34800000000001</ele>
        <time>2011-01-22T07:11:48Z</time>
      </trkpt>
      <trkpt lat="31.823178995400667" lon="35.021620960906148">
        <ele>291.03800000000001</ele>
        <time>2011-01-22T07:11:53Z</time>
      </trkpt>
      <trkpt lat="31.82318695820868" lon="35.021543009206653">
        <ele>290.834</ele>
        <time>2011-01-22T07:11:56Z</time>
      </trkpt>
      <trkpt lat="31.82320598512888" lon="35.021369000896811">
        <ele>289.96499999999997</ele>
        <time>2011-01-22T07:12:02Z</time>
      </trkpt>
      <trkpt lat="31.823252001777291" lon="35.021147970110178">
        <ele>289.21800000000002</ele>
        <time>2011-01-22T07:12:09Z</time>
      </trkpt>
      <trkpt lat="31.823244960978627" lon="35.021035987883806">
        <ele>288.56999999999999</ele>
        <time>2011-01-22T07:12:14Z</time>
      </trkpt>
      <trkpt lat="31.823244960978627" lon="35.021035987883806">
        <ele>288.59899999999999</ele>
        <time>2011-01-22T07:12:15Z</time>
      </trkpt>
      <trkpt lat="31.823232974857092" lon="35.020983014255762">
        <ele>288.66800000000001</ele>
        <time>2011-01-22T07:12:23Z</time>
      </trkpt>
      <trkpt lat="31.823221994563937" lon="35.020934985950589">
        <ele>288.93700000000001</ele>
        <time>2011-01-22T07:12:28Z</time>
      </trkpt>
      <trkpt lat="31.823211014270782" lon="35.020883018150926">
        <ele>288.93599999999998</ele>
        <time>2011-01-22T07:12:33Z</time>
      </trkpt>
      <trkpt lat="31.823201961815357" lon="35.020842030644417">
        <ele>288.673</ele>
        <time>2011-01-22T07:12:37Z</time>
      </trkpt>
      <trkpt lat="31.823201961815357" lon="35.020842030644417">
        <ele>288.529</ele>
        <time>2011-01-22T07:12:43Z</time>
      </trkpt>
      <trkpt lat="31.823192993178964" lon="35.020802970975637">
        <ele>288.685</ele>
        <time>2011-01-22T07:12:47Z</time>
      </trkpt>
      <trkpt lat="31.823192993178964" lon="35.020802970975637">
        <ele>288.24700000000001</ele>
        <time>2011-01-22T07:12:50Z</time>
      </trkpt>
      <trkpt lat="31.823201961815357" lon="35.020843958482146">
        <ele>289.25400000000002</ele>
        <time>2011-01-22T07:13:14Z</time>
      </trkpt>
      <trkpt lat="31.823207996785641" lon="35.02087103202939">
        <ele>289.33600000000001</ele>
        <time>2011-01-22T07:13:20Z</time>
      </trkpt>
      <trkpt lat="31.823216965422034" lon="35.02091302536428">
        <ele>289.21300000000002</ele>
        <time>2011-01-22T07:13:32Z</time>
      </trkpt>
      <trkpt lat="31.823216965422034" lon="35.02091302536428">
        <ele>289.24000000000001</ele>
        <time>2011-01-22T07:13:33Z</time>
      </trkpt>
      <trkpt lat="31.823231969028711" lon="35.02097999677062">
        <ele>290.07299999999998</ele>
        <time>2011-01-22T07:13:40Z</time>
      </trkpt>
      <trkpt lat="31.823234986513853" lon="35.020990977063775">
        <ele>289.73500000000001</ele>
        <time>2011-01-22T07:13:43Z</time>
      </trkpt>
      <trkpt lat="31.823246972635388" lon="35.021044034510851">
        <ele>288.98899999999998</ele>
        <time>2011-01-22T07:13:56Z</time>
      </trkpt>
      <trkpt lat="31.823252001777291" lon="35.021141013130546">
        <ele>289.56700000000001</ele>
        <time>2011-01-22T07:14:01Z</time>
      </trkpt>
      <trkpt lat="31.823213025927544" lon="35.021336982026696">
        <ele>290.37</ele>
        <time>2011-01-22T07:14:07Z</time>
      </trkpt>
      <trkpt lat="31.823187964037061" lon="35.02153898589313">
        <ele>291.14299999999997</ele>
        <time>2011-01-22T07:14:14Z</time>
      </trkpt>
      <trkpt lat="31.823171032592654" lon="35.021690027788281">
        <ele>291.84300000000002</ele>
        <time>2011-01-22T07:14:20Z</time>
      </trkpt>
      <trkpt lat="31.823169020935893" lon="35.021707965061069">
        <ele>291.87599999999998</ele>
        <time>2011-01-22T07:14:21Z</time>
      </trkpt>
      <trkpt lat="31.823166003450751" lon="35.021737972274423">
        <ele>291.44799999999998</ele>
        <time>2011-01-22T07:14:26Z</time>
      </trkpt>
      <trkpt lat="31.823166003450751" lon="35.021737972274423">
        <ele>291.73700000000002</ele>
        <time>2011-01-22T07:14:57Z</time>
      </trkpt>
      <trkpt lat="31.823166003450751" lon="35.021737972274423">
        <ele>291.81999999999999</ele>
        <time>2011-01-22T07:14:58Z</time>
      </trkpt>
      <trkpt lat="31.823172038421035" lon="35.021689021959901">
        <ele>291.25200000000001</ele>
        <time>2011-01-22T07:15:37Z</time>
      </trkpt>
      <trkpt lat="31.823181007057428" lon="35.021605035290122">
        <ele>290.81799999999998</ele>
        <time>2011-01-22T07:15:40Z</time>
      </trkpt>
      <trkpt lat="31.823191987350583" lon="35.02149598672986">
        <ele>289.50799999999998</ele>
        <time>2011-01-22T07:15:44Z</time>
      </trkpt>
      <trkpt lat="31.822866015136242" lon="35.021163979545236">
        <ele>286.83600000000001</ele>
        <time>2011-01-22T07:15:51Z</time>
      </trkpt>
      <trkpt lat="31.822568960487843" lon="35.021015033125877">
        <ele>283.76600000000002</ele>
        <time>2011-01-22T07:15:56Z</time>
      </trkpt>
      <trkpt lat="31.822284981608391" lon="35.020838007330894">
        <ele>280.68700000000001</ele>
        <time>2011-01-22T07:16:01Z</time>
      </trkpt>
      <trkpt lat="31.822102004662156" lon="35.020709009841084">
        <ele>278.86099999999999</ele>
        <time>2011-01-22T07:16:06Z</time>
      </trkpt>
      <trkpt lat="31.82206897996366" lon="35.020700041204691">
        <ele>278.90100000000001</ele>
        <time>2011-01-22T07:16:07Z</time>
      </trkpt>
      <trkpt lat="31.821828000247478" lon="35.020689982920885">
        <ele>278.36000000000001</ele>
        <time>2011-01-22T07:16:13Z</time>
      </trkpt>
      <trkpt lat="31.821720963343978" lon="35.020723007619381">
        <ele>277.98099999999999</ele>
        <time>2011-01-22T07:16:20Z</time>
      </trkpt>
      <trkpt lat="31.821672013029456" lon="35.020739017054439">
        <ele>277.69099999999997</ele>
        <time>2011-01-22T07:16:24Z</time>
      </trkpt>
      <trkpt lat="31.821606969460845" lon="35.020758965983987">
        <ele>277.38900000000001</ele>
        <time>2011-01-22T07:16:30Z</time>
      </trkpt>
      <trkpt lat="31.822093036025763" lon="35.02070196904242">
        <ele>277.17200000000003</ele>
        <time>2011-01-22T07:16:36Z</time>
      </trkpt>
      <trkpt lat="31.822093036025763" lon="35.02070196904242">
        <ele>277.33300000000003</ele>
        <time>2011-01-22T07:16:41Z</time>
      </trkpt>
      <trkpt lat="31.821546033024788" lon="35.020776987075806">
        <ele>277.69799999999998</ele>
        <time>2011-01-22T07:16:48Z</time>
      </trkpt>
      <trkpt lat="31.821546033024788" lon="35.020776987075806">
        <ele>277.85000000000002</ele>
        <time>2011-01-22T07:16:49Z</time>
      </trkpt>
      <trkpt lat="31.820913031697273" lon="35.020252028480172">
        <ele>277.745</ele>
        <time>2011-01-22T07:16:58Z</time>
      </trkpt>
      <trkpt lat="31.822093036025763" lon="35.02070196904242">
        <ele>278.35000000000002</ele>
        <time>2011-01-22T07:17:02Z</time>
      </trkpt>
      <trkpt lat="31.82152901776135" lon="35.020783022046089">
        <ele>278.17899999999997</ele>
        <time>2011-01-22T07:17:07Z</time>
      </trkpt>
      <trkpt lat="31.822093036025763" lon="35.02070196904242">
        <ele>278.49099999999999</ele>
        <time>2011-01-22T07:17:13Z</time>
      </trkpt>
      <trkpt lat="31.821455005556345" lon="35.020805988460779">
        <ele>278.75999999999999</ele>
        <time>2011-01-22T07:17:17Z</time>
      </trkpt>
      <trkpt lat="31.822093036025763" lon="35.02070196904242">
        <ele>278.58199999999999</ele>
        <time>2011-01-22T07:17:21Z</time>
      </trkpt>
      <trkpt lat="31.821432961151004" lon="35.020960969850421">
        <ele>278.25</ele>
        <time>2011-01-22T07:17:39Z</time>
      </trkpt>
      <trkpt lat="31.82140002027154" lon="35.020823003724217">
        <ele>278.23000000000002</ele>
        <time>2011-01-22T07:17:42Z</time>
      </trkpt>
      <trkpt lat="31.821306981146336" lon="35.020852005109191">
        <ele>278.37799999999999</ele>
        <time>2011-01-22T07:17:50Z</time>
      </trkpt>
      <trkpt lat="31.821157028898597" lon="35.020899027585983">
        <ele>278.625</ele>
        <time>2011-01-22T07:17:56Z</time>
      </trkpt>
      <trkpt lat="31.820957958698273" lon="35.02095996402204">
        <ele>279.423</ele>
        <time>2011-01-22T07:18:03Z</time>
      </trkpt>
      <trkpt lat="31.82084497064352" lon="35.021024001762271">
        <ele>279.75</ele>
        <time>2011-01-22T07:18:08Z</time>
      </trkpt>
      <trkpt lat="31.820678003132343" lon="35.021178983151913">
        <ele>280.84699999999998</ele>
        <time>2011-01-22T07:18:15Z</time>
      </trkpt>
      <trkpt lat="31.820483040064573" lon="35.021360032260418">
        <ele>281.911</ele>
        <time>2011-01-22T07:18:24Z</time>
      </trkpt>
      <trkpt lat="31.820277012884617" lon="35.021549966186285">
        <ele>283.31900000000002</ele>
        <time>2011-01-22T07:18:34Z</time>
      </trkpt>
      <trkpt lat="31.820135023444891" lon="35.021681981161237">
        <ele>284.85500000000002</ele>
        <time>2011-01-22T07:18:41Z</time>
      </trkpt>
      <trkpt lat="31.81994098238647" lon="35.021887002512813">
        <ele>285.67500000000001</ele>
        <time>2011-01-22T07:18:50Z</time>
      </trkpt>
      <trkpt lat="31.819753982126713" lon="35.022106021642685">
        <ele>286.45100000000002</ele>
        <time>2011-01-22T07:18:59Z</time>
      </trkpt>
      <trkpt lat="31.819579973816872" lon="35.022293021902442">
        <ele>286.56200000000001</ele>
        <time>2011-01-22T07:19:07Z</time>
      </trkpt>
      <trkpt lat="31.819546027109027" lon="35.022336021065712">
        <ele>286.38099999999997</ele>
        <time>2011-01-22T07:19:09Z</time>
      </trkpt>
      <trkpt lat="31.81948802433908" lon="35.022410033270717">
        <ele>285.67399999999998</ele>
        <time>2011-01-22T07:19:14Z</time>
      </trkpt>
      <trkpt lat="31.819422980770469" lon="35.022492008283734">
        <ele>285.90899999999999</ele>
        <time>2011-01-22T07:19:21Z</time>
      </trkpt>
      <trkpt lat="31.819355003535748" lon="35.022578006610274">
        <ele>285.91500000000002</ele>
        <time>2011-01-22T07:19:27Z</time>
      </trkpt>
      <trkpt lat="31.819255007430911" lon="35.022713961079717">
        <ele>286.154</ele>
        <time>2011-01-22T07:19:34Z</time>
      </trkpt>
      <trkpt lat="31.819192981347442" lon="35.02289199270308">
        <ele>286.38099999999997</ele>
        <time>2011-01-22T07:19:41Z</time>
      </trkpt>
      <trkpt lat="31.819136990234256" lon="35.023055020719767">
        <ele>287.18799999999999</ele>
        <time>2011-01-22T07:19:47Z</time>
      </trkpt>
      <trkpt lat="31.819087034091353" lon="35.023200027644634">
        <ele>287.74299999999999</ele>
        <time>2011-01-22T07:19:53Z</time>
      </trkpt>
      <trkpt lat="31.819077981635928" lon="35.023225005716085">
        <ele>287.95800000000003</ele>
        <time>2011-01-22T07:19:54Z</time>
      </trkpt>
      <trkpt lat="31.819001035764813" lon="35.023355009034276">
        <ele>289.11900000000003</ele>
        <time>2011-01-22T07:20:00Z</time>
      </trkpt>
      <trkpt lat="31.818982008844614" lon="35.023481994867325">
        <ele>289.01400000000001</ele>
        <time>2011-01-22T07:20:05Z</time>
      </trkpt>
      <trkpt lat="31.818984020501375" lon="35.023648962378502">
        <ele>289.46600000000001</ele>
        <time>2011-01-22T07:20:11Z</time>
      </trkpt>
      <trkpt lat="31.818997012451291" lon="35.023907963186502">
        <ele>290.21600000000001</ele>
        <time>2011-01-22T07:20:20Z</time>
      </trkpt>
      <trkpt lat="31.818978991359472" lon="35.024451026692986">
        <ele>291.423</ele>
        <time>2011-01-22T07:20:27Z</time>
      </trkpt>
      <trkpt lat="31.819024002179503" lon="35.024456977844238">
        <ele>292.01900000000001</ele>
        <time>2011-01-22T07:20:34Z</time>
      </trkpt>
      <trkpt lat="31.819021990522742" lon="35.024405010044575">
        <ele>293.61000000000001</ele>
        <time>2011-01-22T07:20:37Z</time>
      </trkpt>
      <trkpt lat="31.819022996351123" lon="35.024425964802504">
        <ele>293.839</ele>
        <time>2011-01-22T07:20:38Z</time>
      </trkpt>
      <trkpt lat="31.818854017183185" lon="35.024448009207845">
        <ele>293.34300000000002</ele>
        <time>2011-01-22T07:20:44Z</time>
      </trkpt>
      <trkpt lat="31.818663999438286" lon="35.024582035839558">
        <ele>292.762</ele>
        <time>2011-01-22T07:20:50Z</time>
      </trkpt>
      <trkpt lat="31.818526033312082" lon="35.024720001965761">
        <ele>292.303</ele>
        <time>2011-01-22T07:20:56Z</time>
      </trkpt>
      <trkpt lat="31.818383960053325" lon="35.024969028308988">
        <ele>292.54599999999999</ele>
        <time>2011-01-22T07:21:04Z</time>
      </trkpt>
      <trkpt lat="31.818225039169192" lon="35.025258958339691">
        <ele>293.07900000000001</ele>
        <time>2011-01-22T07:21:12Z</time>
      </trkpt>
      <trkpt lat="31.818133005872369" lon="35.025639999657869">
        <ele>294.83800000000002</ele>
        <time>2011-01-22T07:21:21Z</time>
      </trkpt>
      <trkpt lat="31.818105010315776" lon="35.025844015181065">
        <ele>295.71899999999999</ele>
        <time>2011-01-22T07:21:27Z</time>
      </trkpt>
      <trkpt lat="31.81802898645401" lon="35.026067979633808">
        <ele>296.22300000000001</ele>
        <time>2011-01-22T07:21:34Z</time>
      </trkpt>
      <trkpt lat="31.818000990897417" lon="35.026074014604092">
        <ele>296.26600000000002</ele>
        <time>2011-01-22T07:21:35Z</time>
      </trkpt>
      <trkpt lat="31.817754982039332" lon="35.026122964918613">
        <ele>296.57600000000002</ele>
        <time>2011-01-22T07:21:42Z</time>
      </trkpt>
      <trkpt lat="31.817645011469722" lon="35.026249028742313">
        <ele>297.28899999999999</ele>
        <time>2011-01-22T07:21:46Z</time>
      </trkpt>
      <trkpt lat="31.817605029791594" lon="35.026466958224773">
        <ele>298.20499999999998</ele>
        <time>2011-01-22T07:21:52Z</time>
      </trkpt>
      <trkpt lat="31.817574016749859" lon="35.02684598788619">
        <ele>299.423</ele>
        <time>2011-01-22T07:22:01Z</time>
      </trkpt>
      <trkpt lat="31.817544009536505" lon="35.027213031426072">
        <ele>300.80599999999998</ele>
        <time>2011-01-22T07:22:10Z</time>
      </trkpt>
      <trkpt lat="31.817521965131164" lon="35.027524000033736">
        <ele>301.28100000000001</ele>
        <time>2011-01-22T07:22:17Z</time>
      </trkpt>
      <trkpt lat="31.817521965131164" lon="35.027856007218361">
        <ele>301.99700000000001</ele>
        <time>2011-01-22T07:22:25Z</time>
      </trkpt>
      <trkpt lat="31.817637970671058" lon="35.028203018009663">
        <ele>301.49599999999998</ele>
        <time>2011-01-22T07:22:32Z</time>
      </trkpt>
      <trkpt lat="31.817514002323151" lon="35.028420025482774">
        <ele>302.923</ele>
        <time>2011-01-22T07:22:39Z</time>
      </trkpt>
      <trkpt lat="31.817448958754539" lon="35.028683971613646">
        <ele>304.024</ele>
        <time>2011-01-22T07:22:47Z</time>
      </trkpt>
      <trkpt lat="31.817391039803624" lon="35.028919000178576">
        <ele>304.637</ele>
        <time>2011-01-22T07:22:53Z</time>
      </trkpt>
      <trkpt lat="31.817302023991942" lon="35.029285037890077">
        <ele>306.03100000000001</ele>
        <time>2011-01-22T07:23:02Z</time>
      </trkpt>
      <trkpt lat="31.817247038707137" lon="35.029619978740811">
        <ele>306.94400000000002</ele>
        <time>2011-01-22T07:23:10Z</time>
      </trkpt>
      <trkpt lat="31.817261036485434" lon="35.029884008690715">
        <ele>307.60700000000003</ele>
        <time>2011-01-22T07:23:16Z</time>
      </trkpt>
      <trkpt lat="31.817342005670071" lon="35.030232025310397">
        <ele>308.41300000000001</ele>
        <time>2011-01-22T07:23:24Z</time>
      </trkpt>
      <trkpt lat="31.817462034523487" lon="35.030649024993181">
        <ele>310.10199999999998</ele>
        <time>2011-01-22T07:23:34Z</time>
      </trkpt>
      <trkpt lat="31.817539986222982" lon="35.030848011374474">
        <ele>310.65600000000001</ele>
        <time>2011-01-22T07:23:41Z</time>
      </trkpt>
      <trkpt lat="31.817722041159868" lon="35.031127966940403">
        <ele>312.37099999999998</ele>
        <time>2011-01-22T07:23:49Z</time>
      </trkpt>
      <trkpt lat="31.81785698980093" lon="35.031415969133377">
        <ele>313.93099999999998</ele>
        <time>2011-01-22T07:23:57Z</time>
      </trkpt>
      <trkpt lat="31.817974001169205" lon="35.031790975481272">
        <ele>314.95100000000002</ele>
        <time>2011-01-22T07:24:07Z</time>
      </trkpt>
      <trkpt lat="31.818085983395576" lon="35.032077971845865">
        <ele>315.637</ele>
        <time>2011-01-22T07:24:15Z</time>
      </trkpt>
      <trkpt lat="31.818122025579214" lon="35.032352982088923">
        <ele>316.83199999999999</ele>
        <time>2011-01-22T07:24:22Z</time>
      </trkpt>
      <trkpt lat="31.818167958408594" lon="35.032674008980393">
        <ele>318.73899999999998</ele>
        <time>2011-01-22T07:24:30Z</time>
      </trkpt>
      <trkpt lat="31.818311959505081" lon="35.033016996458173">
        <ele>319.29700000000003</ele>
        <time>2011-01-22T07:24:39Z</time>
      </trkpt>
      <trkpt lat="31.818478005006909" lon="35.033284965902567">
        <ele>320.31299999999999</ele>
        <time>2011-01-22T07:24:47Z</time>
      </trkpt>
      <trkpt lat="31.818619994446635" lon="35.033574979752302">
        <ele>321.839</ele>
        <time>2011-01-22T07:24:55Z</time>
      </trkpt>
      <trkpt lat="31.818657964468002" lon="35.033842027187347">
        <ele>322.851</ele>
        <time>2011-01-22T07:25:02Z</time>
      </trkpt>
      <trkpt lat="31.818688977509737" lon="35.034121982753277">
        <ele>324.35199999999998</ele>
        <time>2011-01-22T07:25:09Z</time>
      </trkpt>
      <trkpt lat="31.818777993321419" lon="35.03445097245276">
        <ele>326.06400000000002</ele>
        <time>2011-01-22T07:25:18Z</time>
      </trkpt>
      <trkpt lat="31.818806994706392" lon="35.034732017666101">
        <ele>327.04899999999998</ele>
        <time>2011-01-22T07:25:26Z</time>
      </trkpt>
      <trkpt lat="31.818766007199883" lon="35.034865960478783">
        <ele>326.95999999999998</ele>
        <time>2011-01-22T07:25:30Z</time>
      </trkpt>
      <trkpt lat="31.818648995831609" lon="35.035055978223681">
        <ele>328.31299999999999</ele>
        <time>2011-01-22T07:25:36Z</time>
      </trkpt>
      <trkpt lat="31.818569032475352" lon="35.03526502288878">
        <ele>329.40699999999998</ele>
        <time>2011-01-22T07:25:43Z</time>
      </trkpt>
      <trkpt lat="31.81850197724998" lon="35.035520000383258">
        <ele>330.18200000000002</ele>
        <time>2011-01-22T07:25:51Z</time>
      </trkpt>
      <trkpt lat="31.818482028320432" lon="35.035784030333161">
        <ele>331.29199999999997</ele>
        <time>2011-01-22T07:25:59Z</time>
      </trkpt>
      <trkpt lat="31.818456966429949" lon="35.036107990890741">
        <ele>332.548</ele>
        <time>2011-01-22T07:26:09Z</time>
      </trkpt>
      <trkpt lat="31.818422013893723" lon="35.036358023062348">
        <ele>333.29700000000003</ele>
        <time>2011-01-22T07:26:17Z</time>
      </trkpt>
      <trkpt lat="31.81835001334548" lon="35.036611994728446">
        <ele>334.20299999999997</ele>
        <time>2011-01-22T07:26:26Z</time>
      </trkpt>
      <trkpt lat="31.818273989483714" lon="35.036797989159822">
        <ele>335.37299999999999</ele>
        <time>2011-01-22T07:26:33Z</time>
      </trkpt>
      <trkpt lat="31.818228978663683" lon="35.037056989967823">
        <ele>336.14800000000002</ele>
        <time>2011-01-22T07:26:41Z</time>
      </trkpt>
      <trkpt lat="31.818137029185891" lon="35.037255976349115">
        <ele>337.06999999999999</ele>
        <time>2011-01-22T07:26:48Z</time>
      </trkpt>
      <trkpt lat="31.818020017817616" lon="35.037468960508704">
        <ele>338.10000000000002</ele>
        <time>2011-01-22T07:26:56Z</time>
      </trkpt>
      <trkpt lat="31.817946005612612" lon="35.037603992968798">
        <ele>338.54199999999997</ele>
        <time>2011-01-22T07:27:01Z</time>
      </trkpt>
      <trkpt lat="31.817799992859364" lon="35.037753023207188">
        <ele>339.66000000000003</ele>
        <time>2011-01-22T07:27:08Z</time>
      </trkpt>
      <trkpt lat="31.81759899482131" lon="35.037938011810184">
        <ele>341.512</ele>
        <time>2011-01-22T07:27:17Z</time>
      </trkpt>
      <trkpt lat="31.817367989569902" lon="35.038155019283295">
        <ele>343.27800000000002</ele>
        <time>2011-01-22T07:27:27Z</time>
      </trkpt>
      <trkpt lat="31.817202027887106" lon="35.038450984284282">
        <ele>344.334</ele>
        <time>2011-01-22T07:27:37Z</time>
      </trkpt>
      <trkpt lat="31.817056015133858" lon="35.038758013397455">
        <ele>346.02600000000001</ele>
        <time>2011-01-22T07:27:47Z</time>
      </trkpt>
      <trkpt lat="31.816941015422344" lon="35.039024977013469">
        <ele>347.399</ele>
        <time>2011-01-22T07:27:56Z</time>
      </trkpt>
      <trkpt lat="31.816855017095804" lon="35.039225975051522">
        <ele>348.17700000000002</ele>
        <time>2011-01-22T07:28:03Z</time>
      </trkpt>
      <trkpt lat="31.816744040697813" lon="35.039525963366032">
        <ele>349.596</ele>
        <time>2011-01-22T07:28:13Z</time>
      </trkpt>
      <trkpt lat="31.816657036542892" lon="35.039803991094232">
        <ele>350.66199999999998</ele>
        <time>2011-01-22T07:28:22Z</time>
      </trkpt>
      <trkpt lat="31.816570032387972" lon="35.040128035470843">
        <ele>352.37700000000001</ele>
        <time>2011-01-22T07:28:33Z</time>
      </trkpt>
      <trkpt lat="31.81652401573956" lon="35.040301959961653">
        <ele>353.36799999999999</ele>
        <time>2011-01-22T07:28:41Z</time>
      </trkpt>
      <trkpt lat="31.816482022404671" lon="35.040458030998707">
        <ele>354.29000000000002</ele>
        <time>2011-01-22T07:28:48Z</time>
      </trkpt>
      <trkpt lat="31.816413039341569" lon="35.040716025978327">
        <ele>356.10700000000003</ele>
        <time>2011-01-22T07:28:59Z</time>
      </trkpt>
      <trkpt lat="31.816338021308184" lon="35.04100201651454">
        <ele>358.00400000000002</ele>
        <time>2011-01-22T07:29:11Z</time>
      </trkpt>
      <trkpt lat="31.81628798134625" lon="35.041251964867115">
        <ele>359.89800000000002</ele>
        <time>2011-01-22T07:29:22Z</time>
      </trkpt>
      <trkpt lat="31.816267026588321" lon="35.041330000385642">
        <ele>360.75400000000002</ele>
        <time>2011-01-22T07:29:27Z</time>
      </trkpt>
      <trkpt lat="31.816217992454767" lon="35.041460003703833">
        <ele>363.00099999999998</ele>
        <time>2011-01-22T07:29:36Z</time>
      </trkpt>
      <trkpt lat="31.816198965534568" lon="35.04158397205174">
        <ele>364.78399999999999</ele>
        <time>2011-01-22T07:29:44Z</time>
      </trkpt>
      <trkpt lat="31.816183039918542" lon="35.041700983420014">
        <ele>366.81799999999998</ele>
        <time>2011-01-22T07:29:52Z</time>
      </trkpt>
      <trkpt lat="31.816144986078143" lon="35.04184003919363">
        <ele>368.29000000000002</ele>
        <time>2011-01-22T07:30:00Z</time>
      </trkpt>
      <trkpt lat="31.816095029935241" lon="35.041926959529519">
        <ele>369.86399999999998</ele>
        <time>2011-01-22T07:30:07Z</time>
      </trkpt>
      <trkpt lat="31.816058987751603" lon="35.042026033625007">
        <ele>371.39699999999999</ele>
        <time>2011-01-22T07:30:14Z</time>
      </trkpt>
      <trkpt lat="31.81601095944643" lon="35.042174980044365">
        <ele>373.48099999999999</ele>
        <time>2011-01-22T07:30:24Z</time>
      </trkpt>
      <trkpt lat="31.815971983596683" lon="35.042295008897781">
        <ele>374.75099999999998</ele>
        <time>2011-01-22T07:30:32Z</time>
      </trkpt>
      <trkpt lat="31.815677024424076" lon="35.042502963915467">
        <ele>376.04899999999998</ele>
        <time>2011-01-22T07:30:41Z</time>
      </trkpt>
      <trkpt lat="31.815669983625412" lon="35.042559960857034">
        <ele>377.08999999999997</ele>
        <time>2011-01-22T07:30:49Z</time>
      </trkpt>
      <trkpt lat="31.815655985847116" lon="35.042674960568547">
        <ele>377.76799999999997</ele>
        <time>2011-01-22T07:30:56Z</time>
      </trkpt>
      <trkpt lat="31.815616004168987" lon="35.042800018563867">
        <ele>378.41800000000001</ele>
        <time>2011-01-22T07:31:03Z</time>
      </trkpt>
      <trkpt lat="31.815563030540943" lon="35.042968997731805">
        <ele>378.85399999999998</ele>
        <time>2011-01-22T07:31:11Z</time>
      </trkpt>
      <trkpt lat="31.815526988357306" lon="35.04321500658989">
        <ele>378.19499999999999</ele>
        <time>2011-01-22T07:31:20Z</time>
      </trkpt>
      <trkpt lat="31.815526988357306" lon="35.043405024334788">
        <ele>377.92899999999997</ele>
        <time>2011-01-22T07:31:25Z</time>
      </trkpt>
      <trkpt lat="31.81555800139904" lon="35.043691014871001">
        <ele>378.42099999999999</ele>
        <time>2011-01-22T07:31:35Z</time>
      </trkpt>
      <trkpt lat="31.815616004168987" lon="35.043977005407214">
        <ele>379.20400000000001</ele>
        <time>2011-01-22T07:31:45Z</time>
      </trkpt>
      <trkpt lat="31.815646011382341" lon="35.044236006215215">
        <ele>380.18299999999999</ele>
        <time>2011-01-22T07:31:55Z</time>
      </trkpt>
      <trkpt lat="31.815662020817399" lon="35.044461982324719">
        <ele>381.47300000000001</ele>
        <time>2011-01-22T07:32:03Z</time>
      </trkpt>
      <trkpt lat="31.815683981403708" lon="35.044783009216189">
        <ele>382.02699999999999</ele>
        <time>2011-01-22T07:32:14Z</time>
      </trkpt>
      <trkpt lat="31.815712982788682" lon="35.045068999752402">
        <ele>383.47199999999998</ele>
        <time>2011-01-22T07:32:24Z</time>
      </trkpt>
      <trkpt lat="31.815747013315558" lon="35.045258011668921">
        <ele>384.23899999999998</ele>
        <time>2011-01-22T07:32:31Z</time>
      </trkpt>
      <trkpt lat="31.815775008872151" lon="35.045410981401801">
        <ele>385.44799999999998</ele>
        <time>2011-01-22T07:32:37Z</time>
      </trkpt>
      <trkpt lat="31.815783977508545" lon="35.045560011640191">
        <ele>386.26499999999999</ele>
        <time>2011-01-22T07:32:43Z</time>
      </trkpt>
      <trkpt lat="31.815733015537262" lon="35.045741982758045">
        <ele>387.01900000000001</ele>
        <time>2011-01-22T07:32:50Z</time>
      </trkpt>
      <trkpt lat="31.815647017210722" lon="35.045964019373059">
        <ele>388.10000000000002</ele>
        <time>2011-01-22T07:32:59Z</time>
      </trkpt>
      <trkpt lat="31.815582979470491" lon="35.046169962733984">
        <ele>388.50999999999999</ele>
        <time>2011-01-22T07:33:07Z</time>
      </trkpt>
      <trkpt lat="31.815510978922248" lon="35.046393005177379">
        <ele>389.42899999999997</ele>
        <time>2011-01-22T07:33:16Z</time>
      </trkpt>
      <trkpt lat="31.815416011959314" lon="35.04667597822845">
        <ele>390.03500000000003</ele>
        <time>2011-01-22T07:33:27Z</time>
      </trkpt>
      <trkpt lat="31.815301012247801" lon="35.046875970438123">
        <ele>390.64299999999997</ele>
        <time>2011-01-22T07:33:36Z</time>
      </trkpt>
      <trkpt lat="31.815203027799726" lon="35.046980995684862">
        <ele>391.012</ele>
        <time>2011-01-22T07:33:42Z</time>
      </trkpt>
      <trkpt lat="31.815044023096561" lon="35.047117033973336">
        <ele>391.68700000000001</ele>
        <time>2011-01-22T07:33:51Z</time>
      </trkpt>
      <trkpt lat="31.814898010343313" lon="35.047219963744283">
        <ele>392.02999999999997</ele>
        <time>2011-01-22T07:33:58Z</time>
      </trkpt>
      <trkpt lat="31.814710004255176" lon="35.047349967062473">
        <ele>392.50200000000001</ele>
        <time>2011-01-22T07:34:07Z</time>
      </trkpt>
      <trkpt lat="31.814615037292242" lon="35.047439988702536">
        <ele>393.29899999999998</ele>
        <time>2011-01-22T07:34:13Z</time>
      </trkpt>
      <trkpt lat="31.814488973468542" lon="35.047558005899191">
        <ele>394.13299999999998</ele>
        <time>2011-01-22T07:34:20Z</time>
      </trkpt>
      <trkpt lat="31.814350001513958" lon="35.04770896397531">
        <ele>395.03100000000001</ele>
        <time>2011-01-22T07:34:29Z</time>
      </trkpt>
      <trkpt lat="31.814226033166051" lon="35.047866962850094">
        <ele>395.48099999999999</ele>
        <time>2011-01-22T07:34:37Z</time>
      </trkpt>
      <trkpt lat="31.814109021797776" lon="35.048016998916864">
        <ele>396.29399999999998</ele>
        <time>2011-01-22T07:34:45Z</time>
      </trkpt>
      <trkpt lat="31.813976000994444" lon="35.048184972256422">
        <ele>397.22000000000003</ele>
        <time>2011-01-22T07:34:54Z</time>
      </trkpt>
      <trkpt lat="31.813855972141027" lon="35.048338025808334">
        <ele>398.29199999999997</ele>
        <time>2011-01-22T07:35:02Z</time>
      </trkpt>
      <trkpt lat="31.813738960772753" lon="35.048486972227693">
        <ele>399.416</ele>
        <time>2011-01-22T07:35:10Z</time>
      </trkpt>
      <trkpt lat="31.813641982153058" lon="35.048574982210994">
        <ele>400.13799999999998</ele>
        <time>2011-01-22T07:35:16Z</time>
      </trkpt>
      <trkpt lat="31.813477026298642" lon="35.048688976094127">
        <ele>401.065</ele>
        <time>2011-01-22T07:35:25Z</time>
      </trkpt>
      <trkpt lat="31.813335958868265" lon="35.04884697496891">
        <ele>402.30900000000003</ele>
        <time>2011-01-22T07:35:34Z</time>
      </trkpt>
      <trkpt lat="31.813254989683628" lon="35.048958035185933">
        <ele>403.23500000000001</ele>
        <time>2011-01-22T07:35:41Z</time>
      </trkpt>
      <trkpt lat="31.813149964436889" lon="35.049146041274071">
        <ele>404.03800000000001</ele>
        <time>2011-01-22T07:35:50Z</time>
      </trkpt>
      <trkpt lat="31.813058014959097" lon="35.049312002956867">
        <ele>404.91000000000003</ele>
        <time>2011-01-22T07:35:58Z</time>
      </trkpt>
      <trkpt lat="31.812989031895995" lon="35.049478970468044">
        <ele>405.57499999999999</ele>
        <time>2011-01-22T07:36:05Z</time>
      </trkpt>
      <trkpt lat="31.812904961407185" lon="35.049698995426297">
        <ele>406.70100000000002</ele>
        <time>2011-01-22T07:36:14Z</time>
      </trkpt>
      <trkpt lat="31.812815023586154" lon="35.049862023442984">
        <ele>408.03300000000002</ele>
        <time>2011-01-22T07:36:22Z</time>
      </trkpt>
      <trkpt lat="31.812737993896008" lon="35.050002001225948">
        <ele>408.73099999999999</ele>
        <time>2011-01-22T07:36:29Z</time>
      </trkpt>
      <trkpt lat="31.812658030539751" lon="35.050176009535789">
        <ele>409.108</ele>
        <time>2011-01-22T07:36:37Z</time>
      </trkpt>
      <trkpt lat="31.812587035819888" lon="35.050429981201887">
        <ele>409.66300000000001</ele>
        <time>2011-01-22T07:36:47Z</time>
      </trkpt>
      <trkpt lat="31.812555016949773" lon="35.050608012825251">
        <ele>410.41699999999997</ele>
        <time>2011-01-22T07:36:54Z</time>
      </trkpt>
      <trkpt lat="31.812522998079658" lon="35.050899032503366">
        <ele>411.45400000000001</ele>
        <time>2011-01-22T07:37:05Z</time>
      </trkpt>
      <trkpt lat="31.812522998079658" lon="35.051064994186163">
        <ele>412.31400000000002</ele>
        <time>2011-01-22T07:37:12Z</time>
      </trkpt>
      <trkpt lat="31.812517968937755" lon="35.051300022751093">
        <ele>413.274</ele>
        <time>2011-01-22T07:37:21Z</time>
      </trkpt>
      <trkpt lat="31.812469018623233" lon="35.051495991647243">
        <ele>414.19299999999998</ele>
        <time>2011-01-22T07:37:29Z</time>
      </trkpt>
      <trkpt lat="31.812458960339427" lon="35.051726996898651">
        <ele>415.49900000000002</ele>
        <time>2011-01-22T07:37:38Z</time>
      </trkpt>
      <trkpt lat="31.81246398948133" lon="35.051806960254908">
        <ele>415.51600000000002</ele>
        <time>2011-01-22T07:37:43Z</time>
      </trkpt>
      <trkpt lat="31.81246398948133" lon="35.051806960254908">
        <ele>415.56400000000002</ele>
        <time>2011-01-22T07:37:44Z</time>
      </trkpt>
      <trkpt lat="31.812466001138091" lon="35.051837973296642">
        <ele>415.92700000000002</ele>
        <time>2011-01-22T07:38:21Z</time>
      </trkpt>
      <trkpt lat="31.812473963946104" lon="35.051973005756736">
        <ele>417.10000000000002</ele>
        <time>2011-01-22T07:38:29Z</time>
      </trkpt>
      <trkpt lat="31.812486033886671" lon="35.052164029330015">
        <ele>419.16000000000003</ele>
        <time>2011-01-22T07:38:38Z</time>
      </trkpt>
      <trkpt lat="31.812496008351445" lon="35.052332002669573">
        <ele>420.74799999999999</ele>
        <time>2011-01-22T07:38:46Z</time>
      </trkpt>
      <trkpt lat="31.812512017786503" lon="35.052491007372737">
        <ele>421.14100000000002</ele>
        <time>2011-01-22T07:38:53Z</time>
      </trkpt>
      <trkpt lat="31.812544958665967" lon="35.052724024280906">
        <ele>422.07499999999999</ele>
        <time>2011-01-22T07:39:02Z</time>
      </trkpt>
      <trkpt lat="31.812562979757786" lon="35.05292602814734">
        <ele>422.75200000000001</ele>
        <time>2011-01-22T07:39:10Z</time>
      </trkpt>
      <trkpt lat="31.812554011121392" lon="35.053128032013774">
        <ele>423.738</ele>
        <time>2011-01-22T07:39:18Z</time>
      </trkpt>
      <trkpt lat="31.812545964494348" lon="35.053302040323615">
        <ele>424.84399999999999</ele>
        <time>2011-01-22T07:39:25Z</time>
      </trkpt>
      <trkpt lat="31.812591981142759" lon="35.053544025868177">
        <ele>426.48700000000002</ele>
        <time>2011-01-22T07:39:35Z</time>
      </trkpt>
      <trkpt lat="31.812685020267963" lon="35.053731026127934">
        <ele>427.35700000000003</ele>
        <time>2011-01-22T07:39:43Z</time>
      </trkpt>
      <trkpt lat="31.812847964465618" lon="35.053807971999049">
        <ele>428.59899999999999</ele>
        <time>2011-01-22T07:39:51Z</time>
      </trkpt>
      <trkpt lat="31.812988026067615" lon="35.053874021396041">
        <ele>429.12200000000001</ele>
        <time>2011-01-22T07:39:58Z</time>
      </trkpt>
      <trkpt lat="31.813095984980464" lon="35.053968988358974">
        <ele>430.02600000000001</ele>
        <time>2011-01-22T07:40:05Z</time>
      </trkpt>
      <trkpt lat="31.813177959993482" lon="35.054079964756966">
        <ele>431.358</ele>
        <time>2011-01-22T07:40:12Z</time>
      </trkpt>
      <trkpt lat="31.813254989683628" lon="35.054185995832086">
        <ele>432.67599999999999</ele>
        <time>2011-01-22T07:40:18Z</time>
      </trkpt>
      <trkpt lat="31.813347022980452" lon="35.054312981665134">
        <ele>434.48500000000001</ele>
        <time>2011-01-22T07:40:26Z</time>
      </trkpt>
      <trkpt lat="31.813442995771766" lon="35.05449403077364">
        <ele>436.15499999999997</ele>
        <time>2011-01-22T07:40:35Z</time>
      </trkpt>
      <trkpt lat="31.813518013805151" lon="35.054686982184649">
        <ele>437.52300000000002</ele>
        <time>2011-01-22T07:40:44Z</time>
      </trkpt>
      <trkpt lat="31.81357903406024" lon="35.054843975231051">
        <ele>438.35500000000002</ele>
        <time>2011-01-22T07:40:51Z</time>
      </trkpt>
      <trkpt lat="31.813663020730019" lon="35.055060982704163">
        <ele>440.30500000000001</ele>
        <time>2011-01-22T07:41:01Z</time>
      </trkpt>
      <trkpt lat="31.813780032098293" lon="35.05524798296392">
        <ele>441.57100000000003</ele>
        <time>2011-01-22T07:41:10Z</time>
      </trkpt>
      <trkpt lat="31.813931996002793" lon="35.055413022637367">
        <ele>442.738</ele>
        <time>2011-01-22T07:41:20Z</time>
      </trkpt>
      <trkpt lat="31.813970971852541" lon="35.055582001805305">
        <ele>444.74799999999999</ele>
        <time>2011-01-22T07:41:28Z</time>
      </trkpt>
      <trkpt lat="31.813872987404466" lon="35.055722985416651">
        <ele>446.13200000000001</ele>
        <time>2011-01-22T07:41:35Z</time>
      </trkpt>
      <trkpt lat="31.81381699629128" lon="35.055851982906461">
        <ele>446.28800000000001</ele>
        <time>2011-01-22T07:41:41Z</time>
      </trkpt>
      <trkpt lat="31.813767040148377" lon="35.056074019521475">
        <ele>447.15600000000001</ele>
        <time>2011-01-22T07:41:50Z</time>
      </trkpt>
      <trkpt lat="31.813726974651217" lon="35.056333020329475">
        <ele>447.94999999999999</ele>
        <time>2011-01-22T07:42:00Z</time>
      </trkpt>
      <trkpt lat="31.813693027943373" lon="35.056552039459348">
        <ele>448.709</ele>
        <time>2011-01-22T07:42:08Z</time>
      </trkpt>
      <trkpt lat="31.81366603821516" lon="35.056727975606918">
        <ele>448.56900000000002</ele>
        <time>2011-01-22T07:42:14Z</time>
      </trkpt>
      <trkpt lat="31.813642987981439" lon="35.056872982531786">
        <ele>448.88799999999998</ele>
        <time>2011-01-22T07:42:19Z</time>
      </trkpt>
      <trkpt lat="31.813658997416496" lon="35.057094013318419">
        <ele>450.911</ele>
        <time>2011-01-22T07:42:28Z</time>
      </trkpt>
      <trkpt lat="31.813679030165076" lon="35.057282019406557">
        <ele>451.471</ele>
        <time>2011-01-22T07:42:35Z</time>
      </trkpt>
      <trkpt lat="31.813717000186443" lon="35.057519981637597">
        <ele>452.303</ele>
        <time>2011-01-22T07:42:44Z</time>
      </trkpt>
      <trkpt lat="31.813757987692952" lon="35.057770013809204">
        <ele>453.31099999999998</ele>
        <time>2011-01-22T07:42:53Z</time>
      </trkpt>
      <trkpt lat="31.813789000734687" lon="35.058036977425218">
        <ele>454.61500000000001</ele>
        <time>2011-01-22T07:43:03Z</time>
      </trkpt>
      <trkpt lat="31.813789000734687" lon="35.058286003768444">
        <ele>455.846</ele>
        <time>2011-01-22T07:43:12Z</time>
      </trkpt>
      <trkpt lat="31.813784977421165" lon="35.058481972664595">
        <ele>456.73599999999999</ele>
        <time>2011-01-22T07:43:19Z</time>
      </trkpt>
      <trkpt lat="31.813776008784771" lon="35.05877198651433">
        <ele>457.58300000000003</ele>
        <time>2011-01-22T07:43:29Z</time>
      </trkpt>
      <trkpt lat="31.813769973814487" lon="35.058991005644202">
        <ele>458.62200000000001</ele>
        <time>2011-01-22T07:43:37Z</time>
      </trkpt>
      <trkpt lat="31.813703002408147" lon="35.059218993410468">
        <ele>459.49000000000001</ele>
        <time>2011-01-22T07:43:46Z</time>
      </trkpt>
      <trkpt lat="31.813590014353395" lon="35.059479000046849">
        <ele>460.25299999999999</ele>
        <time>2011-01-22T07:43:57Z</time>
      </trkpt>
      <trkpt lat="31.813511978834867" lon="35.05960900336504">
        <ele>461.02100000000002</ele>
        <time>2011-01-22T07:44:03Z</time>
      </trkpt>
      <trkpt lat="31.813403014093637" lon="35.059734983369708">
        <ele>462.03500000000003</ele>
        <time>2011-01-22T07:44:10Z</time>
      </trkpt>
      <trkpt lat="31.813270999118686" lon="35.05989097058773">
        <ele>463.56999999999999</ele>
        <time>2011-01-22T07:44:19Z</time>
      </trkpt>
      <trkpt lat="31.813187012448907" lon="35.060135973617435">
        <ele>464.38499999999999</ele>
        <time>2011-01-22T07:44:28Z</time>
      </trkpt>
      <trkpt lat="31.813107971101999" lon="35.060364967212081">
        <ele>465.85599999999999</ele>
        <time>2011-01-22T07:44:37Z</time>
      </trkpt>
      <trkpt lat="31.813048962503672" lon="35.060536963865161">
        <ele>466.66699999999997</ele>
        <time>2011-01-22T07:44:44Z</time>
      </trkpt>
      <trkpt lat="31.812933040782809" lon="35.060700997710228">
        <ele>467.38600000000002</ele>
        <time>2011-01-22T07:44:52Z</time>
      </trkpt>
      <trkpt lat="31.812848970293999" lon="35.060806022956967">
        <ele>468.59399999999999</ele>
        <time>2011-01-22T07:44:59Z</time>
      </trkpt>
      <trkpt lat="31.812728019431233" lon="35.060988999903202">
        <ele>468.97699999999998</ele>
        <time>2011-01-22T07:45:08Z</time>
      </trkpt>
      <trkpt lat="31.812617965042591" lon="35.061198966577649">
        <ele>469.625</ele>
        <time>2011-01-22T07:45:17Z</time>
      </trkpt>
      <trkpt lat="31.812526015564799" lon="35.06139300763607">
        <ele>470.05799999999999</ele>
        <time>2011-01-22T07:45:25Z</time>
      </trkpt>
      <trkpt lat="31.812427025288343" lon="35.061601968482137">
        <ele>470.56799999999998</ele>
        <time>2011-01-22T07:45:33Z</time>
      </trkpt>
      <trkpt lat="31.812345972284675" lon="35.061772959306836">
        <ele>471.81900000000002</ele>
        <time>2011-01-22T07:45:40Z</time>
      </trkpt>
      <trkpt lat="31.81227196007967" lon="35.06192903034389">
        <ele>472.17599999999999</ele>
        <time>2011-01-22T07:45:46Z</time>
      </trkpt>
      <trkpt lat="31.81214296258986" lon="35.062065990641713">
        <ele>473.86799999999999</ele>
        <time>2011-01-22T07:45:54Z</time>
      </trkpt>
      <trkpt lat="31.811992004513741" lon="35.062217032536864">
        <ele>474.572</ele>
        <time>2011-01-22T07:46:03Z</time>
      </trkpt>
      <trkpt lat="31.811854960396886" lon="35.062311999499798">
        <ele>475.08199999999999</ele>
        <time>2011-01-22T07:46:10Z</time>
      </trkpt>
      <trkpt lat="31.811705008149147" lon="35.062415013089776">
        <ele>476.22699999999998</ele>
        <time>2011-01-22T07:46:18Z</time>
      </trkpt>
      <trkpt lat="31.811581961810589" lon="35.062497993931174">
        <ele>477.32799999999997</ele>
        <time>2011-01-22T07:46:25Z</time>
      </trkpt>
      <trkpt lat="31.811417005956173" lon="35.062621962279081">
        <ele>478.20299999999997</ele>
        <time>2011-01-22T07:46:34Z</time>
      </trkpt>
      <trkpt lat="31.811310974881053" lon="35.062735034152865">
        <ele>478.78500000000003</ele>
        <time>2011-01-22T07:46:41Z</time>
      </trkpt>
      <trkpt lat="31.811160016804934" lon="35.062894960865378">
        <ele>480.00799999999998</ele>
        <time>2011-01-22T07:46:50Z</time>
      </trkpt>
      <trkpt lat="31.811020039021969" lon="35.063008032739162">
        <ele>480.339</ele>
        <time>2011-01-22T07:46:58Z</time>
      </trkpt>
      <trkpt lat="31.810845024883747" lon="35.063101993873715">
        <ele>482.15100000000001</ele>
        <time>2011-01-22T07:47:07Z</time>
      </trkpt>
      <trkpt lat="31.810728013515472" lon="35.063184974715114">
        <ele>483.089</ele>
        <time>2011-01-22T07:47:14Z</time>
      </trkpt>
      <trkpt lat="31.81061795912683" lon="35.063307015225291">
        <ele>484.983</ele>
        <time>2011-01-22T07:47:21Z</time>
      </trkpt>
      <trkpt lat="31.810496002435684" lon="35.063471971079707">
        <ele>486.303</ele>
        <time>2011-01-22T07:47:29Z</time>
      </trkpt>
      <trkpt lat="31.81035996414721" lon="35.063675986602902">
        <ele>487.29399999999998</ele>
        <time>2011-01-22T07:47:38Z</time>
      </trkpt>
      <trkpt lat="31.810221998021007" lon="35.063882013782859">
        <ele>488.31700000000001</ele>
        <time>2011-01-22T07:47:47Z</time>
      </trkpt>
      <trkpt lat="31.810132982209325" lon="35.064015034586191">
        <ele>488.96499999999997</ele>
        <time>2011-01-22T07:47:53Z</time>
      </trkpt>
      <trkpt lat="31.810040026903152" lon="35.064153000712395">
        <ele>490.43700000000001</ele>
        <time>2011-01-22T07:48:00Z</time>
      </trkpt>
      <trkpt lat="31.809956040233374" lon="35.064268000423908">
        <ele>491.45499999999998</ele>
        <time>2011-01-22T07:48:06Z</time>
      </trkpt>
      <trkpt lat="31.809873981401324" lon="35.064377970993519">
        <ele>492.27800000000002</ele>
        <time>2011-01-22T07:48:12Z</time>
      </trkpt>
      <trkpt lat="31.809770967811346" lon="35.064519038423896">
        <ele>493.41000000000003</ele>
        <time>2011-01-22T07:48:19Z</time>
      </trkpt>
      <trkpt lat="31.809666026383638" lon="35.064661027863622">
        <ele>494.79599999999999</ele>
        <time>2011-01-22T07:48:27Z</time>
      </trkpt>
      <trkpt lat="31.809537028893828" lon="35.064837969839573">
        <ele>495.66300000000001</ele>
        <time>2011-01-22T07:48:36Z</time>
      </trkpt>
      <trkpt lat="31.809451030567288" lon="35.064996974542737">
        <ele>496.517</ele>
        <time>2011-01-22T07:48:43Z</time>
      </trkpt>
      <trkpt lat="31.809366038069129" lon="35.065166959539056">
        <ele>497.20800000000003</ele>
        <time>2011-01-22T07:48:50Z</time>
      </trkpt>
      <trkpt lat="31.809340976178646" lon="35.06521699950099">
        <ele>497.476</ele>
        <time>2011-01-22T07:48:52Z</time>
      </trkpt>
      <trkpt lat="31.809280961751938" lon="35.065338034182787">
        <ele>498.48200000000003</ele>
        <time>2011-01-22T07:48:58Z</time>
      </trkpt>
      <trkpt lat="31.809185994789004" lon="35.065527968108654">
        <ele>499.464</ele>
        <time>2011-01-22T07:49:06Z</time>
      </trkpt>
      <trkpt lat="31.809117011725903" lon="35.065671969205141">
        <ele>500.53399999999999</ele>
        <time>2011-01-22T07:49:13Z</time>
      </trkpt>
      <trkpt lat="31.809050040319562" lon="35.065836003050208">
        <ele>501.488</ele>
        <time>2011-01-22T07:49:20Z</time>
      </trkpt>
      <trkpt lat="31.808958007022738" lon="35.066058961674571">
        <ele>502.387</ele>
        <time>2011-01-22T07:49:29Z</time>
      </trkpt>
      <trkpt lat="31.808888018131256" lon="35.066229030489922">
        <ele>502.87200000000001</ele>
        <time>2011-01-22T07:49:36Z</time>
      </trkpt>
      <trkpt lat="31.808807970955968" lon="35.066424999386072">
        <ele>504.34699999999998</ele>
        <time>2011-01-22T07:49:44Z</time>
      </trkpt>
      <trkpt lat="31.80872599594295" lon="35.066623985767365">
        <ele>505.45499999999998</ele>
        <time>2011-01-22T07:49:52Z</time>
      </trkpt>
      <trkpt lat="31.808623988181353" lon="35.06685197353363">
        <ele>506.24700000000001</ele>
        <time>2011-01-22T07:50:01Z</time>
      </trkpt>
      <trkpt lat="31.808529021218419" lon="35.067007960751653">
        <ele>506.82100000000003</ele>
        <time>2011-01-22T07:50:08Z</time>
      </trkpt>
      <trkpt lat="31.808475963771343" lon="35.067132012918591">
        <ele>507.55900000000003</ele>
        <time>2011-01-22T07:50:13Z</time>
      </trkpt>
      <trkpt lat="31.80838200263679" lon="35.067380033433437">
        <ele>508.47699999999998</ele>
        <time>2011-01-22T07:50:23Z</time>
      </trkpt>
      <trkpt lat="31.80831503123045" lon="35.067567033693194">
        <ele>509.50200000000001</ele>
        <time>2011-01-22T07:50:31Z</time>
      </trkpt>
      <trkpt lat="31.808244958519936" lon="35.067764008417726">
        <ele>510.142</ele>
        <time>2011-01-22T07:50:40Z</time>
      </trkpt>
      <trkpt lat="31.808158038184047" lon="35.067887976765633">
        <ele>511.22000000000003</ele>
        <time>2011-01-22T07:50:47Z</time>
      </trkpt>
      <trkpt lat="31.808040020987391" lon="35.068025020882487">
        <ele>512.05999999999995</ele>
        <time>2011-01-22T07:50:55Z</time>
      </trkpt>
      <trkpt lat="31.807942958548665" lon="35.068162987008691">
        <ele>512.37099999999998</ele>
        <time>2011-01-22T07:51:02Z</time>
      </trkpt>
      <trkpt lat="31.807871041819453" lon="35.068356022238731">
        <ele>513.10900000000004</ele>
        <time>2011-01-22T07:51:10Z</time>
      </trkpt>
      <trkpt lat="31.807837011292577" lon="35.068517038598657">
        <ele>514.33699999999999</ele>
        <time>2011-01-22T07:51:17Z</time>
      </trkpt>
      <trkpt lat="31.807811027392745" lon="35.068640001118183">
        <ele>515.08600000000001</ele>
        <time>2011-01-22T07:51:23Z</time>
      </trkpt>
      <trkpt lat="31.807755036279559" lon="35.068775033578277">
        <ele>516.15499999999997</ele>
        <time>2011-01-22T07:51:29Z</time>
      </trkpt>
      <trkpt lat="31.807658979669213" lon="35.068925991654396">
        <ele>516.69000000000005</ele>
        <time>2011-01-22T07:51:36Z</time>
      </trkpt>
      <trkpt lat="31.807563006877899" lon="35.069057000800967">
        <ele>517.52800000000002</ele>
        <time>2011-01-22T07:51:43Z</time>
      </trkpt>
      <trkpt lat="31.807502992451191" lon="35.069261016324162">
        <ele>518.02499999999998</ele>
        <time>2011-01-22T07:51:51Z</time>
      </trkpt>
      <trkpt lat="31.80743602104485" lon="35.069487998262048">
        <ele>519.41399999999999</ele>
        <time>2011-01-22T07:52:01Z</time>
      </trkpt>
      <trkpt lat="31.807379024103284" lon="35.069680027663708">
        <ele>520.06799999999998</ele>
        <time>2011-01-22T07:52:09Z</time>
      </trkpt>
      <trkpt lat="31.807319009676576" lon="35.069883959367871">
        <ele>521.27499999999998</ele>
        <time>2011-01-22T07:52:18Z</time>
      </trkpt>
      <trkpt lat="31.807270981371403" lon="35.070046987384558">
        <ele>521.69799999999998</ele>
        <time>2011-01-22T07:52:25Z</time>
      </trkpt>
      <trkpt lat="31.8072210252285" lon="35.070215966552496">
        <ele>523.16800000000001</ele>
        <time>2011-01-22T07:52:33Z</time>
      </trkpt>
      <trkpt lat="31.807151036337018" lon="35.070375977084041">
        <ele>524.11099999999999</ele>
        <time>2011-01-22T07:52:40Z</time>
      </trkpt>
      <trkpt lat="31.80698499083519" lon="35.070492988452315">
        <ele>525.58299999999997</ele>
        <time>2011-01-22T07:52:49Z</time>
      </trkpt>
      <trkpt lat="31.80681400001049" lon="35.070614023134112">
        <ele>526.31299999999999</ele>
        <time>2011-01-22T07:52:58Z</time>
      </trkpt>
      <trkpt lat="31.806651977822185" lon="35.070728017017245">
        <ele>527.51900000000001</ele>
        <time>2011-01-22T07:53:07Z</time>
      </trkpt>
      <trkpt lat="31.806475035846233" lon="35.070852991193533">
        <ele>528.38800000000003</ele>
        <time>2011-01-22T07:53:17Z</time>
      </trkpt>
      <trkpt lat="31.806315025314689" lon="35.071053989231586">
        <ele>529.30700000000002</ele>
        <time>2011-01-22T07:53:27Z</time>
      </trkpt>
      <trkpt lat="31.806185021996498" lon="35.071258004754782">
        <ele>530.31600000000003</ele>
        <time>2011-01-22T07:53:36Z</time>
      </trkpt>
      <trkpt lat="31.806081002578139" lon="35.071451961994171">
        <ele>531.68200000000002</ele>
        <time>2011-01-22T07:53:44Z</time>
      </trkpt>
      <trkpt lat="31.805906994268298" lon="35.071699982509017">
        <ele>532.76199999999994</ele>
        <time>2011-01-22T07:53:55Z</time>
      </trkpt>
      <trkpt lat="31.805752012878656" lon="35.07192000746727">
        <ele>533.64300000000003</ele>
        <time>2011-01-22T07:54:05Z</time>
      </trkpt>
      <trkpt lat="31.805623015388846" lon="35.072055039927363">
        <ele>535.38900000000001</ele>
        <time>2011-01-22T07:54:13Z</time>
      </trkpt>
      <trkpt lat="31.805460993200541" lon="35.072202980518341">
        <ele>536.42999999999995</ele>
        <time>2011-01-22T07:54:22Z</time>
      </trkpt>
      <trkpt lat="31.805293019860983" lon="35.072357039898634">
        <ele>537.73699999999997</ele>
        <time>2011-01-22T07:54:31Z</time>
      </trkpt>
      <trkpt lat="31.805124040693045" lon="35.072512021288276">
        <ele>538.85299999999995</ele>
        <time>2011-01-22T07:54:40Z</time>
      </trkpt>
      <trkpt lat="31.804956989362836" lon="35.072663985192776">
        <ele>539.62099999999998</ele>
        <time>2011-01-22T07:54:49Z</time>
      </trkpt>
      <trkpt lat="31.804779963567853" lon="35.072828019037843">
        <ele>539.90599999999995</ele>
        <time>2011-01-22T07:54:58Z</time>
      </trkpt>
      <trkpt lat="31.804659012705088" lon="35.072923991829157">
        <ele>540.19799999999998</ele>
        <time>2011-01-22T07:55:04Z</time>
      </trkpt>
      <trkpt lat="31.804492967203259" lon="35.073000015690923">
        <ele>540.85400000000004</ele>
        <time>2011-01-22T07:55:12Z</time>
      </trkpt>
      <trkpt lat="31.804388025775552" lon="35.073093976825476">
        <ele>541.15700000000004</ele>
        <time>2011-01-22T07:55:18Z</time>
      </trkpt>
      <trkpt lat="31.804376039654016" lon="35.073119960725307">
        <ele>541.15700000000004</ele>
        <time>2011-01-22T07:55:19Z</time>
      </trkpt>
      <trkpt lat="31.804270008578897" lon="35.073257004842162">
        <ele>542.79399999999998</ele>
        <time>2011-01-22T07:55:27Z</time>
      </trkpt>
      <trkpt lat="31.804168000817299" lon="35.073348032310605">
        <ele>543.49300000000005</ele>
        <time>2011-01-22T07:55:33Z</time>
      </trkpt>
      <trkpt lat="31.804016958922148" lon="35.073482980951667">
        <ele>544.84199999999998</ele>
        <time>2011-01-22T07:55:42Z</time>
      </trkpt>
      <trkpt lat="31.803863989189267" lon="35.073653971776366">
        <ele>546.78899999999999</ele>
        <time>2011-01-22T07:55:52Z</time>
      </trkpt>
      <trkpt lat="31.803756030276418" lon="35.073863016441464">
        <ele>547.697</ele>
        <time>2011-01-22T07:56:01Z</time>
      </trkpt>
      <trkpt lat="31.803642958402634" lon="35.074143977835774">
        <ele>549.51599999999996</ele>
        <time>2011-01-22T07:56:12Z</time>
      </trkpt>
      <trkpt lat="31.803639018908143" lon="35.074394010007381">
        <ele>550.65499999999997</ele>
        <time>2011-01-22T07:56:21Z</time>
      </trkpt>
      <trkpt lat="31.803665002807975" lon="35.074576986953616">
        <ele>551.80200000000002</ele>
        <time>2011-01-22T07:56:29Z</time>
      </trkpt>
      <trkpt lat="31.803714958950877" lon="35.074814027175307">
        <ele>552.80799999999999</ele>
        <time>2011-01-22T07:56:38Z</time>
      </trkpt>
      <trkpt lat="31.803771033883095" lon="35.074977977201343">
        <ele>553.654</ele>
        <time>2011-01-22T07:56:45Z</time>
      </trkpt>
      <trkpt lat="31.803859965875745" lon="35.07520797662437">
        <ele>555.22500000000002</ele>
        <time>2011-01-22T07:56:55Z</time>
      </trkpt>
      <trkpt lat="31.803930038586259" lon="35.075387014076114">
        <ele>556.80999999999995</ele>
        <time>2011-01-22T07:57:03Z</time>
      </trkpt>
      <trkpt lat="31.803985023871064" lon="35.075527997687459">
        <ele>557.53399999999999</ele>
        <time>2011-01-22T07:57:10Z</time>
      </trkpt>
      <trkpt lat="31.804058030247688" lon="35.075714997947216">
        <ele>558.54600000000005</ele>
        <time>2011-01-22T07:57:18Z</time>
      </trkpt>
      <trkpt lat="31.804134976118803" lon="35.07593896239996">
        <ele>559.30600000000004</ele>
        <time>2011-01-22T07:57:27Z</time>
      </trkpt>
      <trkpt lat="31.804210999980569" lon="35.076169967651367">
        <ele>559.85900000000004</ele>
        <time>2011-01-22T07:57:36Z</time>
      </trkpt>
      <trkpt lat="31.804288029670715" lon="35.076399967074394">
        <ele>561.66899999999998</ele>
        <time>2011-01-22T07:57:45Z</time>
      </trkpt>
      <trkpt lat="31.804353995248675" lon="35.076598031446338">
        <ele>562.88</ele>
        <time>2011-01-22T07:57:53Z</time>
      </trkpt>
      <trkpt lat="31.804419960826635" lon="35.076772961765528">
        <ele>563.00400000000002</ele>
        <time>2011-01-22T07:58:00Z</time>
      </trkpt>
      <trkpt lat="31.804510988295078" lon="35.076950993388891">
        <ele>564.28399999999999</ele>
        <time>2011-01-22T07:58:08Z</time>
      </trkpt>
      <trkpt lat="31.804610984399915" lon="35.07709801197052">
        <ele>566.05499999999995</ele>
        <time>2011-01-22T07:58:16Z</time>
      </trkpt>
      <trkpt lat="31.804696982726455" lon="35.077222986146808">
        <ele>567.91800000000001</ele>
        <time>2011-01-22T07:58:23Z</time>
      </trkpt>
      <trkpt lat="31.804782981052995" lon="35.077349971979856">
        <ele>568.60799999999995</ele>
        <time>2011-01-22T07:58:30Z</time>
      </trkpt>
      <trkpt lat="31.804874008521438" lon="35.077490033581853">
        <ele>568.96699999999998</ele>
        <time>2011-01-22T07:58:37Z</time>
      </trkpt>
      <trkpt lat="31.804974004626274" lon="35.077645014971495">
        <ele>571.05499999999995</ele>
        <time>2011-01-22T07:58:45Z</time>
      </trkpt>
      <trkpt lat="31.804988002404571" lon="35.077727995812893">
        <ele>571.56299999999999</ele>
        <time>2011-01-22T07:58:49Z</time>
      </trkpt>
      <trkpt lat="31.804967969655991" lon="35.077797984704375">
        <ele>572.24599999999998</ele>
        <time>2011-01-22T07:58:53Z</time>
      </trkpt>
      <trkpt lat="31.804924970492721" lon="35.077955983579159">
        <ele>572.03999999999996</ele>
        <time>2011-01-22T07:59:01Z</time>
      </trkpt>
      <trkpt lat="31.804887000471354" lon="35.078091016039252">
        <ele>573.62400000000002</ele>
        <time>2011-01-22T07:59:08Z</time>
      </trkpt>
      <trkpt lat="31.804850036278367" lon="35.078225964680314">
        <ele>575.73500000000001</ele>
        <time>2011-01-22T07:59:16Z</time>
      </trkpt>
      <trkpt lat="31.804821034893394" lon="35.078333001583815">
        <ele>577.32600000000002</ele>
        <time>2011-01-22T07:59:23Z</time>
      </trkpt>
      <trkpt lat="31.804803013801575" lon="35.078442972153425">
        <ele>578.70100000000002</ele>
        <time>2011-01-22T07:59:30Z</time>
      </trkpt>
      <trkpt lat="31.804782981052995" lon="35.078573981299996">
        <ele>579.97199999999998</ele>
        <time>2011-01-22T07:59:37Z</time>
      </trkpt>
      <trkpt lat="31.804758002981544" lon="35.078729968518019">
        <ele>581.05399999999997</ele>
        <time>2011-01-22T07:59:45Z</time>
      </trkpt>
      <trkpt lat="31.804737970232964" lon="35.078848991543055">
        <ele>582.32100000000003</ele>
        <time>2011-01-22T07:59:52Z</time>
      </trkpt>
      <trkpt lat="31.804720032960176" lon="35.078956028446555">
        <ele>583.00400000000002</ele>
        <time>2011-01-22T07:59:58Z</time>
      </trkpt>
      <trkpt lat="31.804696982726455" lon="35.0790970120579">
        <ele>584.45299999999997</ele>
        <time>2011-01-22T08:00:06Z</time>
      </trkpt>
      <trkpt lat="31.804672004655004" lon="35.079246964305639">
        <ele>585.20500000000004</ele>
        <time>2011-01-22T08:00:14Z</time>
      </trkpt>
      <trkpt lat="31.804650966078043" lon="35.079370010644197">
        <ele>585.66099999999994</ele>
        <time>2011-01-22T08:00:21Z</time>
      </trkpt>
      <trkpt lat="31.804626993834972" lon="35.079512000083923">
        <ele>586.11199999999997</ele>
        <time>2011-01-22T08:00:28Z</time>
      </trkpt>
      <trkpt lat="31.804604027420282" lon="35.079671004787087">
        <ele>586.83100000000002</ele>
        <time>2011-01-22T08:00:36Z</time>
      </trkpt>
      <trkpt lat="31.804593969136477" lon="35.079849036410451">
        <ele>587.221</ele>
        <time>2011-01-22T08:00:44Z</time>
      </trkpt>
      <trkpt lat="31.804581983014941" lon="35.080076018348336">
        <ele>588.42100000000005</ele>
        <time>2011-01-22T08:00:54Z</time>
      </trkpt>
      <trkpt lat="31.804573014378548" lon="35.080240974202752">
        <ele>589.08299999999997</ele>
        <time>2011-01-22T08:01:02Z</time>
      </trkpt>
      <trkpt lat="31.804563961923122" lon="35.080400984734297">
        <ele>590.43399999999997</ele>
        <time>2011-01-22T08:01:10Z</time>
      </trkpt>
      <trkpt lat="31.804530015215278" lon="35.080544985830784">
        <ele>591.66399999999999</ele>
        <time>2011-01-22T08:01:17Z</time>
      </trkpt>
      <trkpt lat="31.804478969424963" lon="35.080709019675851">
        <ele>592.67899999999997</ele>
        <time>2011-01-22T08:01:25Z</time>
      </trkpt>
      <trkpt lat="31.804427001625299" lon="35.080877998843789">
        <ele>594.12699999999995</ele>
        <time>2011-01-22T08:01:33Z</time>
      </trkpt>
      <trkpt lat="31.804389031603932" lon="35.081002973020077">
        <ele>595.83699999999999</ele>
        <time>2011-01-22T08:01:40Z</time>
      </trkpt>
      <trkpt lat="31.804344020783901" lon="35.081146974116564">
        <ele>597.84299999999996</ele>
        <time>2011-01-22T08:01:48Z</time>
      </trkpt>
      <trkpt lat="31.804302027449012" lon="35.081296004354954">
        <ele>599.68799999999999</ele>
        <time>2011-01-22T08:01:56Z</time>
      </trkpt>
      <trkpt lat="31.804279983043671" lon="35.081444028764963">
        <ele>600.54499999999996</ele>
        <time>2011-01-22T08:02:03Z</time>
      </trkpt>
      <trkpt lat="31.804253999143839" lon="35.081619964912534">
        <ele>601.59400000000005</ele>
        <time>2011-01-22T08:02:12Z</time>
      </trkpt>
      <trkpt lat="31.804228015244007" lon="35.081796990707517">
        <ele>601.95799999999997</ele>
        <time>2011-01-22T08:02:21Z</time>
      </trkpt>
      <trkpt lat="31.804210999980569" lon="35.081914002075791">
        <ele>602.12599999999998</ele>
        <time>2011-01-22T08:02:27Z</time>
      </trkpt>
      <trkpt lat="31.804197002202272" lon="35.082160010933876">
        <ele>602.59699999999998</ele>
        <time>2011-01-22T08:02:38Z</time>
      </trkpt>
      <trkpt lat="31.804197002202272" lon="35.082353968173265">
        <ele>603.577</ele>
        <time>2011-01-22T08:02:47Z</time>
      </trkpt>
      <trkpt lat="31.804197002202272" lon="35.082509033381939">
        <ele>603.56899999999996</ele>
        <time>2011-01-22T08:02:54Z</time>
      </trkpt>
      <trkpt lat="31.804186021909118" lon="35.082635013386607">
        <ele>604.16800000000001</ele>
        <time>2011-01-22T08:03:01Z</time>
      </trkpt>
      <trkpt lat="31.804165989160538" lon="35.082892002537847">
        <ele>606.29700000000003</ele>
        <time>2011-01-22T08:03:13Z</time>
      </trkpt>
      <trkpt lat="31.804142016917467" lon="35.083084031939507">
        <ele>606.33500000000004</ele>
        <time>2011-01-22T08:03:22Z</time>
      </trkpt>
      <trkpt lat="31.804109998047352" lon="35.083204982802272">
        <ele>607.18799999999999</ele>
        <time>2011-01-22T08:03:28Z</time>
      </trkpt>
      <trkpt lat="31.804058030247688" lon="35.083402963355184">
        <ele>607.83399999999995</ele>
        <time>2011-01-22T08:03:37Z</time>
      </trkpt>
      <trkpt lat="31.804011007770896" lon="35.083583006635308">
        <ele>609.41099999999994</ele>
        <time>2011-01-22T08:03:45Z</time>
      </trkpt>
      <trkpt lat="31.803965996950865" lon="35.083753997460008">
        <ele>609.94000000000005</ele>
        <time>2011-01-22T08:03:53Z</time>
      </trkpt>
      <trkpt lat="31.80393498390913" lon="35.083878971636295">
        <ele>610.30399999999997</ele>
        <time>2011-01-22T08:03:59Z</time>
      </trkpt>
      <trkpt lat="31.803901959210634" lon="35.084057003259659">
        <ele>611.12599999999998</ele>
        <time>2011-01-22T08:04:07Z</time>
      </trkpt>
      <trkpt lat="31.803867006674409" lon="35.084252972155809">
        <ele>612.47199999999998</ele>
        <time>2011-01-22T08:04:16Z</time>
      </trkpt>
      <trkpt lat="31.803839011117816" lon="35.084406025707722">
        <ele>612.69200000000001</ele>
        <time>2011-01-22T08:04:23Z</time>
      </trkpt>
      <trkpt lat="31.803811015561223" lon="35.084564024582505">
        <ele>613.99099999999999</ele>
        <time>2011-01-22T08:04:32Z</time>
      </trkpt>
      <trkpt lat="31.803830964490771" lon="35.084742978215218">
        <ele>615.06799999999998</ele>
        <time>2011-01-22T08:04:42Z</time>
      </trkpt>
      <trkpt lat="31.803873041644692" lon="35.08487599901855">
        <ele>615.93700000000001</ele>
        <time>2011-01-22T08:04:50Z</time>
      </trkpt>
      <trkpt lat="31.803924003615975" lon="35.085042966529727">
        <ele>616.73199999999997</ele>
        <time>2011-01-22T08:04:58Z</time>
      </trkpt>
      <trkpt lat="31.803958034142852" lon="35.085228960961103">
        <ele>618.01800000000003</ele>
        <time>2011-01-22T08:05:06Z</time>
      </trkpt>
      <trkpt lat="31.803999021649361" lon="35.085457032546401">
        <ele>620.79499999999996</ele>
        <time>2011-01-22T08:05:17Z</time>
      </trkpt>
      <trkpt lat="31.803989969193935" lon="35.085653001442552">
        <ele>622.32600000000002</ele>
        <time>2011-01-22T08:05:27Z</time>
      </trkpt>
      <trkpt lat="31.803949987515807" lon="35.085845030844212">
        <ele>622.98199999999997</ele>
        <time>2011-01-22T08:05:37Z</time>
      </trkpt>
      <trkpt lat="31.803882010281086" lon="35.086066983640194">
        <ele>624.08100000000002</ele>
        <time>2011-01-22T08:05:48Z</time>
      </trkpt>
      <trkpt lat="31.803832976147532" lon="35.086225988343358">
        <ele>625.92399999999998</ele>
        <time>2011-01-22T08:05:56Z</time>
      </trkpt>
      <trkpt lat="31.803615968674421" lon="35.086282985284925">
        <ele>626.78300000000002</ele>
        <time>2011-01-22T08:06:06Z</time>
      </trkpt>
      <trkpt lat="31.803565006703138" lon="35.086436038836837">
        <ele>627.44899999999996</ele>
        <time>2011-01-22T08:06:12Z</time>
      </trkpt>
      <trkpt lat="31.803551008924842" lon="35.086478032171726">
        <ele>627.04700000000003</ele>
        <time>2011-01-22T08:06:14Z</time>
      </trkpt>
      <trkpt lat="31.803480014204979" lon="35.086643993854523">
        <ele>626.70899999999995</ele>
        <time>2011-01-22T08:06:19Z</time>
      </trkpt>
      <trkpt lat="31.803437015041709" lon="35.086734015494585">
        <ele>627.30100000000004</ele>
        <time>2011-01-22T08:06:24Z</time>
      </trkpt>
      <trkpt lat="31.803366020321846" lon="35.086885979399085">
        <ele>628.65099999999995</ele>
        <time>2011-01-22T08:06:32Z</time>
      </trkpt>
      <trkpt lat="31.803330983966589" lon="35.08706602267921">
        <ele>630.42499999999995</ele>
        <time>2011-01-22T08:06:41Z</time>
      </trkpt>
      <trkpt lat="31.803323021158576" lon="35.087187979370356">
        <ele>631.95500000000004</ele>
        <time>2011-01-22T08:06:47Z</time>
      </trkpt>
      <trkpt lat="31.803277004510164" lon="35.087371040135622">
        <ele>633.88400000000001</ele>
        <time>2011-01-22T08:06:56Z</time>
      </trkpt>
      <trkpt lat="31.803219001740217" lon="35.087526021525264">
        <ele>634.49199999999996</ele>
        <time>2011-01-22T08:07:04Z</time>
      </trkpt>
      <trkpt lat="31.803196035325527" lon="35.087688965722919">
        <ele>636.351</ele>
        <time>2011-01-22T08:07:12Z</time>
      </trkpt>
      <trkpt lat="31.803211038932204" lon="35.087848976254463">
        <ele>638.01900000000001</ele>
        <time>2011-01-22T08:07:20Z</time>
      </trkpt>
      <trkpt lat="31.803249008953571" lon="35.088061038404703">
        <ele>640.01700000000005</ele>
        <time>2011-01-22T08:07:31Z</time>
      </trkpt>
      <trkpt lat="31.803278010338545" lon="35.088216019794345">
        <ele>641.96000000000004</ele>
        <time>2011-01-22T08:07:39Z</time>
      </trkpt>
      <trkpt lat="31.803340958431363" lon="35.088362032547593">
        <ele>643.77200000000005</ele>
        <time>2011-01-22T08:07:48Z</time>
      </trkpt>
      <trkpt lat="31.80339502170682" lon="35.088490024209023">
        <ele>645.80999999999995</ele>
        <time>2011-01-22T08:07:56Z</time>
      </trkpt>
      <trkpt lat="31.803416982293129" lon="35.088602006435394">
        <ele>647.33100000000002</ele>
        <time>2011-01-22T08:08:03Z</time>
      </trkpt>
      <trkpt lat="31.803437015041709" lon="35.08874399587512">
        <ele>648.30399999999997</ele>
        <time>2011-01-22T08:08:10Z</time>
      </trkpt>
      <trkpt lat="31.803476996719837" lon="35.088884979486465">
        <ele>649.31500000000005</ele>
        <time>2011-01-22T08:08:18Z</time>
      </trkpt>
      <trkpt lat="31.803544973954558" lon="35.089010037481785">
        <ele>650.73900000000003</ele>
        <time>2011-01-22T08:08:26Z</time>
      </trkpt>
      <trkpt lat="31.803652010858059" lon="35.089159989729524">
        <ele>652.95000000000005</ele>
        <time>2011-01-22T08:08:37Z</time>
      </trkpt>
      <trkpt lat="31.803760975599289" lon="35.089253028854728">
        <ele>654.83699999999999</ele>
        <time>2011-01-22T08:08:46Z</time>
      </trkpt>
      <trkpt lat="31.803867006674409" lon="35.089298961684108">
        <ele>655.60400000000004</ele>
        <time>2011-01-22T08:08:53Z</time>
      </trkpt>
      <trkpt lat="31.80389097891748" lon="35.08930197916925">
        <ele>656.33900000000006</ele>
        <time>2011-01-22T08:08:55Z</time>
      </trkpt>
      <trkpt lat="31.80397697724402" lon="35.08930197916925">
        <ele>657.88900000000001</ele>
        <time>2011-01-22T08:09:02Z</time>
      </trkpt>
      <trkpt lat="31.804071022197604" lon="35.08930197916925">
        <ele>660</ele>
        <time>2011-01-22T08:09:09Z</time>
      </trkpt>
      <trkpt lat="31.804166994988918" lon="35.08930197916925">
        <ele>661.99699999999996</ele>
        <time>2011-01-22T08:09:16Z</time>
      </trkpt>
      <trkpt lat="31.804197002202272" lon="35.08930197916925">
        <ele>662.81100000000004</ele>
        <time>2011-01-22T08:09:19Z</time>
      </trkpt>
      <trkpt lat="31.804277971386909" lon="35.089453021064401">
        <ele>664.89300000000003</ele>
        <time>2011-01-22T08:09:30Z</time>
      </trkpt>
      <trkpt lat="31.804380984976888" lon="35.089623006060719">
        <ele>665.15200000000004</ele>
        <time>2011-01-22T08:09:41Z</time>
      </trkpt>
      <trkpt lat="31.804483998566866" lon="35.089703975245357">
        <ele>665.726</ele>
        <time>2011-01-22T08:09:49Z</time>
      </trkpt>
      <trkpt lat="31.804607966914773" lon="35.089741023257375">
        <ele>667.06500000000005</ele>
        <time>2011-01-22T08:09:57Z</time>
      </trkpt>
      <trkpt lat="31.804736964404583" lon="35.089779999107122">
        <ele>668.75099999999998</ele>
        <time>2011-01-22T08:10:06Z</time>
      </trkpt>
      <trkpt lat="31.804875014349818" lon="35.089831966906786">
        <ele>671.447</ele>
        <time>2011-01-22T08:10:16Z</time>
      </trkpt>
      <trkpt lat="31.804908039048314" lon="35.089869014918804">
        <ele>671.59199999999998</ele>
        <time>2011-01-22T08:10:19Z</time>
      </trkpt>
      <trkpt lat="31.805023960769176" lon="35.090002035722136">
        <ele>671.68499999999995</ele>
        <time>2011-01-22T08:10:28Z</time>
      </trkpt>
      <trkpt lat="31.805089004337788" lon="35.09007696993649">
        <ele>672.09400000000005</ele>
        <time>2011-01-22T08:10:34Z</time>
      </trkpt>
      <trkpt lat="31.805204004049301" lon="35.090191969648004">
        <ele>671.83900000000006</ele>
        <time>2011-01-22T08:10:42Z</time>
      </trkpt>
      <trkpt lat="31.805277010425925" lon="35.090247038751841">
        <ele>671.84000000000003</ele>
        <time>2011-01-22T08:10:47Z</time>
      </trkpt>
      <trkpt lat="31.805337024852633" lon="35.090290037915111">
        <ele>671.84900000000005</ele>
        <time>2011-01-22T08:10:53Z</time>
      </trkpt>
      <trkpt lat="31.805443977937102" lon="35.090290037915111">
        <ele>672.97799999999995</ele>
        <time>2011-01-22T08:11:01Z</time>
      </trkpt>
      <trkpt lat="31.805553026497364" lon="35.090290037915111">
        <ele>674.67600000000004</ele>
        <time>2011-01-22T08:11:09Z</time>
      </trkpt>
      <trkpt lat="31.805691998451948" lon="35.090290037915111">
        <ele>676.57299999999998</ele>
        <time>2011-01-22T08:11:18Z</time>
      </trkpt>
      <trkpt lat="31.805818984284997" lon="35.090270005166531">
        <ele>678.75999999999999</ele>
        <time>2011-01-22T08:11:27Z</time>
      </trkpt>
      <trkpt lat="31.806000033393502" lon="35.09033203125">
        <ele>679.72500000000002</ele>
        <time>2011-01-22T08:11:34Z</time>
      </trkpt>
      <trkpt lat="31.806000033393502" lon="35.09033203125">
        <ele>679.92100000000005</ele>
        <time>2011-01-22T08:11:36Z</time>
      </trkpt>
      <trkpt lat="31.805898025631905" lon="35.090185012668371">
        <ele>681.32500000000005</ele>
        <time>2011-01-22T08:15:17Z</time>
      </trkpt>
      <trkpt lat="31.805903976783156" lon="35.09016296826303">
        <ele>681.56200000000001</ele>
        <time>2011-01-22T08:15:18Z</time>
      </trkpt>
      <trkpt lat="31.806030962616205" lon="35.090191969648004">
        <ele>682.03599999999994</ele>
        <time>2011-01-22T08:15:22Z</time>
      </trkpt>
      <trkpt lat="31.806044038385153" lon="35.090128015726805">
        <ele>682.14999999999998</ele>
        <time>2011-01-22T08:15:27Z</time>
      </trkpt>
      <trkpt lat="31.806053007021546" lon="35.090078981593251">
        <ele>682.04499999999996</ele>
        <time>2011-01-22T08:15:40Z</time>
      </trkpt>
      <trkpt lat="31.806086031720042" lon="35.089903967455029">
        <ele>682.34400000000005</ele>
        <time>2011-01-22T08:15:46Z</time>
      </trkpt>
      <trkpt lat="31.806134982034564" lon="35.089641027152538">
        <ele>682.13300000000004</ele>
        <time>2011-01-22T08:15:52Z</time>
      </trkpt>
      <trkpt lat="31.806202037259936" lon="35.089289993047714">
        <ele>682.58199999999999</ele>
        <time>2011-01-22T08:15:58Z</time>
      </trkpt>
      <trkpt lat="31.806291975080967" lon="35.088814990594983">
        <ele>680.75599999999997</ele>
        <time>2011-01-22T08:16:04Z</time>
      </trkpt>
      <trkpt lat="31.806395994499326" lon="35.08824996650219">
        <ele>678.97299999999996</ele>
        <time>2011-01-22T08:16:10Z</time>
      </trkpt>
      <trkpt lat="31.806478975340724" lon="35.087552005425096">
        <ele>676.49199999999996</ele>
        <time>2011-01-22T08:16:17Z</time>
      </trkpt>
      <trkpt lat="31.806527003645897" lon="35.086974995210767">
        <ele>675.85799999999995</ele>
        <time>2011-01-22T08:16:23Z</time>
      </trkpt>
      <trkpt lat="31.806635968387127" lon="35.086327996104956">
        <ele>676.14099999999996</ele>
        <time>2011-01-22T08:16:30Z</time>
      </trkpt>
      <trkpt lat="31.806795978918672" lon="35.085731958970428">
        <ele>676.52099999999996</ele>
        <time>2011-01-22T08:16:37Z</time>
      </trkpt>
      <trkpt lat="31.806980967521667" lon="35.085030980408192">
        <ele>675.39099999999996</ele>
        <time>2011-01-22T08:16:45Z</time>
      </trkpt>
      <trkpt lat="31.807078029960394" lon="35.084556983783841">
        <ele>674.274</ele>
        <time>2011-01-22T08:16:50Z</time>
      </trkpt>
      <trkpt lat="31.807163022458553" lon="35.084273004904389">
        <ele>674.15099999999995</ele>
        <time>2011-01-22T08:16:53Z</time>
      </trkpt>
      <trkpt lat="31.807207027450204" lon="35.084036970511079">
        <ele>674.11900000000003</ele>
        <time>2011-01-22T08:16:56Z</time>
      </trkpt>
      <trkpt lat="31.807315992191434" lon="35.083660958334804">
        <ele>674.87300000000005</ele>
        <time>2011-01-22T08:17:01Z</time>
      </trkpt>
      <trkpt lat="31.80734901688993" lon="35.083556016907096">
        <ele>675.66999999999996</ele>
        <time>2011-01-22T08:17:03Z</time>
      </trkpt>
      <trkpt lat="31.807400984689593" lon="35.083388965576887">
        <ele>677.21900000000005</ele>
        <time>2011-01-22T08:17:08Z</time>
      </trkpt>
      <trkpt lat="31.807463010773063" lon="35.083190985023975">
        <ele>679.12400000000002</ele>
        <time>2011-01-22T08:17:15Z</time>
      </trkpt>
      <trkpt lat="31.807557977735996" lon="35.08289996534586">
        <ele>681.61000000000001</ele>
        <time>2011-01-22T08:17:25Z</time>
      </trkpt>
      <trkpt lat="31.807703990489244" lon="35.082582039758563">
        <ele>684.01700000000005</ele>
        <time>2011-01-22T08:17:36Z</time>
      </trkpt>
      <trkpt lat="31.807815972715616" lon="35.082355979830027">
        <ele>684.66999999999996</ele>
        <time>2011-01-22T08:17:43Z</time>
      </trkpt>
      <trkpt lat="31.807979000732303" lon="35.082090022042394">
        <ele>684.50199999999995</ele>
        <time>2011-01-22T08:17:50Z</time>
      </trkpt>
      <trkpt lat="31.808161977678537" lon="35.081839989870787">
        <ele>682.95100000000002</ele>
        <time>2011-01-22T08:17:55Z</time>
      </trkpt>
      <trkpt lat="31.808311007916927" lon="35.081647960469127">
        <ele>681.79999999999995</ele>
        <time>2011-01-22T08:17:58Z</time>
      </trkpt>
      <trkpt lat="31.80842500180006" lon="35.08150203153491">
        <ele>680.98599999999999</ele>
        <time>2011-01-22T08:18:00Z</time>
      </trkpt>
      <trkpt lat="31.80874602869153" lon="35.081086959689856">
        <ele>677.17600000000004</ele>
        <time>2011-01-22T08:18:05Z</time>
      </trkpt>
      <trkpt lat="31.809294037520885" lon="35.080381035804749">
        <ele>669.21799999999996</ele>
        <time>2011-01-22T08:18:12Z</time>
      </trkpt>
      <trkpt lat="31.809550020843744" lon="35.080055985599756">
        <ele>665.63099999999997</ele>
        <time>2011-01-22T08:18:15Z</time>
      </trkpt>
      <trkpt lat="31.809994010254741" lon="35.079534966498613">
        <ele>659.18299999999999</ele>
        <time>2011-01-22T08:18:20Z</time>
      </trkpt>
      <trkpt lat="31.810306990519166" lon="35.079300021752715">
        <ele>655.32500000000005</ele>
        <time>2011-01-22T08:18:24Z</time>
      </trkpt>
      <trkpt lat="31.810345966368914" lon="35.079231960698962">
        <ele>655.32500000000005</ele>
        <time>2011-01-22T08:18:25Z</time>
      </trkpt>
      <trkpt lat="31.81031302548945" lon="35.079131964594126">
        <ele>654.92499999999995</ele>
        <time>2011-01-22T08:18:27Z</time>
      </trkpt>
      <trkpt lat="31.81018696166575" lon="35.079113021492958">
        <ele>654.73599999999999</ele>
        <time>2011-01-22T08:18:31Z</time>
      </trkpt>
      <trkpt lat="31.81018696166575" lon="35.079113021492958">
        <ele>654.73599999999999</ele>
        <time>2011-01-22T08:18:32Z</time>
      </trkpt>
      <trkpt lat="31.809812961146235" lon="35.078748995438218">
        <ele>653.96600000000001</ele>
        <time>2011-01-22T08:18:38Z</time>
      </trkpt>
      <trkpt lat="31.809697039425373" lon="35.078636007383466">
        <ele>653.95799999999997</ele>
        <time>2011-01-22T08:18:41Z</time>
      </trkpt>
      <trkpt lat="31.809531999751925" lon="35.07847499102354">
        <ele>649.41700000000003</ele>
        <time>2011-01-22T08:18:46Z</time>
      </trkpt>
      <trkpt lat="31.809486988931894" lon="35.07843098603189">
        <ele>648.45000000000005</ele>
        <time>2011-01-22T08:18:50Z</time>
      </trkpt>
      <trkpt lat="31.809355979785323" lon="35.078257983550429">
        <ele>647.42499999999995</ele>
        <time>2011-01-22T08:18:53Z</time>
      </trkpt>
      <trkpt lat="31.809354973956943" lon="35.07808699272573">
        <ele>646.00400000000002</ele>
        <time>2011-01-22T08:18:56Z</time>
      </trkpt>
      <trkpt lat="31.809365032240748" lon="35.078066037967801">
        <ele>645.87699999999995</ele>
        <time>2011-01-22T08:18:57Z</time>
      </trkpt>
      <trkpt lat="31.809349022805691" lon="35.078179026022553">
        <ele>645.87699999999995</ele>
        <time>2011-01-22T08:19:00Z</time>
      </trkpt>
      <trkpt lat="31.809406019747257" lon="35.07798096165061">
        <ele>644.80999999999995</ele>
        <time>2011-01-22T08:19:04Z</time>
      </trkpt>
      <trkpt lat="31.809420017525554" lon="35.077949026599526">
        <ele>644.80999999999995</ele>
        <time>2011-01-22T08:19:06Z</time>
      </trkpt>
      <trkpt lat="31.809494029730558" lon="35.077787004411221">
        <ele>643.178</ele>
        <time>2011-01-22T08:19:11Z</time>
      </trkpt>
      <trkpt lat="31.809494029730558" lon="35.077787004411221">
        <ele>643.02700000000004</ele>
        <time>2011-01-22T08:19:12Z</time>
      </trkpt>
      <trkpt lat="31.809524036943913" lon="35.077735958620906">
        <ele>642.78599999999994</ele>
        <time>2011-01-22T08:19:18Z</time>
      </trkpt>
      <trkpt lat="31.809524036943913" lon="35.077735958620906">
        <ele>642.78599999999994</ele>
        <time>2011-01-22T08:19:19Z</time>
      </trkpt>
      <trkpt lat="31.809610035270452" lon="35.077155008912086">
        <ele>639.73000000000002</ele>
        <time>2011-01-22T08:19:24Z</time>
      </trkpt>
      <trkpt lat="31.809578016400337" lon="35.076614962890744">
        <ele>636.60599999999999</ele>
        <time>2011-01-22T08:19:29Z</time>
      </trkpt>
      <trkpt lat="31.809576004743576" lon="35.076338024809957">
        <ele>633.66399999999999</ele>
        <time>2011-01-22T08:19:32Z</time>
      </trkpt>
      <trkpt lat="31.809596959501505" lon="35.076307011768222">
        <ele>633.44100000000003</ele>
        <time>2011-01-22T08:19:33Z</time>
      </trkpt>
      <trkpt lat="31.809612968936563" lon="35.076120011508465">
        <ele>632.46799999999996</ele>
        <time>2011-01-22T08:19:37Z</time>
      </trkpt>
      <trkpt lat="31.80958497337997" lon="35.075782975181937">
        <ele>631.17499999999995</ele>
        <time>2011-01-22T08:19:42Z</time>
      </trkpt>
      <trkpt lat="31.809582961723208" lon="35.075462032109499">
        <ele>629.94799999999998</ele>
        <time>2011-01-22T08:19:45Z</time>
      </trkpt>
      <trkpt lat="31.80962797254324" lon="35.075098006054759">
        <ele>627.85699999999997</ele>
        <time>2011-01-22T08:19:48Z</time>
      </trkpt>
      <trkpt lat="31.809669965878129" lon="35.074843028560281">
        <ele>627.28700000000003</ele>
        <time>2011-01-22T08:19:50Z</time>
      </trkpt>
      <trkpt lat="31.809669965878129" lon="35.074843028560281">
        <ele>627.28700000000003</ele>
        <time>2011-01-22T08:19:52Z</time>
      </trkpt>
      <trkpt lat="31.809802986681461" lon="35.07436903193593">
        <ele>625.37099999999998</ele>
        <time>2011-01-22T08:19:54Z</time>
      </trkpt>
      <trkpt lat="31.810037009418011" lon="35.073907021433115">
        <ele>620.04899999999998</ele>
        <time>2011-01-22T08:19:58Z</time>
      </trkpt>
      <trkpt lat="31.810086965560913" lon="35.073786992579699">
        <ele>619.76700000000005</ele>
        <time>2011-01-22T08:19:59Z</time>
      </trkpt>
      <trkpt lat="31.810137005522847" lon="35.073669981211424">
        <ele>619.20799999999997</ele>
        <time>2011-01-22T08:20:00Z</time>
      </trkpt>
      <trkpt lat="31.810219986364245" lon="35.073225991800427">
        <ele>616.97299999999996</ele>
        <time>2011-01-22T08:20:04Z</time>
      </trkpt>
      <trkpt lat="31.810254016891122" lon="35.072744032368064">
        <ele>616.63800000000003</ele>
        <time>2011-01-22T08:20:10Z</time>
      </trkpt>
      <trkpt lat="31.810261979699135" lon="35.072600031271577">
        <ele>617.32799999999997</ele>
        <time>2011-01-22T08:20:12Z</time>
      </trkpt>
      <trkpt lat="31.810240019112825" lon="35.07234999909997">
        <ele>619.17399999999998</ele>
        <time>2011-01-22T08:20:16Z</time>
      </trkpt>
      <trkpt lat="31.810134993866086" lon="35.072053028270602">
        <ele>620.71600000000001</ele>
        <time>2011-01-22T08:20:22Z</time>
      </trkpt>
      <trkpt lat="31.810146979987621" lon="35.071965018287301">
        <ele>621.37199999999996</ele>
        <time>2011-01-22T08:20:26Z</time>
      </trkpt>
      <trkpt lat="31.81018402799964" lon="35.071965018287301">
        <ele>621.84299999999996</ele>
        <time>2011-01-22T08:20:27Z</time>
      </trkpt>
      <trkpt lat="31.810258040204644" lon="35.072011034935713">
        <ele>623.09299999999996</ele>
        <time>2011-01-22T08:20:30Z</time>
      </trkpt>
      <trkpt lat="31.810375973582268" lon="35.072055961936712">
        <ele>624.149</ele>
        <time>2011-01-22T08:20:34Z</time>
      </trkpt>
      <trkpt lat="31.810446968302131" lon="35.071969963610172">
        <ele>625.23500000000001</ele>
        <time>2011-01-22T08:20:40Z</time>
      </trkpt>
      <trkpt lat="31.810468006879091" lon="35.071829985827208">
        <ele>625.56500000000005</ele>
        <time>2011-01-22T08:20:46Z</time>
      </trkpt>
      <trkpt lat="31.810498014092445" lon="35.071636028587818">
        <ele>627.279</ele>
        <time>2011-01-22T08:20:53Z</time>
      </trkpt>
      <trkpt lat="31.810540007427335" lon="35.071355989202857">
        <ele>628.21699999999998</ele>
        <time>2011-01-22T08:21:01Z</time>
      </trkpt>
      <trkpt lat="31.810517041012645" lon="35.071152979508042">
        <ele>628.44899999999996</ele>
        <time>2011-01-22T08:21:06Z</time>
      </trkpt>
      <trkpt lat="31.810468006879091" lon="35.07097695954144">
        <ele>628.62</ele>
        <time>2011-01-22T08:21:10Z</time>
      </trkpt>
      <trkpt lat="31.810263991355896" lon="35.070698009803891">
        <ele>630.73400000000004</ele>
        <time>2011-01-22T08:21:18Z</time>
      </trkpt>
      <trkpt lat="31.810242030769587" lon="35.070661967620254">
        <ele>630.84199999999998</ele>
        <time>2011-01-22T08:21:19Z</time>
      </trkpt>
      <trkpt lat="31.81018402799964" lon="35.070473961532116">
        <ele>630.40099999999995</ele>
        <time>2011-01-22T08:21:23Z</time>
      </trkpt>
      <trkpt lat="31.810191990807652" lon="35.070027960464358">
        <ele>631.29499999999996</ele>
        <time>2011-01-22T08:21:31Z</time>
      </trkpt>
      <trkpt lat="31.81027295999229" lon="35.069770971313119">
        <ele>631.92200000000003</ele>
        <time>2011-01-22T08:21:36Z</time>
      </trkpt>
      <trkpt lat="31.810303973034024" lon="35.069719003513455">
        <ele>632.05700000000002</ele>
        <time>2011-01-22T08:21:38Z</time>
      </trkpt>
      <trkpt lat="31.810436993837357" lon="35.069497972726822">
        <ele>632.22299999999996</ele>
        <time>2011-01-22T08:21:41Z</time>
      </trkpt>
      <trkpt lat="31.810574037954211" lon="35.068903025239706">
        <ele>630.85599999999999</ele>
        <time>2011-01-22T08:21:49Z</time>
      </trkpt>
      <trkpt lat="31.810620976611972" lon="35.068733962252736">
        <ele>629.90200000000004</ele>
        <time>2011-01-22T08:21:51Z</time>
      </trkpt>
      <trkpt lat="31.810805965214968" lon="35.068211015313864">
        <ele>625.14800000000002</ele>
        <time>2011-01-22T08:21:57Z</time>
      </trkpt>
      <trkpt lat="31.810986008495092" lon="35.067973975092173">
        <ele>622.07299999999998</ele>
        <time>2011-01-22T08:22:01Z</time>
      </trkpt>
      <trkpt lat="31.811095979064703" lon="35.067828968167305">
        <ele>620.07299999999998</ele>
        <time>2011-01-22T08:22:04Z</time>
      </trkpt>
      <trkpt lat="31.811248026788235" lon="35.067739030346274">
        <ele>618.65300000000002</ele>
        <time>2011-01-22T08:22:08Z</time>
      </trkpt>
      <trkpt lat="31.811369983479381" lon="35.067812958732247">
        <ele>617.56200000000001</ele>
        <time>2011-01-22T08:22:11Z</time>
      </trkpt>
      <trkpt lat="31.811409965157509" lon="35.067840032279491">
        <ele>617.09400000000005</ele>
        <time>2011-01-22T08:22:12Z</time>
      </trkpt>
      <trkpt lat="31.811498980969191" lon="35.06783701479435">
        <ele>615.17399999999998</ele>
        <time>2011-01-22T08:22:14Z</time>
      </trkpt>
      <trkpt lat="31.811751024797559" lon="35.06770902313292">
        <ele>611.35900000000004</ele>
        <time>2011-01-22T08:22:19Z</time>
      </trkpt>
      <trkpt lat="31.811946993693709" lon="35.067763002589345">
        <ele>608.27499999999998</ele>
        <time>2011-01-22T08:22:22Z</time>
      </trkpt>
      <trkpt lat="31.812115972861648" lon="35.06783802062273">
        <ele>605.01700000000005</ele>
        <time>2011-01-22T08:22:25Z</time>
      </trkpt>
      <trkpt lat="31.812274977564812" lon="35.06775202229619">
        <ele>602.31700000000001</ele>
        <time>2011-01-22T08:22:28Z</time>
      </trkpt>
      <trkpt lat="31.812326023355126" lon="35.06768798455596">
        <ele>601.89700000000005</ele>
        <time>2011-01-22T08:22:29Z</time>
      </trkpt>
      <trkpt lat="31.81267898529768" lon="35.067191021516919">
        <ele>596.61599999999999</ele>
        <time>2011-01-22T08:22:35Z</time>
      </trkpt>
      <trkpt lat="31.812925999984145" lon="35.066804029047489">
        <ele>592.81500000000005</ele>
        <time>2011-01-22T08:22:39Z</time>
      </trkpt>
      <trkpt lat="31.813120963051915" lon="35.066595990210772">
        <ele>590.76400000000001</ele>
        <time>2011-01-22T08:22:42Z</time>
      </trkpt>
      <trkpt lat="31.813330007717013" lon="35.066350987181067">
        <ele>587.98199999999997</ele>
        <time>2011-01-22T08:22:46Z</time>
      </trkpt>
      <trkpt lat="31.813358003273606" lon="35.066277980804443">
        <ele>587.49900000000002</ele>
        <time>2011-01-22T08:22:47Z</time>
      </trkpt>
      <trkpt lat="31.813507033511996" lon="35.066050998866558">
        <ele>585.25199999999995</ele>
        <time>2011-01-22T08:22:51Z</time>
      </trkpt>
      <trkpt lat="31.813741978257895" lon="35.065977992489934">
        <ele>584.21000000000004</ele>
        <time>2011-01-22T08:22:55Z</time>
      </trkpt>
      <trkpt lat="31.813916992396116" lon="35.066044041886926">
        <ele>583.56600000000003</ele>
        <time>2011-01-22T08:22:58Z</time>
      </trkpt>
      <trkpt lat="31.814068034291267" lon="35.066010011360049">
        <ele>582.47699999999998</ele>
        <time>2011-01-22T08:23:01Z</time>
      </trkpt>
      <trkpt lat="31.814158977940679" lon="35.065900962799788">
        <ele>580.51300000000003</ele>
        <time>2011-01-22T08:23:03Z</time>
      </trkpt>
      <trkpt lat="31.814357964321971" lon="35.06558102555573">
        <ele>577.23299999999995</ele>
        <time>2011-01-22T08:23:07Z</time>
      </trkpt>
      <trkpt lat="31.814400041475892" lon="35.065385978668928">
        <ele>576.38199999999995</ele>
        <time>2011-01-22T08:23:09Z</time>
      </trkpt>
      <trkpt lat="31.814423007890582" lon="35.065197972580791">
        <ele>575.85900000000004</ele>
        <time>2011-01-22T08:23:11Z</time>
      </trkpt>
      <trkpt lat="31.814454020932317" lon="35.064746020361781">
        <ele>570.55799999999999</ele>
        <time>2011-01-22T08:23:16Z</time>
      </trkpt>
      <trkpt lat="31.814438011497259" lon="35.06459497846663">
        <ele>568.88199999999995</ele>
        <time>2011-01-22T08:23:18Z</time>
      </trkpt>
      <trkpt lat="31.814390989020467" lon="35.064437985420227">
        <ele>566.73199999999997</ele>
        <time>2011-01-22T08:23:20Z</time>
      </trkpt>
      <trkpt lat="31.81441898457706" lon="35.064135985448956">
        <ele>562.36000000000001</ele>
        <time>2011-01-22T08:23:24Z</time>
      </trkpt>
      <trkpt lat="31.814580000936985" lon="35.063900034874678">
        <ele>557.73699999999997</ele>
        <time>2011-01-22T08:23:28Z</time>
      </trkpt>
      <trkpt lat="31.814625011757016" lon="35.063768019899726">
        <ele>555.35900000000004</ele>
        <time>2011-01-22T08:23:30Z</time>
      </trkpt>
      <trkpt lat="31.814724002033472" lon="35.063461996614933">
        <ele>550.75</ele>
        <time>2011-01-22T08:23:34Z</time>
      </trkpt>
      <trkpt lat="31.814816035330296" lon="35.063180029392242">
        <ele>546.87599999999998</ele>
        <time>2011-01-22T08:23:38Z</time>
      </trkpt>
      <trkpt lat="31.814927011728287" lon="35.062792031094432">
        <ele>542.64599999999996</ele>
        <time>2011-01-22T08:23:41Z</time>
      </trkpt>
      <trkpt lat="31.814974034205079" lon="35.062262965366244">
        <ele>537.39400000000001</ele>
        <time>2011-01-22T08:23:46Z</time>
      </trkpt>
      <trkpt lat="31.815060032531619" lon="35.061672963202">
        <ele>532.48800000000006</ele>
        <time>2011-01-22T08:23:51Z</time>
      </trkpt>
      <trkpt lat="31.815118035301566" lon="35.061422009021044">
        <ele>529.75099999999998</ele>
        <time>2011-01-22T08:23:53Z</time>
      </trkpt>
      <trkpt lat="31.815263964235783" lon="35.061021018773317">
        <ele>526.81600000000003</ele>
        <time>2011-01-22T08:23:57Z</time>
      </trkpt>
      <trkpt lat="31.815392961725593" lon="35.060636959969997">
        <ele>526.07799999999997</ele>
        <time>2011-01-22T08:24:01Z</time>
      </trkpt>
      <trkpt lat="31.815486000850797" lon="35.060277041047812">
        <ele>525.45000000000005</ele>
        <time>2011-01-22T08:24:05Z</time>
      </trkpt>
      <trkpt lat="31.815560013055801" lon="35.060021979734302">
        <ele>525.03899999999999</ele>
        <time>2011-01-22T08:24:08Z</time>
      </trkpt>
      <trkpt lat="31.815628996118903" lon="35.059648985043168">
        <ele>524.95000000000005</ele>
        <time>2011-01-22T08:24:13Z</time>
      </trkpt>
      <trkpt lat="31.815656991675496" lon="35.059514036402106">
        <ele>524.91099999999994</ele>
        <time>2011-01-22T08:24:15Z</time>
      </trkpt>
      <trkpt lat="31.815731003880501" lon="35.059181023389101">
        <ele>523.63599999999997</ele>
        <time>2011-01-22T08:24:20Z</time>
      </trkpt>
      <trkpt lat="31.815647017210722" lon="35.058873994275928">
        <ele>521.60299999999995</ele>
        <time>2011-01-22T08:24:24Z</time>
      </trkpt>
      <trkpt lat="31.815638970583677" lon="35.058418018743396">
        <ele>517.04399999999998</ele>
        <time>2011-01-22T08:24:29Z</time>
      </trkpt>
      <trkpt lat="31.815821025520563" lon="35.057797003537416">
        <ele>513.46799999999996</ele>
        <time>2011-01-22T08:24:35Z</time>
      </trkpt>
      <trkpt lat="31.81581499055028" lon="35.057660965248942">
        <ele>512.66700000000003</ele>
        <time>2011-01-22T08:24:37Z</time>
      </trkpt>
      <trkpt lat="31.815806021913886" lon="35.057458961382508">
        <ele>513.10400000000004</ele>
        <time>2011-01-22T08:24:41Z</time>
      </trkpt>
      <trkpt lat="31.815790012478828" lon="35.057401964440942">
        <ele>513.10400000000004</ele>
        <time>2011-01-22T08:24:43Z</time>
      </trkpt>
      <trkpt lat="31.815738966688514" lon="35.057217981666327">
        <ele>513.99599999999998</ele>
        <time>2011-01-22T08:24:45Z</time>
      </trkpt>
      <trkpt lat="31.815698985010386" lon="35.056909024715424">
        <ele>514.947</ele>
        <time>2011-01-22T08:24:50Z</time>
      </trkpt>
      <trkpt lat="31.815698985010386" lon="35.056722024455667">
        <ele>515.85599999999999</ele>
        <time>2011-01-22T08:24:53Z</time>
      </trkpt>
      <trkpt lat="31.815740978345275" lon="35.056465035304427">
        <ele>516.37800000000004</ele>
        <time>2011-01-22T08:24:57Z</time>
      </trkpt>
      <trkpt lat="31.815783977508545" lon="35.056087011471391">
        <ele>516.59900000000005</ele>
        <time>2011-01-22T08:25:03Z</time>
      </trkpt>
      <trkpt lat="31.815755981951952" lon="35.055878972634673">
        <ele>517.51599999999996</ele>
        <time>2011-01-22T08:25:07Z</time>
      </trkpt>
      <trkpt lat="31.815743995830417" lon="35.055747963488102">
        <ele>518.14999999999998</ele>
        <time>2011-01-22T08:25:12Z</time>
      </trkpt>
      <trkpt lat="31.815751036629081" lon="35.055609997361898">
        <ele>519.32500000000005</ele>
        <time>2011-01-22T08:25:18Z</time>
      </trkpt>
      <trkpt lat="31.815757993608713" lon="35.055489968508482">
        <ele>520.97900000000004</ele>
        <time>2011-01-22T08:25:24Z</time>
      </trkpt>
      <trkpt lat="31.8157500308007" lon="35.055363988503814">
        <ele>521.70299999999997</ele>
        <time>2011-01-22T08:25:30Z</time>
      </trkpt>
      <trkpt lat="31.815704014152288" lon="35.055235996842384">
        <ele>523.55999999999995</ele>
        <time>2011-01-22T08:25:37Z</time>
      </trkpt>
      <trkpt lat="31.815654980018735" lon="35.055098030716181">
        <ele>524.41899999999998</ele>
        <time>2011-01-22T08:25:44Z</time>
      </trkpt>
      <trkpt lat="31.815584991127253" lon="35.054956963285804">
        <ele>525.89800000000002</ele>
        <time>2011-01-22T08:25:52Z</time>
      </trkpt>
      <trkpt lat="31.81551500223577" lon="35.05481799133122">
        <ele>525.79999999999995</ele>
        <time>2011-01-22T08:25:57Z</time>
      </trkpt>
      <trkpt lat="31.815435038879514" lon="35.054637026041746">
        <ele>526.13</ele>
        <time>2011-01-22T08:26:03Z</time>
      </trkpt>
      <trkpt lat="31.815431015565991" lon="35.054507022723556">
        <ele>528.29100000000005</ele>
        <time>2011-01-22T08:26:09Z</time>
      </trkpt>
      <trkpt lat="31.815475020557642" lon="35.054404009133577">
        <ele>529.73299999999995</ele>
        <time>2011-01-22T08:26:16Z</time>
      </trkpt>
      <trkpt lat="31.815525982528925" lon="35.054369978606701">
        <ele>531.25</ele>
        <time>2011-01-22T08:26:21Z</time>
      </trkpt>
      <trkpt lat="31.815525982528925" lon="35.054369978606701">
        <ele>531.26900000000001</ele>
        <time>2011-01-22T08:26:22Z</time>
      </trkpt>
      <trkpt lat="31.815582979470491" lon="35.054393028840423">
        <ele>531.99400000000003</ele>
        <time>2011-01-22T08:26:42Z</time>
      </trkpt>
      <trkpt lat="31.81566596031189" lon="35.054426975548267">
        <ele>533.20100000000002</ele>
        <time>2011-01-22T08:26:47Z</time>
      </trkpt>
      <trkpt lat="31.815768973901868" lon="35.054468968883157">
        <ele>534.06100000000004</ele>
        <time>2011-01-22T08:26:53Z</time>
      </trkpt>
      <trkpt lat="31.815842986106873" lon="35.054499981924891">
        <ele>534.88800000000003</ele>
        <time>2011-01-22T08:26:58Z</time>
      </trkpt>
      <trkpt lat="31.8159210216254" lon="35.054490007460117">
        <ele>536.226</ele>
        <time>2011-01-22T08:27:03Z</time>
      </trkpt>
      <trkpt lat="31.815990004688501" lon="35.054399985820055">
        <ele>537.04200000000003</ele>
        <time>2011-01-22T08:27:09Z</time>
      </trkpt>
      <trkpt lat="31.816000984981656" lon="35.054382970556617">
        <ele>537.19299999999998</ele>
        <time>2011-01-22T08:27:10Z</time>
      </trkpt>
      <trkpt lat="31.816057981923223" lon="35.054262019693851">
        <ele>538.20799999999997</ele>
        <time>2011-01-22T08:27:17Z</time>
      </trkpt>
      <trkpt lat="31.816088994964957" lon="35.054148025810719">
        <ele>538.80499999999995</ele>
        <time>2011-01-22T08:27:22Z</time>
      </trkpt>
      <trkpt lat="31.816113973036408" lon="35.05410703830421">
        <ele>538.78700000000003</ele>
        <time>2011-01-22T08:27:24Z</time>
      </trkpt>
      <trkpt lat="31.816212041303515" lon="35.053943004459143">
        <ele>538.63800000000003</ele>
        <time>2011-01-22T08:27:33Z</time>
      </trkpt>
      <trkpt lat="31.816250011324883" lon="35.053863963112235">
        <ele>538.38900000000001</ele>
        <time>2011-01-22T08:27:39Z</time>
      </trkpt>
      <trkpt lat="31.816250011324883" lon="35.053863963112235">
        <ele>538.26700000000005</ele>
        <time>2011-01-22T08:27:40Z</time>
      </trkpt>
      <trkpt lat="31.816313965246081" lon="35.053729014471173">
        <ele>536.88999999999999</ele>
        <time>2011-01-22T08:28:31Z</time>
      </trkpt>
      <trkpt lat="31.816313965246081" lon="35.053729014471173">
        <ele>536.51599999999996</ele>
        <time>2011-01-22T08:28:32Z</time>
      </trkpt>
      <trkpt lat="31.816346989944577" lon="35.053660031408072">
        <ele>535.923</ele>
        <time>2011-01-22T08:28:47Z</time>
      </trkpt>
      <trkpt lat="31.816412033513188" lon="35.053523993119597">
        <ele>535.11500000000001</ele>
        <time>2011-01-22T08:28:51Z</time>
      </trkpt>
      <trkpt lat="31.816427959129214" lon="35.05331302061677">
        <ele>533.08799999999997</ele>
        <time>2011-01-22T08:28:56Z</time>
      </trkpt>
      <trkpt lat="31.816427959129214" lon="35.053211012855172">
        <ele>532.35199999999998</ele>
        <time>2011-01-22T08:28:58Z</time>
      </trkpt>
      <trkpt lat="31.816518986597657" lon="35.053038010373712">
        <ele>530.33600000000001</ele>
        <time>2011-01-22T08:29:02Z</time>
      </trkpt>
      <trkpt lat="31.816595010459423" lon="35.05286400206387">
        <ele>528.22000000000003</ele>
        <time>2011-01-22T08:29:05Z</time>
      </trkpt>
      <trkpt lat="31.816701963543892" lon="35.052618999034166">
        <ele>525.55100000000004</ele>
        <time>2011-01-22T08:29:09Z</time>
      </trkpt>
      <trkpt lat="31.816828027367592" lon="35.052332002669573">
        <ele>520.61900000000003</ele>
        <time>2011-01-22T08:29:14Z</time>
      </trkpt>
      <trkpt lat="31.816958030685782" lon="35.051984991878271">
        <ele>515.85400000000004</ele>
        <time>2011-01-22T08:29:20Z</time>
      </trkpt>
      <trkpt lat="31.816988959908485" lon="35.051931012421846">
        <ele>515.05899999999997</ele>
        <time>2011-01-22T08:29:21Z</time>
      </trkpt>
      <trkpt lat="31.81725500151515" lon="35.051559023559093">
        <ele>510.74900000000002</ele>
        <time>2011-01-22T08:29:28Z</time>
      </trkpt>
      <trkpt lat="31.817379975691438" lon="35.051308991387486">
        <ele>509.41500000000002</ele>
        <time>2011-01-22T08:29:33Z</time>
      </trkpt>
      <trkpt lat="31.817442001774907" lon="35.051108999177814">
        <ele>508.37099999999998</ele>
        <time>2011-01-22T08:29:37Z</time>
      </trkpt>
      <trkpt lat="31.817454993724823" lon="35.051062982529402">
        <ele>507.90300000000002</ele>
        <time>2011-01-22T08:29:38Z</time>
      </trkpt>
      <trkpt lat="31.817494975402951" lon="35.050926022231579">
        <ele>506.57499999999999</ele>
        <time>2011-01-22T08:29:41Z</time>
      </trkpt>
      <trkpt lat="31.817551972344518" lon="35.050724018365145">
        <ele>505.76299999999998</ele>
        <time>2011-01-22T08:29:45Z</time>
      </trkpt>
      <trkpt lat="31.817560018971562" lon="35.050558978691697">
        <ele>504.291</ele>
        <time>2011-01-22T08:29:48Z</time>
      </trkpt>
      <trkpt lat="31.817549960687757" lon="35.050339959561825">
        <ele>500.70100000000002</ele>
        <time>2011-01-22T08:29:53Z</time>
      </trkpt>
      <trkpt lat="31.817544009536505" lon="35.050221020355821">
        <ele>499.70999999999998</ele>
        <time>2011-01-22T08:29:56Z</time>
      </trkpt>
      <trkpt lat="31.817569993436337" lon="35.050050029531121">
        <ele>498.36200000000002</ele>
        <time>2011-01-22T08:29:59Z</time>
      </trkpt>
      <trkpt lat="31.817580973729491" lon="35.04998498596251">
        <ele>498.03899999999999</ele>
        <time>2011-01-22T08:30:00Z</time>
      </trkpt>
      <trkpt lat="31.817630007863045" lon="35.049783987924457">
        <ele>497.06599999999997</ele>
        <time>2011-01-22T08:30:03Z</time>
      </trkpt>
      <trkpt lat="31.817703014239669" lon="35.049505960196257">
        <ele>495.495</ele>
        <time>2011-01-22T08:30:07Z</time>
      </trkpt>
      <trkpt lat="31.81779102422297" lon="35.049172025173903">
        <ele>494.13900000000001</ele>
        <time>2011-01-22T08:30:12Z</time>
      </trkpt>
      <trkpt lat="31.817836035043001" lon="35.049033975228667">
        <ele>493.28100000000001</ele>
        <time>2011-01-22T08:30:14Z</time>
      </trkpt>
      <trkpt lat="31.817917004227638" lon="35.048799030482769">
        <ele>490.98599999999999</ele>
        <time>2011-01-22T08:30:18Z</time>
      </trkpt>
      <trkpt lat="31.817929996177554" lon="35.04876097664237">
        <ele>490.38299999999998</ele>
        <time>2011-01-22T08:30:19Z</time>
      </trkpt>
      <trkpt lat="31.817996967583895" lon="35.048568025231361">
        <ele>488.38200000000001</ele>
        <time>2011-01-22T08:30:23Z</time>
      </trkpt>
      <trkpt lat="31.818026974797249" lon="35.048446990549564">
        <ele>487.78500000000003</ele>
        <time>2011-01-22T08:30:25Z</time>
      </trkpt>
      <trkpt lat="31.818105010315776" lon="35.048078019171953">
        <ele>485.26600000000002</ele>
        <time>2011-01-22T08:30:31Z</time>
      </trkpt>
      <trkpt lat="31.818133005872369" lon="35.047967964783311">
        <ele>484.40499999999997</ele>
        <time>2011-01-22T08:30:33Z</time>
      </trkpt>
      <trkpt lat="31.818182040005922" lon="35.047779958695173">
        <ele>482.89400000000001</ele>
        <time>2011-01-22T08:30:37Z</time>
      </trkpt>
      <trkpt lat="31.818276001140475" lon="35.047507965937257">
        <ele>481.03699999999998</ele>
        <time>2011-01-22T08:30:42Z</time>
      </trkpt>
      <trkpt lat="31.818352025002241" lon="35.047217030078173">
        <ele>478.11200000000002</ele>
        <time>2011-01-22T08:30:47Z</time>
      </trkpt>
      <trkpt lat="31.818383960053325" lon="35.047151986509562">
        <ele>477.625</ele>
        <time>2011-01-22T08:30:48Z</time>
      </trkpt>
      <trkpt lat="31.818727031350136" lon="35.046647982671857">
        <ele>473.625</ele>
        <time>2011-01-22T08:30:56Z</time>
      </trkpt>
      <trkpt lat="31.818862985819578" lon="35.046393005177379">
        <ele>473.28399999999999</ele>
        <time>2011-01-22T08:30:59Z</time>
      </trkpt>
      <trkpt lat="31.818863991647959" lon="35.046151019632816">
        <ele>472.99900000000002</ele>
        <time>2011-01-22T08:31:03Z</time>
      </trkpt>
      <trkpt lat="31.818853011354804" lon="35.045889001339674">
        <ele>472.86900000000003</ele>
        <time>2011-01-22T08:31:09Z</time>
      </trkpt>
      <trkpt lat="31.818853011354804" lon="35.045889001339674">
        <ele>472.89100000000002</ele>
        <time>2011-01-22T08:31:11Z</time>
      </trkpt>
      <trkpt lat="31.818838007748127" lon="35.04575002938509">
        <ele>472.86200000000002</ele>
        <time>2011-01-22T08:31:17Z</time>
      </trkpt>
      <trkpt lat="31.818787967786193" lon="35.045668976381421">
        <ele>473.029</ele>
        <time>2011-01-22T08:31:23Z</time>
      </trkpt>
      <trkpt lat="31.818812023848295" lon="35.045503014698625">
        <ele>473.51100000000002</ele>
        <time>2011-01-22T08:31:29Z</time>
      </trkpt>
      <trkpt lat="31.818904979154468" lon="35.045316014438868">
        <ele>473.67500000000001</ele>
        <time>2011-01-22T08:31:36Z</time>
      </trkpt>
      <trkpt lat="31.818987959995866" lon="35.045094983652234">
        <ele>474.017</ele>
        <time>2011-01-22T08:31:42Z</time>
      </trkpt>
      <trkpt lat="31.818998018279672" lon="35.045012002810836">
        <ele>473.90699999999998</ele>
        <time>2011-01-22T08:31:44Z</time>
      </trkpt>
      <trkpt lat="31.818979997187853" lon="35.044921981170774">
        <ele>473.65699999999998</ele>
        <time>2011-01-22T08:31:46Z</time>
      </trkpt>
      <trkpt lat="31.818948984146118" lon="35.044764988124371">
        <ele>472.779</ele>
        <time>2011-01-22T08:31:49Z</time>
      </trkpt>
      <trkpt lat="31.81893004104495" lon="35.044515039771795">
        <ele>471.964</ele>
        <time>2011-01-22T08:31:53Z</time>
      </trkpt>
      <trkpt lat="31.81901503354311" lon="35.044216979295015">
        <ele>470.86599999999999</ele>
        <time>2011-01-22T08:31:58Z</time>
      </trkpt>
      <trkpt lat="31.819025008007884" lon="35.044084964320064">
        <ele>470.32799999999997</ele>
        <time>2011-01-22T08:32:00Z</time>
      </trkpt>
      <trkpt lat="31.819044034928083" lon="35.043813977390528">
        <ele>469.56700000000001</ele>
        <time>2011-01-22T08:32:04Z</time>
      </trkpt>
      <trkpt lat="31.819068007171154" lon="35.043697971850634">
        <ele>469.16199999999998</ele>
        <time>2011-01-22T08:32:09Z</time>
      </trkpt>
      <trkpt lat="31.819121986627579" lon="35.043374011293054">
        <ele>467.98899999999998</ele>
        <time>2011-01-22T08:32:13Z</time>
      </trkpt>
      <trkpt lat="31.819086028262973" lon="35.043177036568522">
        <ele>466.09300000000002</ele>
        <time>2011-01-22T08:32:15Z</time>
      </trkpt>
      <trkpt lat="31.819031964987516" lon="35.042879981920123">
        <ele>463.35500000000002</ele>
        <time>2011-01-22T08:32:20Z</time>
      </trkpt>
      <trkpt lat="31.81908099912107" lon="35.042709996923804">
        <ele>461.25799999999998</ele>
        <time>2011-01-22T08:32:24Z</time>
      </trkpt>
      <trkpt lat="31.819152999669313" lon="35.042646965011954">
        <ele>459.96499999999997</ele>
        <time>2011-01-22T08:32:26Z</time>
      </trkpt>
      <trkpt lat="31.819302029907703" lon="35.042531965300441">
        <ele>456.50599999999997</ele>
        <time>2011-01-22T08:32:30Z</time>
      </trkpt>
      <trkpt lat="31.819497998803854" lon="35.042380001395941">
        <ele>451.94</ele>
        <time>2011-01-22T08:32:36Z</time>
      </trkpt>
      <trkpt lat="31.81957402266562" lon="35.04229199141264">
        <ele>450.01299999999998</ele>
        <time>2011-01-22T08:32:39Z</time>
      </trkpt>
      <trkpt lat="31.819587014615536" lon="35.042253015562892">
        <ele>449.154</ele>
        <time>2011-01-22T08:32:40Z</time>
      </trkpt>
      <trkpt lat="31.819624984636903" lon="35.042030978947878">
        <ele>446.47500000000002</ele>
        <time>2011-01-22T08:32:46Z</time>
      </trkpt>
      <trkpt lat="31.819636970758438" lon="35.042009018361568">
        <ele>446.178</ele>
        <time>2011-01-22T08:32:47Z</time>
      </trkpt>
      <trkpt lat="31.819744007661939" lon="35.041952021420002">
        <ele>442.86700000000002</ele>
        <time>2011-01-22T08:32:52Z</time>
      </trkpt>
      <trkpt lat="31.819873005151749" lon="35.041894018650055">
        <ele>440.69400000000002</ele>
        <time>2011-01-22T08:32:55Z</time>
      </trkpt>
      <trkpt lat="31.81985498405993" lon="35.041848002001643">
        <ele>440.69400000000002</ele>
        <time>2011-01-22T08:33:00Z</time>
      </trkpt>
      <trkpt lat="31.820029998198152" lon="35.041705006733537">
        <ele>439.56900000000002</ele>
        <time>2011-01-22T08:33:01Z</time>
      </trkpt>
      <trkpt lat="31.820094035938382" lon="35.041594030335546">
        <ele>434.99700000000001</ele>
        <time>2011-01-22T08:33:03Z</time>
      </trkpt>
      <trkpt lat="31.82026200927794" lon="35.041248025372624">
        <ele>430.41300000000001</ele>
        <time>2011-01-22T08:33:10Z</time>
      </trkpt>
      <trkpt lat="31.820312971249223" lon="35.041080974042416">
        <ele>428.35199999999998</ele>
        <time>2011-01-22T08:33:14Z</time>
      </trkpt>
      <trkpt lat="31.82034901343286" lon="35.040961029008031">
        <ele>426.27699999999999</ele>
        <time>2011-01-22T08:33:17Z</time>
      </trkpt>
      <trkpt lat="31.820353958755732" lon="35.040789032354951">
        <ele>423.60300000000001</ele>
        <time>2011-01-22T08:33:21Z</time>
      </trkpt>
      <trkpt lat="31.82032898068428" lon="35.040692975744605">
        <ele>422.64600000000002</ele>
        <time>2011-01-22T08:33:23Z</time>
      </trkpt>
      <trkpt lat="31.820256980136037" lon="35.040445039048791">
        <ele>420.47899999999998</ele>
        <time>2011-01-22T08:33:27Z</time>
      </trkpt>
      <trkpt lat="31.820160001516342" lon="35.040283016860485">
        <ele>418.50900000000001</ele>
        <time>2011-01-22T08:33:31Z</time>
      </trkpt>
      <trkpt lat="31.820138962939382" lon="35.040247980505228">
        <ele>418.10199999999998</ele>
        <time>2011-01-22T08:33:32Z</time>
      </trkpt>
      <trkpt lat="31.820066040381789" lon="35.040077995508909">
        <ele>415.99700000000001</ele>
        <time>2011-01-22T08:33:36Z</time>
      </trkpt>
      <trkpt lat="31.820034021511674" lon="35.039850007742643">
        <ele>413.57799999999997</ele>
        <time>2011-01-22T08:33:40Z</time>
      </trkpt>
      <trkpt lat="31.819922961294651" lon="35.039716986939311">
        <ele>411.41899999999998</ele>
        <time>2011-01-22T08:33:43Z</time>
      </trkpt>
      <trkpt lat="31.819909969344735" lon="35.039547001942992">
        <ele>409.64400000000001</ele>
        <time>2011-01-22T08:33:47Z</time>
      </trkpt>
      <trkpt lat="31.819960009306669" lon="35.039442982524633">
        <ele>408.89800000000002</ele>
        <time>2011-01-22T08:33:49Z</time>
      </trkpt>
      <trkpt lat="31.820086995139718" lon="35.039298981428146">
        <ele>406.83100000000002</ele>
        <time>2011-01-22T08:33:53Z</time>
      </trkpt>
      <trkpt lat="31.820099987089634" lon="35.039266040548682">
        <ele>406.62</ele>
        <time>2011-01-22T08:33:54Z</time>
      </trkpt>
      <trkpt lat="31.820062017068267" lon="35.038936967030168">
        <ele>403.59199999999998</ele>
        <time>2011-01-22T08:34:01Z</time>
      </trkpt>
      <trkpt lat="31.820051958784461" lon="35.03898398950696">
        <ele>403.59199999999998</ele>
        <time>2011-01-22T08:34:05Z</time>
      </trkpt>
      <trkpt lat="31.819968977943063" lon="35.038615018129349">
        <ele>399.22800000000001</ele>
        <time>2011-01-22T08:34:09Z</time>
      </trkpt>
      <trkpt lat="31.819950034841895" lon="35.038408990949392">
        <ele>397.40300000000002</ele>
        <time>2011-01-22T08:34:17Z</time>
      </trkpt>
      <trkpt lat="31.8200050201267" lon="35.038090981543064">
        <ele>393.524</ele>
        <time>2011-01-22T08:34:21Z</time>
      </trkpt>
      <trkpt lat="31.820051958784461" lon="35.037821000441909">
        <ele>391.31</ele>
        <time>2011-01-22T08:34:27Z</time>
      </trkpt>
      <trkpt lat="31.820097975432873" lon="35.037666019052267">
        <ele>390.58300000000003</ele>
        <time>2011-01-22T08:34:30Z</time>
      </trkpt>
      <trkpt lat="31.820152038708329" lon="35.037494022399187">
        <ele>389.60199999999998</ele>
        <time>2011-01-22T08:34:33Z</time>
      </trkpt>
      <trkpt lat="31.820196965709329" lon="35.037296041846275">
        <ele>387.84100000000001</ele>
        <time>2011-01-22T08:34:37Z</time>
      </trkpt>
      <trkpt lat="31.820226972922683" lon="35.0370719935745">
        <ele>385.67500000000001</ele>
        <time>2011-01-22T08:34:43Z</time>
      </trkpt>
      <trkpt lat="31.820253040641546" lon="35.036895973607898">
        <ele>383.94600000000003</ele>
        <time>2011-01-22T08:34:49Z</time>
      </trkpt>
      <trkpt lat="31.820278018712997" lon="35.036772005259991">
        <ele>383.67399999999998</ele>
        <time>2011-01-22T08:34:53Z</time>
      </trkpt>
      <trkpt lat="31.820356976240873" lon="35.03668399527669">
        <ele>382.245</ele>
        <time>2011-01-22T08:34:57Z</time>
      </trkpt>
      <trkpt lat="31.820573983713984" lon="35.036596991121769">
        <ele>380.37799999999999</ele>
        <time>2011-01-22T08:35:02Z</time>
      </trkpt>
      <trkpt lat="31.820654030889273" lon="35.03640596754849">
        <ele>379.15100000000001</ele>
        <time>2011-01-22T08:35:07Z</time>
      </trkpt>
      <trkpt lat="31.820740029215813" lon="35.036275964230299">
        <ele>377.47699999999998</ele>
        <time>2011-01-22T08:35:11Z</time>
      </trkpt>
      <trkpt lat="31.82075503282249" lon="35.036264983937144">
        <ele>377.233</ele>
        <time>2011-01-22T08:35:12Z</time>
      </trkpt>
      <trkpt lat="31.820781016722322" lon="35.036203963682055">
        <ele>376.87400000000002</ele>
        <time>2011-01-22T08:35:14Z</time>
      </trkpt>
      <trkpt lat="31.820789985358715" lon="35.036113020032644">
        <ele>376.37200000000001</ele>
        <time>2011-01-22T08:35:18Z</time>
      </trkpt>
      <trkpt lat="31.820674985647202" lon="35.035981005057693">
        <ele>375.79000000000002</ele>
        <time>2011-01-22T08:35:23Z</time>
      </trkpt>
      <trkpt lat="31.820644978433847" lon="35.035916967317462">
        <ele>375.54899999999998</ele>
        <time>2011-01-22T08:35:25Z</time>
      </trkpt>
      <trkpt lat="31.820762995630503" lon="35.035723010078073">
        <ele>375.512</ele>
        <time>2011-01-22T08:35:31Z</time>
      </trkpt>
      <trkpt lat="31.821191981434822" lon="35.035228980705142">
        <ele>375.512</ele>
        <time>2011-01-22T08:35:35Z</time>
      </trkpt>
      <trkpt lat="31.821191981434822" lon="35.035228980705142">
        <ele>375.512</ele>
        <time>2011-01-22T08:35:37Z</time>
      </trkpt>
      <trkpt lat="31.820762995630503" lon="35.035723010078073">
        <ele>374.39499999999998</ele>
        <time>2011-01-22T08:36:18Z</time>
      </trkpt>
      <trkpt lat="31.820762995630503" lon="35.035723010078073">
        <ele>374.39499999999998</ele>
        <time>2011-01-22T08:36:19Z</time>
      </trkpt>
      <trkpt lat="31.820999030023813" lon="35.035650003701448">
        <ele>373.68099999999998</ele>
        <time>2011-01-22T08:36:24Z</time>
      </trkpt>
      <trkpt lat="31.821179995313287" lon="35.035498039796948">
        <ele>372.209</ele>
        <time>2011-01-22T08:36:29Z</time>
      </trkpt>
      <trkpt lat="31.821222994476557" lon="35.035455040633678">
        <ele>371.935</ele>
        <time>2011-01-22T08:36:30Z</time>
      </trkpt>
      <trkpt lat="31.821374958381057" lon="35.035314979031682">
        <ele>371.375</ele>
        <time>2011-01-22T08:36:33Z</time>
      </trkpt>
      <trkpt lat="31.821706965565681" lon="35.035054972395301">
        <ele>369.28199999999998</ele>
        <time>2011-01-22T08:36:39Z</time>
      </trkpt>
      <trkpt lat="31.82176798582077" lon="35.03500702790916">
        <ele>369.07100000000003</ele>
        <time>2011-01-22T08:36:40Z</time>
      </trkpt>
      <trkpt lat="31.822213986888528" lon="35.034720031544566">
        <ele>364.339</ele>
        <time>2011-01-22T08:36:46Z</time>
      </trkpt>
      <trkpt lat="31.822660993784666" lon="35.034477040171623">
        <ele>360.05399999999997</ele>
        <time>2011-01-22T08:36:51Z</time>
      </trkpt>
      <trkpt lat="31.822845982387662" lon="35.034417025744915">
        <ele>357.97899999999998</ele>
        <time>2011-01-22T08:36:53Z</time>
      </trkpt>
      <trkpt lat="31.82318695820868" lon="35.034423982724547">
        <ele>354.721</ele>
        <time>2011-01-22T08:36:57Z</time>
      </trkpt>
      <trkpt lat="31.823731027543545" lon="35.03451400436461">
        <ele>351.34699999999998</ele>
        <time>2011-01-22T08:37:03Z</time>
      </trkpt>
      <trkpt lat="31.824342990294099" lon="35.034614000469446">
        <ele>345.911</ele>
        <time>2011-01-22T08:37:09Z</time>
      </trkpt>
      <trkpt lat="31.824687989428639" lon="35.034670997411013">
        <ele>342.71499999999997</ele>
        <time>2011-01-22T08:37:12Z</time>
      </trkpt>
      <trkpt lat="31.825270028784871" lon="35.034820027649403">
        <ele>337.48899999999998</ele>
        <time>2011-01-22T08:37:17Z</time>
      </trkpt>
      <trkpt lat="31.825379999354482" lon="35.034848023205996">
        <ele>335.99200000000002</ele>
        <time>2011-01-22T08:37:19Z</time>
      </trkpt>
      <trkpt lat="31.825697002932429" lon="35.034928992390633">
        <ele>333.05799999999999</ele>
        <time>2011-01-22T08:37:21Z</time>
      </trkpt>
      <trkpt lat="31.826263032853603" lon="35.034926980733871">
        <ele>328.005</ele>
        <time>2011-01-22T08:37:26Z</time>
      </trkpt>
      <trkpt lat="31.826675003394485" lon="35.034866966307163">
        <ele>324.94200000000001</ele>
        <time>2011-01-22T08:37:30Z</time>
      </trkpt>
      <trkpt lat="31.826889999210835" lon="35.034754984080791">
        <ele>322.88099999999997</ele>
        <time>2011-01-22T08:37:34Z</time>
      </trkpt>
      <trkpt lat="31.826889999210835" lon="35.034754984080791">
        <ele>322.88099999999997</ele>
        <time>2011-01-22T08:37:36Z</time>
      </trkpt>
      <trkpt lat="31.827078005298972" lon="35.034336978569627">
        <ele>320.94299999999998</ele>
        <time>2011-01-22T08:37:41Z</time>
      </trkpt>
      <trkpt lat="31.827270034700632" lon="35.033816965296865">
        <ele>318.62</ele>
        <time>2011-01-22T08:37:48Z</time>
      </trkpt>
      <trkpt lat="31.827340023592114" lon="35.033303992822766">
        <ele>316.435</ele>
        <time>2011-01-22T08:37:54Z</time>
      </trkpt>
      <trkpt lat="31.827360978350043" lon="35.032928986474872">
        <ele>314.08300000000003</ele>
        <time>2011-01-22T08:37:58Z</time>
      </trkpt>
      <trkpt lat="31.827371036633849" lon="35.032734023407102">
        <ele>313.55000000000001</ele>
        <time>2011-01-22T08:38:00Z</time>
      </trkpt>
      <trkpt lat="31.827343041077256" lon="35.032432023435831">
        <ele>312.245</ele>
        <time>2011-01-22T08:38:03Z</time>
      </trkpt>
      <trkpt lat="31.827325019985437" lon="35.032232031226158">
        <ele>312.24700000000001</ele>
        <time>2011-01-22T08:38:05Z</time>
      </trkpt>
      <trkpt lat="31.827315967530012" lon="35.032130023464561">
        <ele>311.76600000000002</ele>
        <time>2011-01-22T08:38:06Z</time>
      </trkpt>
      <trkpt lat="31.827287971973419" lon="35.031824000179768">
        <ele>310.38799999999998</ele>
        <time>2011-01-22T08:38:09Z</time>
      </trkpt>
      <trkpt lat="31.827263999730349" lon="35.031337011605501">
        <ele>308.27999999999997</ele>
        <time>2011-01-22T08:38:14Z</time>
      </trkpt>
      <trkpt lat="31.827263999730349" lon="35.031246989965439">
        <ele>307.93200000000002</ele>
        <time>2011-01-22T08:38:15Z</time>
      </trkpt>
      <trkpt lat="31.827263999730349" lon="35.031009027734399">
        <ele>306.39400000000001</ele>
        <time>2011-01-22T08:38:19Z</time>
      </trkpt>
      <trkpt lat="31.827273974195123" lon="35.030957981944084">
        <ele>305.55399999999997</ele>
        <time>2011-01-22T08:38:23Z</time>
      </trkpt>
      <trkpt lat="31.827363995835185" lon="35.03094800747931">
        <ele>305.721</ele>
        <time>2011-01-22T08:38:26Z</time>
      </trkpt>
      <trkpt lat="31.827448988333344" lon="35.030938033014536">
        <ele>306.113</ele>
        <time>2011-01-22T08:38:32Z</time>
      </trkpt>
      <trkpt lat="31.827513026073575" lon="35.030935015529394">
        <ele>306.37700000000001</ele>
        <time>2011-01-22T08:38:37Z</time>
      </trkpt>
      <trkpt lat="31.827657027170062" lon="35.030926968902349">
        <ele>306.76499999999999</ele>
        <time>2011-01-22T08:38:42Z</time>
      </trkpt>
      <trkpt lat="31.827800022438169" lon="35.030920011922717">
        <ele>307.45299999999997</ele>
        <time>2011-01-22T08:38:47Z</time>
      </trkpt>
      <trkpt lat="31.827921979129314" lon="35.030912971124053">
        <ele>308.19200000000001</ele>
        <time>2011-01-22T08:38:51Z</time>
      </trkpt>
      <trkpt lat="31.828172011300921" lon="35.030900985002518">
        <ele>309.66500000000002</ele>
        <time>2011-01-22T08:38:59Z</time>
      </trkpt>
      <trkpt lat="31.828287011012435" lon="35.030895033851266">
        <ele>310.40800000000002</ele>
        <time>2011-01-22T08:39:04Z</time>
      </trkpt>
      <trkpt lat="31.82851298712194" lon="35.030882963910699">
        <ele>311.99099999999999</ele>
        <time>2011-01-22T08:39:14Z</time>
      </trkpt>
      <trkpt lat="31.828675009310246" lon="35.030875001102686">
        <ele>312.97300000000001</ele>
        <time>2011-01-22T08:39:21Z</time>
      </trkpt>
      <trkpt lat="31.828999975696206" lon="35.030856980010867">
        <ele>315.43799999999999</ele>
        <time>2011-01-22T08:39:32Z</time>
      </trkpt>
      <trkpt lat="31.829190999269485" lon="35.030871983617544">
        <ele>316.584</ele>
        <time>2011-01-22T08:39:39Z</time>
      </trkpt>
      <trkpt lat="31.829396020621061" lon="35.030982038006186">
        <ele>318.173</ele>
        <time>2011-01-22T08:39:48Z</time>
      </trkpt>
      <trkpt lat="31.82965200394392" lon="35.031155040487647">
        <ele>319.66399999999999</ele>
        <time>2011-01-22T08:39:59Z</time>
      </trkpt>
      <trkpt lat="31.829894995316863" lon="35.031336005777121">
        <ele>321.22800000000001</ele>
        <time>2011-01-22T08:40:09Z</time>
      </trkpt>
      <trkpt lat="31.83016799390316" lon="35.031538009643555">
        <ele>323.09699999999998</ele>
        <time>2011-01-22T08:40:20Z</time>
      </trkpt>
      <trkpt lat="31.830330016091466" lon="35.03165896050632">
        <ele>324.35899999999998</ele>
        <time>2011-01-22T08:40:27Z</time>
      </trkpt>
      <trkpt lat="31.830579964444041" lon="35.031845038756728">
        <ele>326.39299999999997</ele>
        <time>2011-01-22T08:40:38Z</time>
      </trkpt>
      <trkpt lat="31.830777022987604" lon="35.031989961862564">
        <ele>328.07100000000003</ele>
        <time>2011-01-22T08:40:47Z</time>
      </trkpt>
      <trkpt lat="31.830853968858719" lon="35.032046958804131">
        <ele>328.48899999999998</ele>
        <time>2011-01-22T08:40:51Z</time>
      </trkpt>
      <trkpt lat="31.831019008532166" lon="35.032032039016485">
        <ele>328.92399999999998</ele>
        <time>2011-01-22T08:40:57Z</time>
      </trkpt>
      <trkpt lat="31.831019008532166" lon="35.032032039016485">
        <ele>329.44299999999998</ele>
        <time>2011-01-22T08:41:02Z</time>
      </trkpt>
      <trkpt lat="31.831019008532166" lon="35.032032039016485">
        <ele>329.399</ele>
        <time>2011-01-22T08:41:03Z</time>
      </trkpt>
      <trkpt lat="31.831021020188928" lon="35.032044025138021">
        <ele>329.83699999999999</ele>
        <time>2011-01-22T08:41:10Z</time>
      </trkpt>
      <trkpt lat="31.831096038222313" lon="35.031898012384772">
        <ele>330.39800000000002</ele>
        <time>2011-01-22T08:41:17Z</time>
      </trkpt>
      <trkpt lat="31.831174995750189" lon="35.031672958284616">
        <ele>330.73700000000002</ele>
        <time>2011-01-22T08:41:25Z</time>
      </trkpt>
      <trkpt lat="31.831191005185246" lon="35.031460979953408">
        <ele>331.11799999999999</ele>
        <time>2011-01-22T08:41:32Z</time>
      </trkpt>
      <trkpt lat="31.831127973273396" lon="35.031204996630549">
        <ele>331.93099999999998</ele>
        <time>2011-01-22T08:41:40Z</time>
      </trkpt>
      <trkpt lat="31.831270968541503" lon="35.030683977529407">
        <ele>332.42000000000002</ele>
        <time>2011-01-22T08:41:51Z</time>
      </trkpt>
      <trkpt lat="31.831230986863375" lon="35.030593033879995">
        <ele>332.93700000000001</ele>
        <time>2011-01-22T08:41:58Z</time>
      </trkpt>
      <trkpt lat="31.831252025440335" lon="35.030641984194517">
        <ele>332.99099999999999</ele>
        <time>2011-01-22T08:42:05Z</time>
      </trkpt>
      <trkpt lat="31.831254037097096" lon="35.030645001679659">
        <ele>334.86700000000002</ele>
        <time>2011-01-22T08:42:11Z</time>
      </trkpt>
      <trkpt lat="31.831252025440335" lon="35.030639972537756">
        <ele>335.70100000000002</ele>
        <time>2011-01-22T08:42:20Z</time>
      </trkpt>
      <trkpt lat="31.831246996298432" lon="35.030627986416221">
        <ele>336.18599999999998</ele>
        <time>2011-01-22T08:42:29Z</time>
      </trkpt>
      <trkpt lat="31.83126300573349" lon="35.030666040256619">
        <ele>336.97500000000002</ele>
        <time>2011-01-22T08:42:39Z</time>
      </trkpt>
      <trkpt lat="31.831297958269715" lon="35.030747009441257">
        <ele>337.58199999999999</ele>
        <time>2011-01-22T08:42:46Z</time>
      </trkpt>
      <trkpt lat="31.829749988391995" lon="35.02942300401628">
        <ele>338.447</ele>
        <time>2011-01-22T08:42:52Z</time>
      </trkpt>
      <trkpt lat="31.829740013927221" lon="35.029156962409616">
        <ele>339.50599999999997</ele>
        <time>2011-01-22T08:43:00Z</time>
      </trkpt>
      <trkpt lat="31.829710006713867" lon="35.028822021558881">
        <ele>341.173</ele>
        <time>2011-01-22T08:43:10Z</time>
      </trkpt>
      <trkpt lat="31.829632977023721" lon="35.028618006035686">
        <ele>342.51600000000002</ele>
        <time>2011-01-22T08:43:17Z</time>
      </trkpt>
      <trkpt lat="31.829484030604362" lon="35.028440980240703">
        <ele>344.71300000000002</ele>
        <time>2011-01-22T08:43:25Z</time>
      </trkpt>
      <trkpt lat="31.829338017851114" lon="35.028363028541207">
        <ele>346.00999999999999</ele>
        <time>2011-01-22T08:43:32Z</time>
      </trkpt>
      <trkpt lat="31.829220000654459" lon="35.028301002457738">
        <ele>347.17200000000003</ele>
        <time>2011-01-22T08:43:39Z</time>
      </trkpt>
      <trkpt lat="31.829054960981011" lon="35.028152978047729">
        <ele>348.22800000000001</ele>
        <time>2011-01-22T08:43:49Z</time>
      </trkpt>
      <trkpt lat="31.828950019553304" lon="35.0280059594661">
        <ele>349.32600000000002</ele>
        <time>2011-01-22T08:43:57Z</time>
      </trkpt>
      <trkpt lat="31.828841976821423" lon="35.027842009440064">
        <ele>351.59399999999999</ele>
        <time>2011-01-22T08:44:06Z</time>
      </trkpt>
      <trkpt lat="31.828773999586701" lon="35.027629025280476">
        <ele>353.56200000000001</ele>
        <time>2011-01-22T08:44:17Z</time>
      </trkpt>
      <trkpt lat="31.828738963231444" lon="35.027420986443758">
        <ele>355.50599999999997</ele>
        <time>2011-01-22T08:44:27Z</time>
      </trkpt>
      <trkpt lat="31.828720020130277" lon="35.027218982577324">
        <ele>356.88299999999998</ele>
        <time>2011-01-22T08:44:36Z</time>
      </trkpt>
      <trkpt lat="31.828703004866838" lon="35.027023013681173">
        <ele>358.85599999999999</ele>
        <time>2011-01-22T08:44:45Z</time>
      </trkpt>
      <trkpt lat="31.829040041193366" lon="35.026530995965004">
        <ele>360.25099999999998</ele>
        <time>2011-01-22T08:44:55Z</time>
      </trkpt>
      <trkpt lat="31.828866032883525" lon="35.026633003726602">
        <ele>362.12799999999999</ele>
        <time>2011-01-22T08:45:03Z</time>
      </trkpt>
      <trkpt lat="31.829008022323251" lon="35.026556979864836">
        <ele>362.20999999999998</ele>
        <time>2011-01-22T08:45:12Z</time>
      </trkpt>
      <trkpt lat="31.829044986516237" lon="35.026538958773017">
        <ele>363.52100000000002</ele>
        <time>2011-01-22T08:45:17Z</time>
      </trkpt>
      <trkpt lat="31.828978015109897" lon="35.026433011516929">
        <ele>363.08999999999997</ele>
        <time>2011-01-22T08:45:21Z</time>
      </trkpt>
      <trkpt lat="31.828867038711905" lon="35.026270989328623">
        <ele>361.44499999999999</ele>
        <time>2011-01-22T08:45:25Z</time>
      </trkpt>
      <trkpt lat="31.828580964356661" lon="35.025952979922295">
        <ele>358.00400000000002</ele>
        <time>2011-01-22T08:45:30Z</time>
      </trkpt>
      <trkpt lat="31.828292040154338" lon="35.025607980787754">
        <ele>354.601</ele>
        <time>2011-01-22T08:45:34Z</time>
      </trkpt>
      <trkpt lat="31.828030021861196" lon="35.025182012468576">
        <ele>350.80700000000002</ele>
        <time>2011-01-22T08:45:38Z</time>
      </trkpt>
      <trkpt lat="31.827768003568053" lon="35.024757971987128">
        <ele>347.80200000000002</ele>
        <time>2011-01-22T08:45:42Z</time>
      </trkpt>
      <trkpt lat="31.827394003048539" lon="35.024283975362778">
        <ele>342.80099999999999</ele>
        <time>2011-01-22T08:45:47Z</time>
      </trkpt>
      <trkpt lat="31.827198034152389" lon="35.024047018960118">
        <ele>340.83699999999999</ele>
        <time>2011-01-22T08:45:50Z</time>
      </trkpt>
      <trkpt lat="31.827043974772096" lon="35.023673018440604">
        <ele>338.74099999999999</ele>
        <time>2011-01-22T08:45:54Z</time>
      </trkpt>
      <trkpt lat="31.82709502056241" lon="35.023269010707736">
        <ele>336.25599999999997</ele>
        <time>2011-01-22T08:45:58Z</time>
      </trkpt>
      <trkpt lat="31.827128967270255" lon="35.023167002946138">
        <ele>335.666</ele>
        <time>2011-01-22T08:45:59Z</time>
      </trkpt>
      <trkpt lat="31.827427027747035" lon="35.02276299521327">
        <ele>332.97199999999998</ele>
        <time>2011-01-22T08:46:04Z</time>
      </trkpt>
      <trkpt lat="31.82763297110796" lon="35.02250399440527">
        <ele>330.15800000000002</ele>
        <time>2011-01-22T08:46:08Z</time>
      </trkpt>
      <trkpt lat="31.827919967472553" lon="35.021846015006304">
        <ele>326.72000000000003</ele>
        <time>2011-01-22T08:46:13Z</time>
      </trkpt>
      <trkpt lat="31.82802096940577" lon="35.021251989528537">
        <ele>323.601</ele>
        <time>2011-01-22T08:46:18Z</time>
      </trkpt>
      <trkpt lat="31.828115014359355" lon="35.020125964656472">
        <ele>315.91800000000001</ele>
        <time>2011-01-22T08:46:27Z</time>
      </trkpt>
      <trkpt lat="31.828134963288903" lon="35.020007025450468">
        <ele>314.839</ele>
        <time>2011-01-22T08:46:28Z</time>
      </trkpt>
      <trkpt lat="31.827671024948359" lon="35.019483994692564">
        <ele>312.10599999999999</ele>
        <time>2011-01-22T08:46:32Z</time>
      </trkpt>
      <trkpt lat="31.828508963808417" lon="35.019264975562692">
        <ele>311.23700000000002</ele>
        <time>2011-01-22T08:46:34Z</time>
      </trkpt>
      <trkpt lat="31.828565960749984" lon="35.019310992211103">
        <ele>310.74900000000002</ele>
        <time>2011-01-22T08:46:37Z</time>
      </trkpt>
      <trkpt lat="31.828589010983706" lon="35.019329013302922">
        <ele>310.63</ele>
        <time>2011-01-22T08:46:38Z</time>
      </trkpt>
      <trkpt lat="31.828838959336281" lon="35.019330019131303">
        <ele>311.59300000000002</ele>
        <time>2011-01-22T08:46:43Z</time>
      </trkpt>
      <trkpt lat="31.82898698374629" lon="35.019356003031135">
        <ele>313.13799999999998</ele>
        <time>2011-01-22T08:46:49Z</time>
      </trkpt>
      <trkpt lat="31.829064013436437" lon="35.019371006637812">
        <ele>313.93700000000001</ele>
        <time>2011-01-22T08:46:53Z</time>
      </trkpt>
      <trkpt lat="31.829161997884512" lon="35.019378969445825">
        <ele>314.11599999999999</ele>
        <time>2011-01-22T08:46:58Z</time>
      </trkpt>
      <trkpt lat="31.829226035624743" lon="35.019385004416108">
        <ele>315.40100000000001</ele>
        <time>2011-01-22T08:47:01Z</time>
      </trkpt>
      <trkpt lat="31.82935100980103" lon="35.019394978880882">
        <ele>316.92099999999999</ele>
        <time>2011-01-22T08:47:07Z</time>
      </trkpt>
      <trkpt lat="31.829515965655446" lon="35.019407970830798">
        <ele>318.721</ele>
        <time>2011-01-22T08:47:15Z</time>
      </trkpt>
      <trkpt lat="31.829621996730566" lon="35.019412999972701">
        <ele>319.47300000000001</ele>
        <time>2011-01-22T08:47:20Z</time>
      </trkpt>
      <trkpt lat="31.829731967300177" lon="35.019402019679546">
        <ele>320.78199999999998</ele>
        <time>2011-01-22T08:47:26Z</time>
      </trkpt>
      <trkpt lat="31.829916033893824" lon="35.019383998587728">
        <ele>322.91800000000001</ele>
        <time>2011-01-22T08:47:36Z</time>
      </trkpt>
      <trkpt lat="31.830054000020027" lon="35.019370000809431">
        <ele>324.197</ele>
        <time>2011-01-22T08:47:44Z</time>
      </trkpt>
      <trkpt lat="31.83018802665174" lon="35.019356003031135">
        <ele>325.70400000000001</ele>
        <time>2011-01-22T08:47:52Z</time>
      </trkpt>
      <trkpt lat="31.830268995836377" lon="35.019352985545993">
        <ele>326.74900000000002</ele>
        <time>2011-01-22T08:47:57Z</time>
      </trkpt>
      <trkpt lat="31.830349965021014" lon="35.019364971667528">
        <ele>327.83199999999999</ele>
        <time>2011-01-22T08:48:03Z</time>
      </trkpt>
      <trkpt lat="31.830477034673095" lon="35.019382992759347">
        <ele>328.73899999999998</ele>
        <time>2011-01-22T08:48:12Z</time>
      </trkpt>
      <trkpt lat="31.830605026334524" lon="35.019414005801082">
        <ele>330.71899999999999</ele>
        <time>2011-01-22T08:48:21Z</time>
      </trkpt>
      <trkpt lat="31.830709967762232" lon="35.019452981650829">
        <ele>332.51600000000002</ele>
        <time>2011-01-22T08:48:29Z</time>
      </trkpt>
      <trkpt lat="31.830809041857719" lon="35.019493969157338">
        <ele>334.46699999999998</ele>
        <time>2011-01-22T08:48:37Z</time>
      </trkpt>
      <trkpt lat="31.830925969406962" lon="35.01956001855433">
        <ele>335.98399999999998</ele>
        <time>2011-01-22T08:48:47Z</time>
      </trkpt>
      <trkpt lat="31.831006016582251" lon="35.019605029374361">
        <ele>337.19999999999999</ele>
        <time>2011-01-22T08:48:54Z</time>
      </trkpt>
      <trkpt lat="31.831095032393932" lon="35.019654985517263">
        <ele>338.161</ele>
        <time>2011-01-22T08:49:02Z</time>
      </trkpt>
      <trkpt lat="31.831209026277065" lon="35.019720029085875">
        <ele>339.404</ele>
        <time>2011-01-22T08:49:11Z</time>
      </trkpt>
      <trkpt lat="31.831316985189915" lon="35.019791023805737">
        <ele>341.21199999999999</ele>
        <time>2011-01-22T08:49:20Z</time>
      </trkpt>
      <trkpt lat="31.8313920032233" lon="35.019852966070175">
        <ele>342.47000000000003</ele>
        <time>2011-01-22T08:49:27Z</time>
      </trkpt>
      <trkpt lat="31.831484036520123" lon="35.01992798410356">
        <ele>344.02499999999998</ele>
        <time>2011-01-22T08:49:35Z</time>
      </trkpt>
      <trkpt lat="31.831560982391238" lon="35.019998978823423">
        <ele>345.33199999999999</ele>
        <time>2011-01-22T08:49:42Z</time>
      </trkpt>
      <trkpt lat="31.831646980717778" lon="35.020084977149963">
        <ele>346.86000000000001</ele>
        <time>2011-01-22T08:49:50Z</time>
      </trkpt>
      <trkpt lat="31.831741025671363" lon="35.020179022103548">
        <ele>348.70699999999999</ele>
        <time>2011-01-22T08:49:59Z</time>
      </trkpt>
      <trkpt lat="31.831859964877367" lon="35.020298967137933">
        <ele>350.69200000000001</ele>
        <time>2011-01-22T08:50:10Z</time>
      </trkpt>
      <trkpt lat="31.831946969032288" lon="35.020384965464473">
        <ele>351.983</ele>
        <time>2011-01-22T08:50:18Z</time>
      </trkpt>
      <trkpt lat="31.831967001780868" lon="35.020404998213053">
        <ele>352.238</ele>
        <time>2011-01-22T08:50:20Z</time>
      </trkpt>
      <trkpt lat="31.832016035914421" lon="35.020454032346606">
        <ele>353.22399999999999</ele>
        <time>2011-01-22T08:50:25Z</time>
      </trkpt>
      <trkpt lat="31.832116032019258" lon="35.020554028451443">
        <ele>354.971</ele>
        <time>2011-01-22T08:50:35Z</time>
      </trkpt>
      <trkpt lat="31.832218039780855" lon="35.02065603621304">
        <ele>355.56200000000001</ele>
        <time>2011-01-22T08:50:44Z</time>
      </trkpt>
      <trkpt lat="31.832323987036943" lon="35.02076500095427">
        <ele>357.80599999999998</ele>
        <time>2011-01-22T08:50:54Z</time>
      </trkpt>
      <trkpt lat="31.832414008677006" lon="35.020861979573965">
        <ele>359.11000000000001</ele>
        <time>2011-01-22T08:51:03Z</time>
      </trkpt>
      <trkpt lat="31.832504030317068" lon="35.020958036184311">
        <ele>360.14600000000002</ele>
        <time>2011-01-22T08:51:12Z</time>
      </trkpt>
      <trkpt lat="31.832591034471989" lon="35.021055014804006">
        <ele>361.68099999999998</ele>
        <time>2011-01-22T08:51:21Z</time>
      </trkpt>
      <trkpt lat="31.832657000049949" lon="35.021160962060094">
        <ele>362.59300000000002</ele>
        <time>2011-01-22T08:51:30Z</time>
      </trkpt>
      <trkpt lat="31.832708967849612" lon="35.021245032548904">
        <ele>363.82600000000002</ele>
        <time>2011-01-22T08:51:37Z</time>
      </trkpt>
      <trkpt lat="31.832765964791179" lon="35.021350979804993">
        <ele>364.69</ele>
        <time>2011-01-22T08:51:45Z</time>
      </trkpt>
      <trkpt lat="31.832812987267971" lon="35.021491041406989">
        <ele>366.81</ele>
        <time>2011-01-22T08:51:54Z</time>
      </trkpt>
      <trkpt lat="31.832839976996183" lon="35.02164401113987">
        <ele>368.89100000000002</ele>
        <time>2011-01-22T08:52:04Z</time>
      </trkpt>
      <trkpt lat="31.832859003916383" lon="35.021779965609312">
        <ele>370.84100000000001</ele>
        <time>2011-01-22T08:52:13Z</time>
      </trkpt>
      <trkpt lat="31.83287501335144" lon="35.021893037483096">
        <ele>372.25999999999999</ele>
        <time>2011-01-22T08:52:21Z</time>
      </trkpt>
      <trkpt lat="31.832885993644595" lon="35.021974006667733">
        <ele>373.25700000000001</ele>
        <time>2011-01-22T08:52:28Z</time>
      </trkpt>
      <trkpt lat="31.832885993644595" lon="35.022098980844021">
        <ele>374.76900000000001</ele>
        <time>2011-01-22T08:52:37Z</time>
      </trkpt>
      <trkpt lat="31.832885993644595" lon="35.022236024960876">
        <ele>376.05700000000002</ele>
        <time>2011-01-22T08:52:46Z</time>
      </trkpt>
      <trkpt lat="31.832885993644595" lon="35.022370973601937">
        <ele>377.43000000000001</ele>
        <time>2011-01-22T08:52:55Z</time>
      </trkpt>
      <trkpt lat="31.832885993644595" lon="35.022542970255017">
        <ele>379.54899999999998</ele>
        <time>2011-01-22T08:53:07Z</time>
      </trkpt>
      <trkpt lat="31.832892028614879" lon="35.022660987451673">
        <ele>380.46100000000001</ele>
        <time>2011-01-22T08:53:14Z</time>
      </trkpt>
      <trkpt lat="31.832920024171472" lon="35.022789984941483">
        <ele>381.72000000000003</ele>
        <time>2011-01-22T08:53:22Z</time>
      </trkpt>
      <trkpt lat="31.832949025556445" lon="35.022928034886718">
        <ele>383.06099999999998</ele>
        <time>2011-01-22T08:53:31Z</time>
      </trkpt>
      <trkpt lat="31.832979032769799" lon="35.023067006841302">
        <ele>384.40499999999997</ele>
        <time>2011-01-22T08:53:40Z</time>
      </trkpt>
      <trkpt lat="31.833007028326392" lon="35.023200027644634">
        <ele>386.13600000000002</ele>
        <time>2011-01-22T08:53:49Z</time>
      </trkpt>
      <trkpt lat="31.833096966147423" lon="35.023290971294045">
        <ele>387.13600000000002</ele>
        <time>2011-01-22T08:53:57Z</time>
      </trkpt>
      <trkpt lat="31.833200985565782" lon="35.023362971842289">
        <ele>388.09199999999998</ele>
        <time>2011-01-22T08:54:05Z</time>
      </trkpt>
      <trkpt lat="31.833288995549083" lon="35.023423992097378">
        <ele>389.29199999999997</ele>
        <time>2011-01-22T08:54:12Z</time>
      </trkpt>
      <trkpt lat="31.833406006917357" lon="35.023440001532435">
        <ele>390.85500000000002</ele>
        <time>2011-01-22T08:54:20Z</time>
      </trkpt>
      <trkpt lat="31.833515977486968" lon="35.02340798266232">
        <ele>391.93799999999999</ele>
        <time>2011-01-22T08:54:28Z</time>
      </trkpt>
      <trkpt lat="31.833594013005495" lon="35.02329901792109">
        <ele>392.49000000000001</ele>
        <time>2011-01-22T08:54:35Z</time>
      </trkpt>
      <trkpt lat="31.833638017997146" lon="35.023124003782868">
        <ele>392.89299999999997</ele>
        <time>2011-01-22T08:54:43Z</time>
      </trkpt>
      <trkpt lat="31.83366903103888" lon="35.0229980237782">
        <ele>393.45100000000002</ele>
        <time>2011-01-22T08:54:47Z</time>
      </trkpt>
      <trkpt lat="31.833708006888628" lon="35.022714966908097">
        <ele>394.43099999999998</ele>
        <time>2011-01-22T08:54:54Z</time>
      </trkpt>
      <trkpt lat="31.833744971081614" lon="35.022393018007278">
        <ele>394.464</ele>
        <time>2011-01-22T08:55:02Z</time>
      </trkpt>
      <trkpt lat="31.83377799578011" lon="35.022115996107459">
        <ele>394.10199999999998</ele>
        <time>2011-01-22T08:55:09Z</time>
      </trkpt>
      <trkpt lat="31.833819989115" lon="35.021841991692781">
        <ele>393.85199999999998</ele>
        <time>2011-01-22T08:55:17Z</time>
      </trkpt>
      <trkpt lat="31.83386298827827" lon="35.021589025855064">
        <ele>394.53800000000001</ele>
        <time>2011-01-22T08:55:24Z</time>
      </trkpt>
      <trkpt lat="31.833915039896965" lon="35.021284008398652">
        <ele>395.04399999999998</ele>
        <time>2011-01-22T08:55:33Z</time>
      </trkpt>
      <trkpt lat="31.834017969667912" lon="35.020996006205678">
        <ele>395.81099999999998</ele>
        <time>2011-01-22T08:55:42Z</time>
      </trkpt>
      <trkpt lat="31.834180997684598" lon="35.020728036761284">
        <ele>395.78199999999998</ele>
        <time>2011-01-22T08:55:50Z</time>
      </trkpt>
      <trkpt lat="31.834309995174408" lon="35.020524021238089">
        <ele>395.25599999999997</ele>
        <time>2011-01-22T08:55:56Z</time>
      </trkpt>
      <trkpt lat="31.834471011534333" lon="35.02027197740972">
        <ele>394.423</ele>
        <time>2011-01-22T08:56:03Z</time>
      </trkpt>
      <trkpt lat="31.83463403955102" lon="35.02014197409153">
        <ele>393.113</ele>
        <time>2011-01-22T08:56:09Z</time>
      </trkpt>
      <trkpt lat="31.834840988740325" lon="35.020038960501552">
        <ele>391.10700000000003</ele>
        <time>2011-01-22T08:56:15Z</time>
      </trkpt>
      <trkpt lat="31.83493796736002" lon="35.019976012408733">
        <ele>389.72399999999999</ele>
        <time>2011-01-22T08:56:18Z</time>
      </trkpt>
      <trkpt lat="31.835006028413773" lon="35.019932007417083">
        <ele>388.96100000000001</ele>
        <time>2011-01-22T08:56:20Z</time>
      </trkpt>
      <trkpt lat="31.835265029221773" lon="35.019765039905906">
        <ele>386.38099999999997</ele>
        <time>2011-01-22T08:56:27Z</time>
      </trkpt>
      <trkpt lat="31.835433002561331" lon="35.019629001617432">
        <ele>384.88600000000002</ele>
        <time>2011-01-22T08:56:32Z</time>
      </trkpt>
      <trkpt lat="31.835606005042791" lon="35.019394978880882">
        <ele>383.83499999999998</ele>
        <time>2011-01-22T08:56:38Z</time>
      </trkpt>
      <trkpt lat="31.835727961733937" lon="35.019075963646173">
        <ele>382.73000000000002</ele>
        <time>2011-01-22T08:56:44Z</time>
      </trkpt>
      <trkpt lat="31.835813038051128" lon="35.018824003636837">
        <ele>382.30200000000002</ele>
        <time>2011-01-22T08:56:49Z</time>
      </trkpt>
      <trkpt lat="31.835898030549288" lon="35.018515968695283">
        <ele>383.26400000000001</ele>
        <time>2011-01-22T08:56:57Z</time>
      </trkpt>
      <trkpt lat="31.835984028875828" lon="35.018202988430858">
        <ele>384.41199999999998</ele>
        <time>2011-01-22T08:57:06Z</time>
      </trkpt>
      <trkpt lat="31.836049994453788" lon="35.017980029806495">
        <ele>384.76100000000002</ele>
        <time>2011-01-22T08:57:13Z</time>
      </trkpt>
      <trkpt lat="31.836190978065133" lon="35.017758999019861">
        <ele>384.85300000000001</ele>
        <time>2011-01-22T08:57:20Z</time>
      </trkpt>
      <trkpt lat="31.836345959454775" lon="35.017595971003175">
        <ele>384.70800000000003</ele>
        <time>2011-01-22T08:57:26Z</time>
      </trkpt>
      <trkpt lat="31.836498007178307" lon="35.017436966300011">
        <ele>384.49099999999999</ele>
        <time>2011-01-22T08:57:32Z</time>
      </trkpt>
      <trkpt lat="31.836659023538232" lon="35.017291959375143">
        <ele>384.37299999999999</ele>
        <time>2011-01-22T08:57:38Z</time>
      </trkpt>
      <trkpt lat="31.836840994656086" lon="35.017144018784165">
        <ele>384.05500000000001</ele>
        <time>2011-01-22T08:57:45Z</time>
      </trkpt>
      <trkpt lat="31.83699999935925" lon="35.016995994374156">
        <ele>383.70600000000002</ele>
        <time>2011-01-22T08:57:51Z</time>
      </trkpt>
      <trkpt lat="31.837262017652392" lon="35.016691982746124">
        <ele>382.61000000000001</ele>
        <time>2011-01-22T08:58:01Z</time>
      </trkpt>
      <trkpt lat="31.837427979335189" lon="35.016401968896389">
        <ele>381.24400000000003</ele>
        <time>2011-01-22T08:58:08Z</time>
      </trkpt>
      <trkpt lat="31.837519006803632" lon="35.016153026372194">
        <ele>380.084</ele>
        <time>2011-01-22T08:58:14Z</time>
      </trkpt>
      <trkpt lat="31.837610034272075" lon="35.015942975878716">
        <ele>378.51900000000001</ele>
        <time>2011-01-22T08:58:19Z</time>
      </trkpt>
      <trkpt lat="31.837683040648699" lon="35.015763016417623">
        <ele>376.702</ele>
        <time>2011-01-22T08:58:24Z</time>
      </trkpt>
      <trkpt lat="31.837696032598615" lon="35.015687998384237">
        <ele>376.12599999999998</ele>
        <time>2011-01-22T08:58:26Z</time>
      </trkpt>
      <trkpt lat="31.837723022326827" lon="35.015422962605953">
        <ele>374.03199999999998</ele>
        <time>2011-01-22T08:58:31Z</time>
      </trkpt>
      <trkpt lat="31.837729979306459" lon="35.01522003673017">
        <ele>372.55700000000002</ele>
        <time>2011-01-22T08:58:34Z</time>
      </trkpt>
      <trkpt lat="31.837724028155208" lon="35.015145018696785">
        <ele>371.899</ele>
        <time>2011-01-22T08:58:35Z</time>
      </trkpt>
      <trkpt lat="31.837677005678415" lon="35.014530038461089">
        <ele>368.964</ele>
        <time>2011-01-22T08:58:42Z</time>
      </trkpt>
      <trkpt lat="31.837655967101455" lon="35.014249999076128">
        <ele>367.524</ele>
        <time>2011-01-22T08:58:45Z</time>
      </trkpt>
      <trkpt lat="31.837617997080088" lon="35.013756975531578">
        <ele>365.51799999999997</ele>
        <time>2011-01-22T08:58:50Z</time>
      </trkpt>
      <trkpt lat="31.837586984038353" lon="35.01335296779871">
        <ele>363.77499999999998</ele>
        <time>2011-01-22T08:58:54Z</time>
      </trkpt>
      <trkpt lat="31.837580027058721" lon="35.013252971693873">
        <ele>363.19400000000002</ele>
        <time>2011-01-22T08:58:55Z</time>
      </trkpt>
      <trkpt lat="31.837556976824999" lon="35.012951977550983">
        <ele>361.88099999999997</ele>
        <time>2011-01-22T08:58:58Z</time>
      </trkpt>
      <trkpt lat="31.837507020682096" lon="35.012353006750345">
        <ele>359.61099999999999</ele>
        <time>2011-01-22T08:59:04Z</time>
      </trkpt>
      <trkpt lat="31.837473995983601" lon="35.012041032314301">
        <ele>358.14100000000002</ele>
        <time>2011-01-22T08:59:07Z</time>
      </trkpt>
      <trkpt lat="31.837614979594946" lon="35.011412976309657">
        <ele>355.18900000000002</ele>
        <time>2011-01-22T08:59:12Z</time>
      </trkpt>
      <trkpt lat="31.837360002100468" lon="35.010779974982142">
        <ele>351.53199999999998</ele>
        <time>2011-01-22T08:59:18Z</time>
      </trkpt>
      <trkpt lat="31.837414987385273" lon="35.010291980579495">
        <ele>348.93700000000001</ele>
        <time>2011-01-22T08:59:23Z</time>
      </trkpt>
      <trkpt lat="31.837557982653379" lon="35.009681023657322">
        <ele>346.25400000000002</ele>
        <time>2011-01-22T08:59:27Z</time>
      </trkpt>
      <trkpt lat="31.837657978758216" lon="35.009318003430963">
        <ele>343.95299999999997</ele>
        <time>2011-01-22T08:59:31Z</time>
      </trkpt>
      <trkpt lat="31.83783701620996" lon="35.008733030408621">
        <ele>343.41800000000001</ele>
        <time>2011-01-22T08:59:36Z</time>
      </trkpt>
      <trkpt lat="31.837986968457699" lon="35.008269008249044">
        <ele>342.59699999999998</ele>
        <time>2011-01-22T08:59:41Z</time>
      </trkpt>
      <trkpt lat="31.838148990646005" lon="35.007761986926198">
        <ele>334.08300000000003</ele>
        <time>2011-01-22T08:59:46Z</time>
      </trkpt>
      <trkpt lat="31.838225014507771" lon="35.007319003343582">
        <ele>327.94</ele>
        <time>2011-01-22T08:59:50Z</time>
      </trkpt>
      <trkpt lat="31.838255021721125" lon="35.00692899338901">
        <ele>324.69200000000001</ele>
        <time>2011-01-22T08:59:53Z</time>
      </trkpt>
      <trkpt lat="31.83822400867939" lon="35.006528003141284">
        <ele>322.70499999999998</ele>
        <time>2011-01-22T08:59:56Z</time>
      </trkpt>
      <trkpt lat="31.838192995637655" lon="35.006409985944629">
        <ele>321.38799999999998</ele>
        <time>2011-01-22T08:59:57Z</time>
      </trkpt>
      <trkpt lat="31.838123006746173" lon="35.00621996819973">
        <ele>320.21600000000001</ele>
        <time>2011-01-22T08:59:59Z</time>
      </trkpt>
      <trkpt lat="31.838079001754522" lon="35.006132964044809">
        <ele>319.70699999999999</ele>
        <time>2011-01-22T09:00:00Z</time>
      </trkpt>
      <trkpt lat="31.837927037850022" lon="35.005872035399079">
        <ele>317.49200000000002</ele>
        <time>2011-01-22T09:00:04Z</time>
      </trkpt>
      <trkpt lat="31.837743977084756" lon="35.00561797991395">
        <ele>316.79899999999998</ele>
        <time>2011-01-22T09:00:08Z</time>
      </trkpt>
      <trkpt lat="31.837501991540194" lon="35.005306005477905">
        <ele>315.21800000000002</ele>
        <time>2011-01-22T09:00:12Z</time>
      </trkpt>
      <trkpt lat="31.837372994050384" lon="35.005139959976077">
        <ele>314.31700000000001</ele>
        <time>2011-01-22T09:00:14Z</time>
      </trkpt>
      <trkpt lat="31.837210971862078" lon="35.004851035773754">
        <ele>313.964</ele>
        <time>2011-01-22T09:00:17Z</time>
      </trkpt>
      <trkpt lat="31.837240979075432" lon="35.004548029974103">
        <ele>316.21199999999999</ele>
        <time>2011-01-22T09:00:20Z</time>
      </trkpt>
      <trkpt lat="31.837303005158901" lon="35.004361029714346">
        <ele>317.26299999999998</ele>
        <time>2011-01-22T09:00:22Z</time>
      </trkpt>
      <trkpt lat="31.837399983778596" lon="35.004118038341403">
        <ele>318.49400000000003</ele>
        <time>2011-01-22T09:00:25Z</time>
      </trkpt>
      <trkpt lat="31.837586984038353" lon="35.003722999244928">
        <ele>317.20499999999998</ele>
        <time>2011-01-22T09:00:30Z</time>
      </trkpt>
      <trkpt lat="31.837611040100455" lon="35.003600036725402">
        <ele>316.072</ele>
        <time>2011-01-22T09:00:32Z</time>
      </trkpt>
      <trkpt lat="31.837645992636681" lon="35.003428040072322">
        <ele>315.45499999999998</ele>
        <time>2011-01-22T09:00:35Z</time>
      </trkpt>
      <trkpt lat="31.837573992088437" lon="35.003024032339454">
        <ele>315.11599999999999</ele>
        <time>2011-01-22T09:00:41Z</time>
      </trkpt>
      <trkpt lat="31.837443988770247" lon="35.002378961071372">
        <ele>316.22800000000001</ele>
        <time>2011-01-22T09:00:50Z</time>
      </trkpt>
      <trkpt lat="31.837415993213654" lon="35.001898007467389">
        <ele>317.65300000000002</ele>
        <time>2011-01-22T09:00:57Z</time>
      </trkpt>
      <trkpt lat="31.837424039840698" lon="35.001768004149199">
        <ele>318.09500000000003</ele>
        <time>2011-01-22T09:00:59Z</time>
      </trkpt>
      <trkpt lat="31.837543984875083" lon="35.001402972266078">
        <ele>318.452</ele>
        <time>2011-01-22T09:01:05Z</time>
      </trkpt>
      <trkpt lat="31.837849002331495" lon="35.00102000311017">
        <ele>315.64100000000002</ele>
        <time>2011-01-22T09:01:11Z</time>
      </trkpt>
      <trkpt lat="31.838187966495752" lon="35.000648014247417">
        <ele>312.54199999999997</ele>
        <time>2011-01-22T09:01:16Z</time>
      </trkpt>
      <trkpt lat="31.838325010612607" lon="35.000471994280815">
        <ele>311.75900000000001</ele>
        <time>2011-01-22T09:01:18Z</time>
      </trkpt>
      <trkpt lat="31.838490972295403" lon="35.000157002359629">
        <ele>309.214</ele>
        <time>2011-01-22T09:01:21Z</time>
      </trkpt>
      <trkpt lat="31.838706973940134" lon="34.99955995939672">
        <ele>301.62099999999998</ele>
        <time>2011-01-22T09:01:26Z</time>
      </trkpt>
      <trkpt lat="31.838925993070006" lon="34.998893011361361">
        <ele>295.923</ele>
        <time>2011-01-22T09:01:32Z</time>
      </trkpt>
      <trkpt lat="31.839123973622918" lon="34.998297980055213">
        <ele>294.18900000000002</ele>
        <time>2011-01-22T09:01:37Z</time>
      </trkpt>
      <trkpt lat="31.839238973334432" lon="34.997953986749053">
        <ele>290.08300000000003</ele>
        <time>2011-01-22T09:01:40Z</time>
      </trkpt>
      <trkpt lat="31.839368976652622" lon="34.997577974572778">
        <ele>286.24400000000003</ele>
        <time>2011-01-22T09:01:44Z</time>
      </trkpt>
      <trkpt lat="31.839499985799193" lon="34.997306987643242">
        <ele>282.221</ele>
        <time>2011-01-22T09:01:48Z</time>
      </trkpt>
      <trkpt lat="31.839647004380822" lon="34.997111018747091">
        <ele>280.31700000000001</ele>
        <time>2011-01-22T09:01:52Z</time>
      </trkpt>
      <trkpt lat="31.839840039610863" lon="34.996854029595852">
        <ele>278.834</ele>
        <time>2011-01-22T09:01:56Z</time>
      </trkpt>
      <trkpt lat="31.840047994628549" lon="34.996495032683015">
        <ele>276.774</ele>
        <time>2011-01-22T09:02:00Z</time>
      </trkpt>
      <trkpt lat="31.840361980721354" lon="34.995847027748823">
        <ele>273.14299999999997</ele>
        <time>2011-01-22T09:02:06Z</time>
      </trkpt>
      <trkpt lat="31.840662974864244" lon="34.995332965627313">
        <ele>272.08999999999997</ele>
        <time>2011-01-22T09:02:12Z</time>
      </trkpt>
      <trkpt lat="31.840778980404139" lon="34.995117969810963">
        <ele>270.91500000000002</ele>
        <time>2011-01-22T09:02:13Z</time>
      </trkpt>
      <trkpt lat="31.840980984270573" lon="34.994707005098462">
        <ele>263.87900000000002</ele>
        <time>2011-01-22T09:02:17Z</time>
      </trkpt>
      <trkpt lat="31.841177036985755" lon="34.994328981265426">
        <ele>261.55799999999999</ele>
        <time>2011-01-22T09:02:21Z</time>
      </trkpt>
      <trkpt lat="31.84134098701179" lon="34.994008038192987">
        <ele>256.90100000000001</ele>
        <time>2011-01-22T09:02:25Z</time>
      </trkpt>
      <trkpt lat="31.841451963409781" lon="34.993772003799677">
        <ele>253.78200000000001</ele>
        <time>2011-01-22T09:02:30Z</time>
      </trkpt>
      <trkpt lat="31.841521030291915" lon="34.993612999096513">
        <ele>252.566</ele>
        <time>2011-01-22T09:02:34Z</time>
      </trkpt>
      <trkpt lat="31.84155497699976" lon="34.993536975234747">
        <ele>251.59800000000001</ele>
        <time>2011-01-22T09:02:38Z</time>
      </trkpt>
      <trkpt lat="31.84144601225853" lon="34.993455000221729">
        <ele>251.36699999999999</ele>
        <time>2011-01-22T09:02:41Z</time>
      </trkpt>
      <trkpt lat="31.841419022530317" lon="34.993434967473149">
        <ele>251.56399999999999</ele>
        <time>2011-01-22T09:02:42Z</time>
      </trkpt>
      <trkpt lat="31.841364037245512" lon="34.993384005501866">
        <ele>251.523</ele>
        <time>2011-01-22T09:02:46Z</time>
      </trkpt>
      <trkpt lat="31.841325983405113" lon="34.993336983025074">
        <ele>251.673</ele>
        <time>2011-01-22T09:02:48Z</time>
      </trkpt>
      <trkpt lat="31.841235961765051" lon="34.993223994970322">
        <ele>251.887</ele>
        <time>2011-01-22T09:02:51Z</time>
      </trkpt>
      <trkpt lat="31.841201009228826" lon="34.993179989978671">
        <ele>251.988</ele>
        <time>2011-01-22T09:02:52Z</time>
      </trkpt>
      <trkpt lat="31.8410399928689" lon="34.992978991940618">
        <ele>251.96299999999999</ele>
        <time>2011-01-22T09:02:58Z</time>
      </trkpt>
      <trkpt lat="31.840647971257567" lon="34.992646984755993">
        <ele>251.42099999999999</ele>
        <time>2011-01-22T09:03:04Z</time>
      </trkpt>
      <trkpt lat="31.84028503485024" lon="34.992551011964679">
        <ele>251.274</ele>
        <time>2011-01-22T09:03:10Z</time>
      </trkpt>
      <trkpt lat="31.839899970218539" lon="34.992670034989715">
        <ele>251.61500000000001</ele>
        <time>2011-01-22T09:03:17Z</time>
      </trkpt>
      <trkpt lat="31.839752029627562" lon="34.992728037759662">
        <ele>251.94900000000001</ele>
        <time>2011-01-22T09:03:21Z</time>
      </trkpt>
      <trkpt lat="31.839712969958782" lon="34.992743041366339">
        <ele>252.10900000000001</ele>
        <time>2011-01-22T09:03:25Z</time>
      </trkpt>
    </trkseg>
  </trk>

</gpx>
